<?xml version="1.0" encoding="UTF-8"?>
<gpx xmlns="http://www.topografix.com/GPX/1/1" xmlns:xsi="http://www.w3.org/2001/XMLSchema-instance" version="1.1" xsi:schemaLocation="http://www.topografix.com/GPX/1/1 http://www.topografix.com/GPX/1/1/gpx.xsd">
  <metadata>
    <name>European Aquabike Championships 2024 Coimbra</name>
  </metadata>
  <trk>
    <name>European Aquabike Championships 2024 Coimbra</name>
    <trkseg>
      <trkpt lat="40.199463" lon="-8.422949">
        <ele>22.472231</ele>
        <time>2024-06-22T09:38:00.000Z</time>
      </trkpt>
      <trkpt lat="40.199265" lon="-8.422761">
        <ele>22.472232</ele>
        <time>2024-06-22T09:38:03.000Z</time>
      </trkpt>
      <trkpt lat="40.199081" lon="-8.422556">
        <ele>22.472245</ele>
        <time>2024-06-22T09:38:06.000Z</time>
      </trkpt>
      <trkpt lat="40.198886" lon="-8.422257">
        <ele>22.472236</ele>
        <time>2024-06-22T09:38:09.000Z</time>
      </trkpt>
      <trkpt lat="40.198433" lon="-8.421687">
        <ele>23.001145</ele>
        <time>2024-06-22T09:38:16.000Z</time>
      </trkpt>
      <trkpt lat="40.198194" lon="-8.421434">
        <ele>23.31971</ele>
        <time>2024-06-22T09:38:19.000Z</time>
      </trkpt>
      <trkpt lat="40.197844" lon="-8.421242">
        <ele>23.720374</ele>
        <time>2024-06-22T09:38:23.000Z</time>
      </trkpt>
      <trkpt lat="40.197217" lon="-8.42111">
        <ele>24.41751</ele>
        <time>2024-06-22T09:38:30.000Z</time>
      </trkpt>
      <trkpt lat="40.197066" lon="-8.421042">
        <ele>24.756615</ele>
        <time>2024-06-22T09:38:32.000Z</time>
      </trkpt>
      <trkpt lat="40.196974" lon="-8.42103">
        <ele>24.948509</ele>
        <time>2024-06-22T09:38:33.000Z</time>
      </trkpt>
      <trkpt lat="40.196967" lon="-8.421031">
        <ele>24.952644</ele>
        <time>2024-06-22T09:38:33.000Z</time>
      </trkpt>
      <trkpt lat="40.196957" lon="-8.421028">
        <ele>24.96104</ele>
        <time>2024-06-22T09:38:33.000Z</time>
      </trkpt>
      <trkpt lat="40.196308" lon="-8.421">
        <ele>26.316742</ele>
        <time>2024-06-22T09:38:40.000Z</time>
      </trkpt>
      <trkpt lat="40.1957" lon="-8.420971">
        <ele>27.567558</ele>
        <time>2024-06-22T09:38:47.000Z</time>
      </trkpt>
      <trkpt lat="40.195585" lon="-8.420979">
        <ele>27.813005</ele>
        <time>2024-06-22T09:38:48.000Z</time>
      </trkpt>
      <trkpt lat="40.194796" lon="-8.42095">
        <ele>28.654454</ele>
        <time>2024-06-22T09:38:57.000Z</time>
      </trkpt>
      <trkpt lat="40.194456" lon="-8.420933">
        <ele>28.942724</ele>
        <time>2024-06-22T09:39:01.000Z</time>
      </trkpt>
      <trkpt lat="40.193773" lon="-8.420869">
        <ele>29.562727</ele>
        <time>2024-06-22T09:39:09.000Z</time>
      </trkpt>
      <trkpt lat="40.193496" lon="-8.420733">
        <ele>29.79728</ele>
        <time>2024-06-22T09:39:12.000Z</time>
      </trkpt>
      <trkpt lat="40.193221" lon="-8.420466">
        <ele>30.067195</ele>
        <time>2024-06-22T09:39:16.000Z</time>
      </trkpt>
      <trkpt lat="40.193084" lon="-8.420398">
        <ele>30.179213</ele>
        <time>2024-06-22T09:39:18.000Z</time>
      </trkpt>
      <trkpt lat="40.192989" lon="-8.420382">
        <ele>30.23884</ele>
        <time>2024-06-22T09:39:19.000Z</time>
      </trkpt>
      <trkpt lat="40.192915" lon="-8.420441">
        <ele>30.31094</ele>
        <time>2024-06-22T09:39:20.000Z</time>
      </trkpt>
      <trkpt lat="40.192824" lon="-8.420445">
        <ele>30.383702</ele>
        <time>2024-06-22T09:39:21.000Z</time>
      </trkpt>
      <trkpt lat="40.192731" lon="-8.420414">
        <ele>30.455615</ele>
        <time>2024-06-22T09:39:22.000Z</time>
      </trkpt>
      <trkpt lat="40.192071" lon="-8.420486">
        <ele>30.950365</ele>
        <time>2024-06-22T09:39:29.000Z</time>
      </trkpt>
      <trkpt lat="40.19121" lon="-8.420626">
        <ele>31.935164</ele>
        <time>2024-06-22T09:39:39.000Z</time>
      </trkpt>
      <trkpt lat="40.191219" lon="-8.420627">
        <ele>31.937673</ele>
        <time>2024-06-22T09:39:39.000Z</time>
      </trkpt>
      <trkpt lat="40.191216" lon="-8.420636">
        <ele>31.938865</ele>
        <time>2024-06-22T09:39:39.000Z</time>
      </trkpt>
      <trkpt lat="40.191207" lon="-8.420619">
        <ele>31.938855</ele>
        <time>2024-06-22T09:39:39.000Z</time>
      </trkpt>
      <trkpt lat="40.19121" lon="-8.420621">
        <ele>31.938858</ele>
        <time>2024-06-22T09:39:39.000Z</time>
      </trkpt>
      <trkpt lat="40.190388" lon="-8.420829">
        <ele>32.936716</ele>
        <time>2024-06-22T09:39:48.000Z</time>
      </trkpt>
      <trkpt lat="40.189701" lon="-8.420929">
        <ele>32.610879</ele>
        <time>2024-06-22T09:39:56.000Z</time>
      </trkpt>
      <trkpt lat="40.189075" lon="-8.420946">
        <ele>31.94033</ele>
        <time>2024-06-22T09:40:03.000Z</time>
      </trkpt>
      <trkpt lat="40.188553" lon="-8.420898">
        <ele>31.367342</ele>
        <time>2024-06-22T09:40:09.000Z</time>
      </trkpt>
      <trkpt lat="40.188078" lon="-8.420791">
        <ele>30.47952</ele>
        <time>2024-06-22T09:40:14.000Z</time>
      </trkpt>
      <trkpt lat="40.187929" lon="-8.420752">
        <ele>30.131625</ele>
        <time>2024-06-22T09:40:16.000Z</time>
      </trkpt>
      <trkpt lat="40.187651" lon="-8.420656">
        <ele>29.516971</ele>
        <time>2024-06-22T09:40:19.000Z</time>
      </trkpt>
      <trkpt lat="40.187395" lon="-8.420532">
        <ele>28.908228</ele>
        <time>2024-06-22T09:40:22.000Z</time>
      </trkpt>
      <trkpt lat="40.187034" lon="-8.420349">
        <ele>28.083307</ele>
        <time>2024-06-22T09:40:26.000Z</time>
      </trkpt>
      <trkpt lat="40.186583" lon="-8.42004">
        <ele>27.046607</ele>
        <time>2024-06-22T09:40:32.000Z</time>
      </trkpt>
      <trkpt lat="40.186111" lon="-8.419657">
        <ele>26.204031</ele>
        <time>2024-06-22T09:40:38.000Z</time>
      </trkpt>
      <trkpt lat="40.185697" lon="-8.419245">
        <ele>25.4263</ele>
        <time>2024-06-22T09:40:44.000Z</time>
      </trkpt>
      <trkpt lat="40.185177" lon="-8.418582">
        <ele>24.547359</ele>
        <time>2024-06-22T09:40:52.000Z</time>
      </trkpt>
      <trkpt lat="40.185035" lon="-8.418364">
        <ele>24.510829</ele>
        <time>2024-06-22T09:40:54.000Z</time>
      </trkpt>
      <trkpt lat="40.184914" lon="-8.418157">
        <ele>24.478021</ele>
        <time>2024-06-22T09:40:56.000Z</time>
      </trkpt>
      <trkpt lat="40.184902" lon="-8.418164">
        <ele>24.477513</ele>
        <time>2024-06-22T09:40:56.000Z</time>
      </trkpt>
      <trkpt lat="40.184905" lon="-8.418158">
        <ele>24.4772</ele>
        <time>2024-06-22T09:40:56.000Z</time>
      </trkpt>
      <trkpt lat="40.184904" lon="-8.418156">
        <ele>24.47707</ele>
        <time>2024-06-22T09:40:56.000Z</time>
      </trkpt>
      <trkpt lat="40.184738" lon="-8.417896">
        <ele>24.4311</ele>
        <time>2024-06-22T09:40:59.000Z</time>
      </trkpt>
      <trkpt lat="40.184293" lon="-8.417111">
        <ele>24.30684</ele>
        <time>2024-06-22T09:41:07.000Z</time>
      </trkpt>
      <trkpt lat="40.184022" lon="-8.416499">
        <ele>24.336825</ele>
        <time>2024-06-22T09:41:13.000Z</time>
      </trkpt>
      <trkpt lat="40.183716" lon="-8.415775">
        <ele>24.464888</ele>
        <time>2024-06-22T09:41:20.000Z</time>
      </trkpt>
      <trkpt lat="40.183331" lon="-8.414535">
        <ele>24.628677</ele>
        <time>2024-06-22T09:41:31.000Z</time>
      </trkpt>
      <trkpt lat="40.183229" lon="-8.414116">
        <ele>24.611795</ele>
        <time>2024-06-22T09:41:35.000Z</time>
      </trkpt>
      <trkpt lat="40.183113" lon="-8.413674">
        <ele>24.594677</ele>
        <time>2024-06-22T09:41:39.000Z</time>
      </trkpt>
      <trkpt lat="40.182835" lon="-8.412223">
        <ele>24.563729</ele>
        <time>2024-06-22T09:41:52.000Z</time>
      </trkpt>
      <trkpt lat="40.182691" lon="-8.411318">
        <ele>24.614573</ele>
        <time>2024-06-22T09:42:00.000Z</time>
      </trkpt>
      <trkpt lat="40.182612" lon="-8.410568">
        <ele>24.655916</ele>
        <time>2024-06-22T09:42:06.000Z</time>
      </trkpt>
      <trkpt lat="40.18253" lon="-8.409386">
        <ele>24.609986</ele>
        <time>2024-06-22T09:42:16.000Z</time>
      </trkpt>
      <trkpt lat="40.182498" lon="-8.408274">
        <ele>24.517058</ele>
        <time>2024-06-22T09:42:25.000Z</time>
      </trkpt>
      <trkpt lat="40.182516" lon="-8.407073">
        <ele>24.481836</ele>
        <time>2024-06-22T09:42:35.000Z</time>
      </trkpt>
      <trkpt lat="40.182637" lon="-8.405621">
        <ele>24.486441</ele>
        <time>2024-06-22T09:42:47.000Z</time>
      </trkpt>
      <trkpt lat="40.182762" lon="-8.404627">
        <ele>24.58128</ele>
        <time>2024-06-22T09:42:56.000Z</time>
      </trkpt>
      <trkpt lat="40.183008" lon="-8.40315">
        <ele>24.749594</ele>
        <time>2024-06-22T09:43:09.000Z</time>
      </trkpt>
      <trkpt lat="40.183068" lon="-8.402893">
        <ele>24.81243</ele>
        <time>2024-06-22T09:43:11.000Z</time>
      </trkpt>
      <trkpt lat="40.183096" lon="-8.402769">
        <ele>24.845685</ele>
        <time>2024-06-22T09:43:12.000Z</time>
      </trkpt>
      <trkpt lat="40.18316" lon="-8.40252">
        <ele>24.907746</ele>
        <time>2024-06-22T09:43:14.000Z</time>
      </trkpt>
      <trkpt lat="40.183788" lon="-8.400291">
        <ele>25.391045</ele>
        <time>2024-06-22T09:43:34.000Z</time>
      </trkpt>
      <trkpt lat="40.184287" lon="-8.39845">
        <ele>25.607726</ele>
        <time>2024-06-22T09:43:51.000Z</time>
      </trkpt>
      <trkpt lat="40.184458" lon="-8.397923">
        <ele>25.664168</ele>
        <time>2024-06-22T09:43:56.000Z</time>
      </trkpt>
      <trkpt lat="40.184648" lon="-8.397623">
        <ele>25.704488</ele>
        <time>2024-06-22T09:43:59.000Z</time>
      </trkpt>
      <trkpt lat="40.184663" lon="-8.397663">
        <ele>25.709566</ele>
        <time>2024-06-22T09:43:59.000Z</time>
      </trkpt>
      <trkpt lat="40.184668" lon="-8.397671">
        <ele>25.711097</ele>
        <time>2024-06-22T09:43:59.000Z</time>
      </trkpt>
      <trkpt lat="40.184694" lon="-8.397696">
        <ele>25.715387</ele>
        <time>2024-06-22T09:43:59.000Z</time>
      </trkpt>
      <trkpt lat="40.184621" lon="-8.397801">
        <ele>25.729796</ele>
        <time>2024-06-22T09:44:00.000Z</time>
      </trkpt>
      <trkpt lat="40.18453" lon="-8.397972">
        <ele>25.751287</ele>
        <time>2024-06-22T09:44:02.000Z</time>
      </trkpt>
      <trkpt lat="40.184391" lon="-8.398487">
        <ele>25.807149</ele>
        <time>2024-06-22T09:44:07.000Z</time>
      </trkpt>
      <trkpt lat="40.183852" lon="-8.400316">
        <ele>25.727257</ele>
        <time>2024-06-22T09:44:24.000Z</time>
      </trkpt>
      <trkpt lat="40.183238" lon="-8.402543">
        <ele>25.087983</ele>
        <time>2024-06-22T09:44:44.000Z</time>
      </trkpt>
      <trkpt lat="40.18319" lon="-8.402798">
        <ele>25.003621</ele>
        <time>2024-06-22T09:44:46.000Z</time>
      </trkpt>
      <trkpt lat="40.183148" lon="-8.402938">
        <ele>24.959416</ele>
        <time>2024-06-22T09:44:47.000Z</time>
      </trkpt>
      <trkpt lat="40.183097" lon="-8.403176">
        <ele>24.913372</ele>
        <time>2024-06-22T09:44:49.000Z</time>
      </trkpt>
      <trkpt lat="40.183085" lon="-8.403272">
        <ele>24.900429</ele>
        <time>2024-06-22T09:44:50.000Z</time>
      </trkpt>
      <trkpt lat="40.183083" lon="-8.403279">
        <ele>24.90019</ele>
        <time>2024-06-22T09:44:50.000Z</time>
      </trkpt>
      <trkpt lat="40.183086" lon="-8.403276">
        <ele>24.899918</ele>
        <time>2024-06-22T09:44:50.000Z</time>
      </trkpt>
      <trkpt lat="40.183083" lon="-8.403274">
        <ele>24.899777</ele>
        <time>2024-06-22T09:44:50.000Z</time>
      </trkpt>
      <trkpt lat="40.182924" lon="-8.404115">
        <ele>24.782189</ele>
        <time>2024-06-22T09:44:57.000Z</time>
      </trkpt>
      <trkpt lat="40.182766" lon="-8.40516">
        <ele>24.635786</ele>
        <time>2024-06-22T09:45:06.000Z</time>
      </trkpt>
      <trkpt lat="40.18271" lon="-8.405646">
        <ele>24.660114</ele>
        <time>2024-06-22T09:45:10.000Z</time>
      </trkpt>
      <trkpt lat="40.18264" lon="-8.40642">
        <ele>24.748805</ele>
        <time>2024-06-22T09:45:17.000Z</time>
      </trkpt>
      <trkpt lat="40.182612" lon="-8.407089">
        <ele>24.825367</ele>
        <time>2024-06-22T09:45:23.000Z</time>
      </trkpt>
      <trkpt lat="40.182584" lon="-8.408276">
        <ele>24.939535</ele>
        <time>2024-06-22T09:45:33.000Z</time>
      </trkpt>
      <trkpt lat="40.182616" lon="-8.409379">
        <ele>25.026191</ele>
        <time>2024-06-22T09:45:42.000Z</time>
      </trkpt>
      <trkpt lat="40.182695" lon="-8.410551">
        <ele>25.017628</ele>
        <time>2024-06-22T09:45:52.000Z</time>
      </trkpt>
      <trkpt lat="40.182771" lon="-8.411299">
        <ele>24.946691</ele>
        <time>2024-06-22T09:45:58.000Z</time>
      </trkpt>
      <trkpt lat="40.182909" lon="-8.412203">
        <ele>24.85801</ele>
        <time>2024-06-22T09:46:06.000Z</time>
      </trkpt>
      <trkpt lat="40.183023" lon="-8.412804">
        <ele>24.896775</ele>
        <time>2024-06-22T09:46:11.000Z</time>
      </trkpt>
      <trkpt lat="40.183204" lon="-8.413661">
        <ele>24.979539</ele>
        <time>2024-06-22T09:46:19.000Z</time>
      </trkpt>
      <trkpt lat="40.183414" lon="-8.414501">
        <ele>25.062958</ele>
        <time>2024-06-22T09:46:27.000Z</time>
      </trkpt>
      <trkpt lat="40.183596" lon="-8.415192">
        <ele>24.986354</ele>
        <time>2024-06-22T09:46:33.000Z</time>
      </trkpt>
      <trkpt lat="40.183842" lon="-8.415898">
        <ele>24.888622</ele>
        <time>2024-06-22T09:46:40.000Z</time>
      </trkpt>
      <trkpt lat="40.18434" lon="-8.417051">
        <ele>24.846553</ele>
        <time>2024-06-22T09:46:51.000Z</time>
      </trkpt>
      <trkpt lat="40.184543" lon="-8.417441">
        <ele>24.932461</ele>
        <time>2024-06-22T09:46:55.000Z</time>
      </trkpt>
      <trkpt lat="40.184549" lon="-8.417434">
        <ele>24.932774</ele>
        <time>2024-06-22T09:46:55.000Z</time>
      </trkpt>
      <trkpt lat="40.184545" lon="-8.41744">
        <ele>24.933906</ele>
        <time>2024-06-22T09:46:55.000Z</time>
      </trkpt>
      <trkpt lat="40.184553" lon="-8.417449">
        <ele>24.934085</ele>
        <time>2024-06-22T09:46:55.000Z</time>
      </trkpt>
      <trkpt lat="40.184605" lon="-8.417544">
        <ele>24.958054</ele>
        <time>2024-06-22T09:46:56.000Z</time>
      </trkpt>
      <trkpt lat="40.185069" lon="-8.418298">
        <ele>25.131974</ele>
        <time>2024-06-22T09:47:04.000Z</time>
      </trkpt>
      <trkpt lat="40.185221" lon="-8.418513">
        <ele>25.185657</ele>
        <time>2024-06-22T09:47:06.000Z</time>
      </trkpt>
      <trkpt lat="40.185703" lon="-8.419099">
        <ele>26.163204</ele>
        <time>2024-06-22T09:47:13.000Z</time>
      </trkpt>
      <trkpt lat="40.18627" lon="-8.419665">
        <ele>27.322309</ele>
        <time>2024-06-22T09:47:21.000Z</time>
      </trkpt>
      <trkpt lat="40.187039" lon="-8.420243">
        <ele>28.944451</ele>
        <time>2024-06-22T09:47:31.000Z</time>
      </trkpt>
      <trkpt lat="40.187407" lon="-8.420432">
        <ele>29.801258</ele>
        <time>2024-06-22T09:47:35.000Z</time>
      </trkpt>
      <trkpt lat="40.187675" lon="-8.420542">
        <ele>30.377821</ele>
        <time>2024-06-22T09:47:38.000Z</time>
      </trkpt>
      <trkpt lat="40.188123" lon="-8.420688">
        <ele>31.345121</ele>
        <time>2024-06-22T09:47:43.000Z</time>
      </trkpt>
      <trkpt lat="40.188558" lon="-8.420814">
        <ele>32.105153</ele>
        <time>2024-06-22T09:47:48.000Z</time>
      </trkpt>
      <trkpt lat="40.189088" lon="-8.420852">
        <ele>32.703677</ele>
        <time>2024-06-22T09:47:54.000Z</time>
      </trkpt>
      <trkpt lat="40.189372" lon="-8.420852">
        <ele>33.024375</ele>
        <time>2024-06-22T09:47:57.000Z</time>
      </trkpt>
      <trkpt lat="40.189693" lon="-8.420845">
        <ele>33.407815</ele>
        <time>2024-06-22T09:48:01.000Z</time>
      </trkpt>
      <trkpt lat="40.190367" lon="-8.420745">
        <ele>33.579527</ele>
        <time>2024-06-22T09:48:09.000Z</time>
      </trkpt>
      <trkpt lat="40.190514" lon="-8.420712">
        <ele>33.321578</ele>
        <time>2024-06-22T09:48:11.000Z</time>
      </trkpt>
      <trkpt lat="40.190793" lon="-8.420684">
        <ele>32.85369</ele>
        <time>2024-06-22T09:48:14.000Z</time>
      </trkpt>
      <trkpt lat="40.191779" lon="-8.42052">
        <ele>31.095288</ele>
        <time>2024-06-22T09:48:25.000Z</time>
      </trkpt>
      <trkpt lat="40.192065" lon="-8.420542">
        <ele>30.46413</ele>
        <time>2024-06-22T09:48:28.000Z</time>
      </trkpt>
      <trkpt lat="40.19249" lon="-8.420694">
        <ele>29.240234</ele>
        <time>2024-06-22T09:48:33.000Z</time>
      </trkpt>
      <trkpt lat="40.192727" lon="-8.420827">
        <ele>28.534357</ele>
        <time>2024-06-22T09:48:36.000Z</time>
      </trkpt>
      <trkpt lat="40.192827" lon="-8.420932">
        <ele>28.150541</ele>
        <time>2024-06-22T09:48:37.000Z</time>
      </trkpt>
      <trkpt lat="40.192958" lon="-8.421196">
        <ele>27.510108</ele>
        <time>2024-06-22T09:48:40.000Z</time>
      </trkpt>
      <trkpt lat="40.19301" lon="-8.421402">
        <ele>27.033085</ele>
        <time>2024-06-22T09:48:42.000Z</time>
      </trkpt>
      <trkpt lat="40.193" lon="-8.421576">
        <ele>26.670047</ele>
        <time>2024-06-22T09:48:43.000Z</time>
      </trkpt>
      <trkpt lat="40.192968" lon="-8.421846">
        <ele>26.082016</ele>
        <time>2024-06-22T09:48:45.000Z</time>
      </trkpt>
      <trkpt lat="40.192834" lon="-8.422175">
        <ele>25.426413</ele>
        <time>2024-06-22T09:48:48.000Z</time>
      </trkpt>
      <trkpt lat="40.192831" lon="-8.422284">
        <ele>25.274636</ele>
        <time>2024-06-22T09:48:49.000Z</time>
      </trkpt>
      <trkpt lat="40.192817" lon="-8.422908">
        <ele>24.368234</ele>
        <time>2024-06-22T09:48:54.000Z</time>
      </trkpt>
      <trkpt lat="40.192822" lon="-8.42291">
        <ele>24.368239</ele>
        <time>2024-06-22T09:48:54.000Z</time>
      </trkpt>
      <trkpt lat="40.192816" lon="-8.422893">
        <ele>24.368237</ele>
        <time>2024-06-22T09:48:54.000Z</time>
      </trkpt>
      <trkpt lat="40.192791" lon="-8.423985">
        <ele>22.782511</ele>
        <time>2024-06-22T09:49:03.000Z</time>
      </trkpt>
      <trkpt lat="40.192763" lon="-8.425066">
        <ele>23.274776</ele>
        <time>2024-06-22T09:49:12.000Z</time>
      </trkpt>
      <trkpt lat="40.192724" lon="-8.426153">
        <ele>24.610621</ele>
        <time>2024-06-22T09:49:21.000Z</time>
      </trkpt>
      <trkpt lat="40.192699" lon="-8.427246">
        <ele>27.205315</ele>
        <time>2024-06-22T09:49:30.000Z</time>
      </trkpt>
      <trkpt lat="40.192578" lon="-8.428057">
        <ele>29.984288</ele>
        <time>2024-06-22T09:49:37.000Z</time>
      </trkpt>
      <trkpt lat="40.192324" lon="-8.428689">
        <ele>32.346761</ele>
        <time>2024-06-22T09:49:43.000Z</time>
      </trkpt>
      <trkpt lat="40.191844" lon="-8.429597">
        <ele>35.368567</ele>
        <time>2024-06-22T09:49:52.000Z</time>
      </trkpt>
      <trkpt lat="40.191711" lon="-8.43022">
        <ele>36.995142</ele>
        <time>2024-06-22T09:49:57.000Z</time>
      </trkpt>
      <trkpt lat="40.191745" lon="-8.430729">
        <ele>38.301797</ele>
        <time>2024-06-22T09:50:01.000Z</time>
      </trkpt>
      <trkpt lat="40.191852" lon="-8.430938">
        <ele>38.939497</ele>
        <time>2024-06-22T09:50:03.000Z</time>
      </trkpt>
      <trkpt lat="40.191925" lon="-8.431136">
        <ele>38.842895</ele>
        <time>2024-06-22T09:50:05.000Z</time>
      </trkpt>
      <trkpt lat="40.192035" lon="-8.431352">
        <ele>38.393518</ele>
        <time>2024-06-22T09:50:07.000Z</time>
      </trkpt>
      <trkpt lat="40.192157" lon="-8.431495">
        <ele>38.01332</ele>
        <time>2024-06-22T09:50:09.000Z</time>
      </trkpt>
      <trkpt lat="40.192356" lon="-8.431659">
        <ele>37.469687</ele>
        <time>2024-06-22T09:50:12.000Z</time>
      </trkpt>
      <trkpt lat="40.192664" lon="-8.431892">
        <ele>36.660769</ele>
        <time>2024-06-22T09:50:16.000Z</time>
      </trkpt>
      <trkpt lat="40.192945" lon="-8.432028">
        <ele>35.960413</ele>
        <time>2024-06-22T09:50:19.000Z</time>
      </trkpt>
      <trkpt lat="40.193191" lon="-8.432121">
        <ele>35.380399</ele>
        <time>2024-06-22T09:50:22.000Z</time>
      </trkpt>
      <trkpt lat="40.193708" lon="-8.432196">
        <ele>33.639568</ele>
        <time>2024-06-22T09:50:28.000Z</time>
      </trkpt>
      <trkpt lat="40.194426" lon="-8.432228">
        <ele>30.779091</ele>
        <time>2024-06-22T09:50:36.000Z</time>
      </trkpt>
      <trkpt lat="40.194749" lon="-8.432107">
        <ele>29.480774</ele>
        <time>2024-06-22T09:50:40.000Z</time>
      </trkpt>
      <trkpt lat="40.19512" lon="-8.4319">
        <ele>27.932683</ele>
        <time>2024-06-22T09:50:44.000Z</time>
      </trkpt>
      <trkpt lat="40.195521" lon="-8.431612">
        <ele>26.741738</ele>
        <time>2024-06-22T09:50:49.000Z</time>
      </trkpt>
      <trkpt lat="40.195882" lon="-8.431253">
        <ele>25.604359</ele>
        <time>2024-06-22T09:50:54.000Z</time>
      </trkpt>
      <trkpt lat="40.195872" lon="-8.430981">
        <ele>25.071511</ele>
        <time>2024-06-22T09:50:56.000Z</time>
      </trkpt>
      <trkpt lat="40.195952" lon="-8.430769">
        <ele>24.603612</ele>
        <time>2024-06-22T09:50:58.000Z</time>
      </trkpt>
      <trkpt lat="40.196026" lon="-8.430677">
        <ele>24.36886</ele>
        <time>2024-06-22T09:50:59.000Z</time>
      </trkpt>
      <trkpt lat="40.196162" lon="-8.430591">
        <ele>23.972738</ele>
        <time>2024-06-22T09:51:01.000Z</time>
      </trkpt>
      <trkpt lat="40.196323" lon="-8.430564">
        <ele>23.546403</ele>
        <time>2024-06-22T09:51:03.000Z</time>
      </trkpt>
      <trkpt lat="40.19649" lon="-8.430623">
        <ele>23.261413</ele>
        <time>2024-06-22T09:51:05.000Z</time>
      </trkpt>
      <trkpt lat="40.196559" lon="-8.430693">
        <ele>23.178505</ele>
        <time>2024-06-22T09:51:06.000Z</time>
      </trkpt>
      <trkpt lat="40.196799" lon="-8.430667">
        <ele>22.936195</ele>
        <time>2024-06-22T09:51:09.000Z</time>
      </trkpt>
      <trkpt lat="40.196982" lon="-8.430622">
        <ele>22.745983</ele>
        <time>2024-06-22T09:51:11.000Z</time>
      </trkpt>
      <trkpt lat="40.197981" lon="-8.429914">
        <ele>21.63186</ele>
        <time>2024-06-22T09:51:24.000Z</time>
      </trkpt>
      <trkpt lat="40.198291" lon="-8.429739">
        <ele>21.568794</ele>
        <time>2024-06-22T09:51:28.000Z</time>
      </trkpt>
      <trkpt lat="40.198689" lon="-8.429608">
        <ele>21.543865</ele>
        <time>2024-06-22T09:51:33.000Z</time>
      </trkpt>
      <trkpt lat="40.199111" lon="-8.429623">
        <ele>21.519092</ele>
        <time>2024-06-22T09:51:38.000Z</time>
      </trkpt>
      <trkpt lat="40.199526" lon="-8.429764">
        <ele>21.492809</ele>
        <time>2024-06-22T09:51:43.000Z</time>
      </trkpt>
      <trkpt lat="40.200154" lon="-8.430093">
        <ele>21.306843</ele>
        <time>2024-06-22T09:51:51.000Z</time>
      </trkpt>
      <trkpt lat="40.200342" lon="-8.430204">
        <ele>21.224904</ele>
        <time>2024-06-22T09:51:53.000Z</time>
      </trkpt>
      <trkpt lat="40.200519" lon="-8.430299">
        <ele>21.14554</ele>
        <time>2024-06-22T09:51:55.000Z</time>
      </trkpt>
      <trkpt lat="40.2007" lon="-8.430391">
        <ele>21.070029</ele>
        <time>2024-06-22T09:51:57.000Z</time>
      </trkpt>
      <trkpt lat="40.201212" lon="-8.430655">
        <ele>20.847249</ele>
        <time>2024-06-22T09:52:03.000Z</time>
      </trkpt>
      <trkpt lat="40.201384" lon="-8.430751">
        <ele>20.774601</ele>
        <time>2024-06-22T09:52:05.000Z</time>
      </trkpt>
      <trkpt lat="40.201415" lon="-8.430766">
        <ele>20.753333</ele>
        <time>2024-06-22T09:52:05.000Z</time>
      </trkpt>
      <trkpt lat="40.202127" lon="-8.431132">
        <ele>20.44061</ele>
        <time>2024-06-22T09:52:14.000Z</time>
      </trkpt>
      <trkpt lat="40.202959" lon="-8.431574">
        <ele>20.063786</ele>
        <time>2024-06-22T09:52:24.000Z</time>
      </trkpt>
      <trkpt lat="40.203631" lon="-8.431914">
        <ele>20.03069</ele>
        <time>2024-06-22T09:52:32.000Z</time>
      </trkpt>
      <trkpt lat="40.203777" lon="-8.431985">
        <ele>20.038541</ele>
        <time>2024-06-22T09:52:34.000Z</time>
      </trkpt>
      <trkpt lat="40.204024" lon="-8.432019">
        <ele>20.052936</ele>
        <time>2024-06-22T09:52:37.000Z</time>
      </trkpt>
      <trkpt lat="40.20423" lon="-8.431979">
        <ele>20.063634</ele>
        <time>2024-06-22T09:52:39.000Z</time>
      </trkpt>
      <trkpt lat="40.204557" lon="-8.431866">
        <ele>20.082372</ele>
        <time>2024-06-22T09:52:43.000Z</time>
      </trkpt>
      <trkpt lat="40.204569" lon="-8.431858">
        <ele>20.08345</ele>
        <time>2024-06-22T09:52:43.000Z</time>
      </trkpt>
      <trkpt lat="40.204862" lon="-8.431572">
        <ele>20.088817</ele>
        <time>2024-06-22T09:52:47.000Z</time>
      </trkpt>
      <trkpt lat="40.204916" lon="-8.431542">
        <ele>20.084594</ele>
        <time>2024-06-22T09:52:48.000Z</time>
      </trkpt>
      <trkpt lat="40.204918" lon="-8.431543">
        <ele>20.084588</ele>
        <time>2024-06-22T09:52:48.000Z</time>
      </trkpt>
      <trkpt lat="40.204908" lon="-8.431541">
        <ele>20.084581</ele>
        <time>2024-06-22T09:52:48.000Z</time>
      </trkpt>
      <trkpt lat="40.205253" lon="-8.431611">
        <ele>20.054519</ele>
        <time>2024-06-22T09:52:52.000Z</time>
      </trkpt>
      <trkpt lat="40.205441" lon="-8.431856">
        <ele>20.031283</ele>
        <time>2024-06-22T09:52:55.000Z</time>
      </trkpt>
      <trkpt lat="40.205788" lon="-8.432274">
        <ele>19.990076</ele>
        <time>2024-06-22T09:53:00.000Z</time>
      </trkpt>
      <trkpt lat="40.205838" lon="-8.432356">
        <ele>19.982957</ele>
        <time>2024-06-22T09:53:01.000Z</time>
      </trkpt>
      <trkpt lat="40.207599" lon="-8.43452">
        <ele>19.653217</ele>
        <time>2024-06-22T09:53:28.000Z</time>
      </trkpt>
      <trkpt lat="40.207712" lon="-8.434649">
        <ele>19.616652</ele>
        <time>2024-06-22T09:53:30.000Z</time>
      </trkpt>
      <trkpt lat="40.208264" lon="-8.435285">
        <ele>19.448249</ele>
        <time>2024-06-22T09:53:38.000Z</time>
      </trkpt>
      <trkpt lat="40.208349" lon="-8.435352">
        <ele>19.42239</ele>
        <time>2024-06-22T09:53:39.000Z</time>
      </trkpt>
      <trkpt lat="40.208475" lon="-8.435553">
        <ele>19.378664</ele>
        <time>2024-06-22T09:53:41.000Z</time>
      </trkpt>
      <trkpt lat="40.209285" lon="-8.436334">
        <ele>19.215703</ele>
        <time>2024-06-22T09:53:52.000Z</time>
      </trkpt>
      <trkpt lat="40.209864" lon="-8.436838">
        <ele>19.149507</ele>
        <time>2024-06-22T09:54:00.000Z</time>
      </trkpt>
      <trkpt lat="40.211032" lon="-8.437809">
        <ele>19.339703</ele>
        <time>2024-06-22T09:54:15.000Z</time>
      </trkpt>
      <trkpt lat="40.211168" lon="-8.437976">
        <ele>19.401236</ele>
        <time>2024-06-22T09:54:17.000Z</time>
      </trkpt>
      <trkpt lat="40.211275" lon="-8.43818">
        <ele>19.45804</ele>
        <time>2024-06-22T09:54:19.000Z</time>
      </trkpt>
      <trkpt lat="40.211311" lon="-8.438386">
        <ele>19.505929</ele>
        <time>2024-06-22T09:54:21.000Z</time>
      </trkpt>
      <trkpt lat="40.211279" lon="-8.438862">
        <ele>19.620532</ele>
        <time>2024-06-22T09:54:25.000Z</time>
      </trkpt>
      <trkpt lat="40.211299" lon="-8.439091">
        <ele>19.676308</ele>
        <time>2024-06-22T09:54:27.000Z</time>
      </trkpt>
      <trkpt lat="40.211409" lon="-8.439378">
        <ele>19.758112</ele>
        <time>2024-06-22T09:54:30.000Z</time>
      </trkpt>
      <trkpt lat="40.211602" lon="-8.439488">
        <ele>19.82625</ele>
        <time>2024-06-22T09:54:32.000Z</time>
      </trkpt>
      <trkpt lat="40.211718" lon="-8.439501">
        <ele>19.8666</ele>
        <time>2024-06-22T09:54:33.000Z</time>
      </trkpt>
      <trkpt lat="40.211964" lon="-8.439706">
        <ele>19.965464</ele>
        <time>2024-06-22T09:54:36.000Z</time>
      </trkpt>
      <trkpt lat="40.212164" lon="-8.440003">
        <ele>20.065973</ele>
        <time>2024-06-22T09:54:39.000Z</time>
      </trkpt>
      <trkpt lat="40.212602" lon="-8.440435">
        <ele>20.249638</ele>
        <time>2024-06-22T09:54:45.000Z</time>
      </trkpt>
      <trkpt lat="40.213237" lon="-8.440866">
        <ele>20.058952</ele>
        <time>2024-06-22T09:54:53.000Z</time>
      </trkpt>
      <trkpt lat="40.213643" lon="-8.441039">
        <ele>19.939064</ele>
        <time>2024-06-22T09:54:58.000Z</time>
      </trkpt>
      <trkpt lat="40.214646" lon="-8.441255">
        <ele>19.431738</ele>
        <time>2024-06-22T09:55:09.000Z</time>
      </trkpt>
      <trkpt lat="40.214763" lon="-8.441267">
        <ele>19.331129</ele>
        <time>2024-06-22T09:55:10.000Z</time>
      </trkpt>
      <trkpt lat="40.214781" lon="-8.441228">
        <ele>19.302047</ele>
        <time>2024-06-22T09:55:10.000Z</time>
      </trkpt>
      <trkpt lat="40.214818" lon="-8.441224">
        <ele>19.26454</ele>
        <time>2024-06-22T09:55:10.000Z</time>
      </trkpt>
      <trkpt lat="40.21483" lon="-8.441271">
        <ele>19.22661</ele>
        <time>2024-06-22T09:55:10.000Z</time>
      </trkpt>
      <trkpt lat="40.215405" lon="-8.441578">
        <ele>18.657619</ele>
        <time>2024-06-22T09:55:17.000Z</time>
      </trkpt>
      <trkpt lat="40.215761" lon="-8.441838">
        <ele>18.283142</ele>
        <time>2024-06-22T09:55:22.000Z</time>
      </trkpt>
      <trkpt lat="40.2166" lon="-8.442591">
        <ele>17.544946</ele>
        <time>2024-06-22T09:55:33.000Z</time>
      </trkpt>
      <trkpt lat="40.217231" lon="-8.443312">
        <ele>16.965491</ele>
        <time>2024-06-22T09:55:42.000Z</time>
      </trkpt>
      <trkpt lat="40.21746" lon="-8.443715">
        <ele>16.797453</ele>
        <time>2024-06-22T09:55:46.000Z</time>
      </trkpt>
      <trkpt lat="40.217796" lon="-8.444571">
        <ele>16.595673</ele>
        <time>2024-06-22T09:55:54.000Z</time>
      </trkpt>
      <trkpt lat="40.218072" lon="-8.445418">
        <ele>16.403921</ele>
        <time>2024-06-22T09:56:02.000Z</time>
      </trkpt>
      <trkpt lat="40.218502" lon="-8.447821">
        <ele>15.936411</ele>
        <time>2024-06-22T09:56:23.000Z</time>
      </trkpt>
      <trkpt lat="40.218871" lon="-8.450034">
        <ele>15.703947</ele>
        <time>2024-06-22T09:56:42.000Z</time>
      </trkpt>
      <trkpt lat="40.219204" lon="-8.452473">
        <ele>15.499558</ele>
        <time>2024-06-22T09:57:03.000Z</time>
      </trkpt>
      <trkpt lat="40.219341" lon="-8.453674">
        <ele>15.414578</ele>
        <time>2024-06-22T09:57:13.000Z</time>
      </trkpt>
      <trkpt lat="40.219462" lon="-8.455329">
        <ele>15.287284</ele>
        <time>2024-06-22T09:57:27.000Z</time>
      </trkpt>
      <trkpt lat="40.21949" lon="-8.455711">
        <ele>15.253098</ele>
        <time>2024-06-22T09:57:30.000Z</time>
      </trkpt>
      <trkpt lat="40.219551" lon="-8.458956">
        <ele>14.843322</ele>
        <time>2024-06-22T09:57:58.000Z</time>
      </trkpt>
      <trkpt lat="40.219488" lon="-8.460225">
        <ele>14.570992</ele>
        <time>2024-06-22T09:58:09.000Z</time>
      </trkpt>
      <trkpt lat="40.219274" lon="-8.462339">
        <ele>14.04037</ele>
        <time>2024-06-22T09:58:27.000Z</time>
      </trkpt>
      <trkpt lat="40.21918" lon="-8.463166">
        <ele>13.868745</ele>
        <time>2024-06-22T09:58:34.000Z</time>
      </trkpt>
      <trkpt lat="40.218513" lon="-8.467355">
        <ele>13.208651</ele>
        <time>2024-06-22T09:59:10.000Z</time>
      </trkpt>
      <trkpt lat="40.217682" lon="-8.472051">
        <ele>12.653972</ele>
        <time>2024-06-22T09:59:51.000Z</time>
      </trkpt>
      <trkpt lat="40.216794" lon="-8.477274">
        <ele>12.262062</ele>
        <time>2024-06-22T10:00:36.000Z</time>
      </trkpt>
      <trkpt lat="40.216118" lon="-8.481098">
        <ele>11.942738</ele>
        <time>2024-06-22T10:01:09.000Z</time>
      </trkpt>
      <trkpt lat="40.215759" lon="-8.483406">
        <ele>12.063274</ele>
        <time>2024-06-22T10:01:29.000Z</time>
      </trkpt>
      <trkpt lat="40.21565" lon="-8.483882">
        <ele>12.103986</ele>
        <time>2024-06-22T10:01:33.000Z</time>
      </trkpt>
      <trkpt lat="40.215366" lon="-8.483815">
        <ele>12.133664</ele>
        <time>2024-06-22T10:01:36.000Z</time>
      </trkpt>
      <trkpt lat="40.215231" lon="-8.48357">
        <ele>12.158579</ele>
        <time>2024-06-22T10:01:39.000Z</time>
      </trkpt>
      <trkpt lat="40.21519" lon="-8.483303">
        <ele>12.181211</ele>
        <time>2024-06-22T10:01:41.000Z</time>
      </trkpt>
      <trkpt lat="40.215594" lon="-8.483446">
        <ele>12.146832</ele>
        <time>2024-06-22T10:01:46.000Z</time>
      </trkpt>
      <trkpt lat="40.216299" lon="-8.483643">
        <ele>12.063565</ele>
        <time>2024-06-22T10:01:54.000Z</time>
      </trkpt>
      <trkpt lat="40.216352" lon="-8.483673">
        <ele>12.056493</ele>
        <time>2024-06-22T10:01:55.000Z</time>
      </trkpt>
      <trkpt lat="40.216386" lon="-8.483669">
        <ele>12.05342</ele>
        <time>2024-06-22T10:01:55.000Z</time>
      </trkpt>
      <trkpt lat="40.216385" lon="-8.48367">
        <ele>12.05282</ele>
        <time>2024-06-22T10:01:55.000Z</time>
      </trkpt>
      <trkpt lat="40.217405" lon="-8.48396">
        <ele>11.923628</ele>
        <time>2024-06-22T10:02:07.000Z</time>
      </trkpt>
      <trkpt lat="40.218147" lon="-8.484176">
        <ele>11.817789</ele>
        <time>2024-06-22T10:02:15.000Z</time>
      </trkpt>
      <trkpt lat="40.218304" lon="-8.484268">
        <ele>11.79534</ele>
        <time>2024-06-22T10:02:17.000Z</time>
      </trkpt>
      <trkpt lat="40.218258" lon="-8.484478">
        <ele>11.77276</ele>
        <time>2024-06-22T10:02:19.000Z</time>
      </trkpt>
      <trkpt lat="40.217202" lon="-8.48436">
        <ele>11.741173</ele>
        <time>2024-06-22T10:02:31.000Z</time>
      </trkpt>
      <trkpt lat="40.217251" lon="-8.484066">
        <ele>11.744064</ele>
        <time>2024-06-22T10:02:34.000Z</time>
      </trkpt>
      <trkpt lat="40.219187" lon="-8.472607">
        <ele>12.382743</ele>
        <time>2024-06-22T10:04:14.000Z</time>
      </trkpt>
      <trkpt lat="40.21969" lon="-8.469545">
        <ele>13.021554</ele>
        <time>2024-06-22T10:04:41.000Z</time>
      </trkpt>
      <trkpt lat="40.21976" lon="-8.469288">
        <ele>13.092211</ele>
        <time>2024-06-22T10:04:43.000Z</time>
      </trkpt>
      <trkpt lat="40.219857" lon="-8.469082">
        <ele>13.183466</ele>
        <time>2024-06-22T10:04:45.000Z</time>
      </trkpt>
      <trkpt lat="40.219996" lon="-8.468868">
        <ele>13.317284</ele>
        <time>2024-06-22T10:04:47.000Z</time>
      </trkpt>
      <trkpt lat="40.220643" lon="-8.468147">
        <ele>13.816834</ele>
        <time>2024-06-22T10:04:56.000Z</time>
      </trkpt>
      <trkpt lat="40.221128" lon="-8.467552">
        <ele>14.169528</ele>
        <time>2024-06-22T10:05:03.000Z</time>
      </trkpt>
      <trkpt lat="40.2226" lon="-8.466119">
        <ele>14.44886</ele>
        <time>2024-06-22T10:05:23.000Z</time>
      </trkpt>
      <trkpt lat="40.222785" lon="-8.465896">
        <ele>14.452235</ele>
        <time>2024-06-22T10:05:26.000Z</time>
      </trkpt>
      <trkpt lat="40.222968" lon="-8.465596">
        <ele>14.456144</ele>
        <time>2024-06-22T10:05:29.000Z</time>
      </trkpt>
      <trkpt lat="40.223093" lon="-8.465335">
        <ele>14.459239</ele>
        <time>2024-06-22T10:05:32.000Z</time>
      </trkpt>
      <trkpt lat="40.223191" lon="-8.464979">
        <ele>14.463155</ele>
        <time>2024-06-22T10:05:35.000Z</time>
      </trkpt>
      <trkpt lat="40.223229" lon="-8.464646">
        <ele>14.466526</ele>
        <time>2024-06-22T10:05:38.000Z</time>
      </trkpt>
      <trkpt lat="40.223342" lon="-8.462187">
        <ele>14.708419</ele>
        <time>2024-06-22T10:05:59.000Z</time>
      </trkpt>
      <trkpt lat="40.223555" lon="-8.45854">
        <ele>15.174682</ele>
        <time>2024-06-22T10:06:30.000Z</time>
      </trkpt>
      <trkpt lat="40.223815" lon="-8.456493">
        <ele>15.4006</ele>
        <time>2024-06-22T10:06:48.000Z</time>
      </trkpt>
      <trkpt lat="40.22381" lon="-8.456482">
        <ele>15.402862</ele>
        <time>2024-06-22T10:06:48.000Z</time>
      </trkpt>
      <trkpt lat="40.223816" lon="-8.456473">
        <ele>15.402982</ele>
        <time>2024-06-22T10:06:48.000Z</time>
      </trkpt>
      <trkpt lat="40.223819" lon="-8.456467">
        <ele>15.403195</ele>
        <time>2024-06-22T10:06:48.000Z</time>
      </trkpt>
      <trkpt lat="40.223879" lon="-8.45593">
        <ele>15.461637</ele>
        <time>2024-06-22T10:06:53.000Z</time>
      </trkpt>
      <trkpt lat="40.22411" lon="-8.454569">
        <ele>15.697504</ele>
        <time>2024-06-22T10:07:05.000Z</time>
      </trkpt>
      <trkpt lat="40.224108" lon="-8.454028">
        <ele>15.931223</ele>
        <time>2024-06-22T10:07:10.000Z</time>
      </trkpt>
      <trkpt lat="40.223959" lon="-8.452119">
        <ele>16.838021</ele>
        <time>2024-06-22T10:07:26.000Z</time>
      </trkpt>
      <trkpt lat="40.223823" lon="-8.450923">
        <ele>17.564038</ele>
        <time>2024-06-22T10:07:36.000Z</time>
      </trkpt>
      <trkpt lat="40.223561" lon="-8.450074">
        <ele>18.065514</ele>
        <time>2024-06-22T10:07:44.000Z</time>
      </trkpt>
      <trkpt lat="40.223039" lon="-8.448752">
        <ele>18.327037</ele>
        <time>2024-06-22T10:07:57.000Z</time>
      </trkpt>
      <trkpt lat="40.222785" lon="-8.447996">
        <ele>18.426762</ele>
        <time>2024-06-22T10:08:04.000Z</time>
      </trkpt>
      <trkpt lat="40.222746" lon="-8.447677">
        <ele>18.325098</ele>
        <time>2024-06-22T10:08:07.000Z</time>
      </trkpt>
      <trkpt lat="40.222813" lon="-8.447293">
        <ele>18.199815</ele>
        <time>2024-06-22T10:08:10.000Z</time>
      </trkpt>
      <trkpt lat="40.223225" lon="-8.445696">
        <ele>17.626239</ele>
        <time>2024-06-22T10:08:24.000Z</time>
      </trkpt>
      <trkpt lat="40.223271" lon="-8.445589">
        <ele>17.552619</ele>
        <time>2024-06-22T10:08:25.000Z</time>
      </trkpt>
      <trkpt lat="40.223664" lon="-8.444457">
        <ele>16.803822</ele>
        <time>2024-06-22T10:08:36.000Z</time>
      </trkpt>
      <trkpt lat="40.223828" lon="-8.443921">
        <ele>16.454306</ele>
        <time>2024-06-22T10:08:41.000Z</time>
      </trkpt>
      <trkpt lat="40.223872" lon="-8.443729">
        <ele>16.337211</ele>
        <time>2024-06-22T10:08:43.000Z</time>
      </trkpt>
      <trkpt lat="40.223889" lon="-8.443612">
        <ele>16.262698</ele>
        <time>2024-06-22T10:08:44.000Z</time>
      </trkpt>
      <trkpt lat="40.223879" lon="-8.44362">
        <ele>16.262109</ele>
        <time>2024-06-22T10:08:44.000Z</time>
      </trkpt>
      <trkpt lat="40.223889" lon="-8.443606">
        <ele>16.259647</ele>
        <time>2024-06-22T10:08:44.000Z</time>
      </trkpt>
      <trkpt lat="40.223935" lon="-8.443154">
        <ele>15.993984</ele>
        <time>2024-06-22T10:08:48.000Z</time>
      </trkpt>
      <trkpt lat="40.223928" lon="-8.442873">
        <ele>15.823213</ele>
        <time>2024-06-22T10:08:50.000Z</time>
      </trkpt>
      <trkpt lat="40.223865" lon="-8.442588">
        <ele>15.65335</ele>
        <time>2024-06-22T10:08:53.000Z</time>
      </trkpt>
      <trkpt lat="40.223835" lon="-8.442524">
        <ele>15.613934</ele>
        <time>2024-06-22T10:08:54.000Z</time>
      </trkpt>
      <trkpt lat="40.223841" lon="-8.442519">
        <ele>15.611622</ele>
        <time>2024-06-22T10:08:54.000Z</time>
      </trkpt>
      <trkpt lat="40.223832" lon="-8.442527">
        <ele>15.610653</ele>
        <time>2024-06-22T10:08:54.000Z</time>
      </trkpt>
      <trkpt lat="40.223845" lon="-8.442521">
        <ele>15.607866</ele>
        <time>2024-06-22T10:08:54.000Z</time>
      </trkpt>
      <trkpt lat="40.223822" lon="-8.442483">
        <ele>15.576344</ele>
        <time>2024-06-22T10:08:54.000Z</time>
      </trkpt>
      <trkpt lat="40.223612" lon="-8.442346">
        <ele>15.408319</ele>
        <time>2024-06-22T10:08:57.000Z</time>
      </trkpt>
      <trkpt lat="40.223348" lon="-8.442209">
        <ele>15.181384</ele>
        <time>2024-06-22T10:09:00.000Z</time>
      </trkpt>
      <trkpt lat="40.222987" lon="-8.442099">
        <ele>14.914858</ele>
        <time>2024-06-22T10:09:04.000Z</time>
      </trkpt>
      <trkpt lat="40.222398" lon="-8.441817">
        <ele>15.061486</ele>
        <time>2024-06-22T10:09:11.000Z</time>
      </trkpt>
      <trkpt lat="40.221949" lon="-8.441627">
        <ele>15.172473</ele>
        <time>2024-06-22T10:09:16.000Z</time>
      </trkpt>
      <trkpt lat="40.22053" lon="-8.441263">
        <ele>15.923379</ele>
        <time>2024-06-22T10:09:32.000Z</time>
      </trkpt>
      <trkpt lat="40.219264" lon="-8.440345">
        <ele>16.958391</ele>
        <time>2024-06-22T10:09:48.000Z</time>
      </trkpt>
      <trkpt lat="40.218892" lon="-8.440161">
        <ele>17.181249</ele>
        <time>2024-06-22T10:09:52.000Z</time>
      </trkpt>
      <trkpt lat="40.218033" lon="-8.439788">
        <ele>17.665182</ele>
        <time>2024-06-22T10:10:02.000Z</time>
      </trkpt>
      <trkpt lat="40.21742" lon="-8.439586">
        <ele>18.235747</ele>
        <time>2024-06-22T10:10:09.000Z</time>
      </trkpt>
      <trkpt lat="40.2173" lon="-8.439525">
        <ele>18.361931</ele>
        <time>2024-06-22T10:10:10.000Z</time>
      </trkpt>
      <trkpt lat="40.217299" lon="-8.439517">
        <ele>18.363991</ele>
        <time>2024-06-22T10:10:10.000Z</time>
      </trkpt>
      <trkpt lat="40.217287" lon="-8.439513">
        <ele>18.364948</ele>
        <time>2024-06-22T10:10:10.000Z</time>
      </trkpt>
      <trkpt lat="40.217285" lon="-8.439525">
        <ele>18.366993</ele>
        <time>2024-06-22T10:10:10.000Z</time>
      </trkpt>
      <trkpt lat="40.21711" lon="-8.439411">
        <ele>18.546446</ele>
        <time>2024-06-22T10:10:12.000Z</time>
      </trkpt>
      <trkpt lat="40.217056" lon="-8.43939">
        <ele>18.612263</ele>
        <time>2024-06-22T10:10:13.000Z</time>
      </trkpt>
      <trkpt lat="40.217049" lon="-8.439265">
        <ele>18.69767</ele>
        <time>2024-06-22T10:10:14.000Z</time>
      </trkpt>
      <trkpt lat="40.217071" lon="-8.439241">
        <ele>18.734769</ele>
        <time>2024-06-22T10:10:14.000Z</time>
      </trkpt>
      <trkpt lat="40.217141" lon="-8.439249">
        <ele>18.805706</ele>
        <time>2024-06-22T10:10:15.000Z</time>
      </trkpt>
      <trkpt lat="40.217176" lon="-8.439121">
        <ele>18.893554</ele>
        <time>2024-06-22T10:10:16.000Z</time>
      </trkpt>
      <trkpt lat="40.217206" lon="-8.43905">
        <ele>18.953377</ele>
        <time>2024-06-22T10:10:17.000Z</time>
      </trkpt>
      <trkpt lat="40.217247" lon="-8.438893">
        <ele>19.075107</ele>
        <time>2024-06-22T10:10:18.000Z</time>
      </trkpt>
      <trkpt lat="40.217292" lon="-8.438752">
        <ele>19.195066</ele>
        <time>2024-06-22T10:10:19.000Z</time>
      </trkpt>
      <trkpt lat="40.217334" lon="-8.438564">
        <ele>19.336856</ele>
        <time>2024-06-22T10:10:21.000Z</time>
      </trkpt>
      <trkpt lat="40.217447" lon="-8.438182">
        <ele>19.72123</ele>
        <time>2024-06-22T10:10:24.000Z</time>
      </trkpt>
      <trkpt lat="40.217543" lon="-8.43791">
        <ele>20.039315</ele>
        <time>2024-06-22T10:10:27.000Z</time>
      </trkpt>
      <trkpt lat="40.217471" lon="-8.43768">
        <ele>20.310219</ele>
        <time>2024-06-22T10:10:29.000Z</time>
      </trkpt>
      <trkpt lat="40.217426" lon="-8.437622">
        <ele>20.409917</ele>
        <time>2024-06-22T10:10:30.000Z</time>
      </trkpt>
      <trkpt lat="40.217089" lon="-8.437332">
        <ele>20.977849</ele>
        <time>2024-06-22T10:10:34.000Z</time>
      </trkpt>
      <trkpt lat="40.216928" lon="-8.437151">
        <ele>21.277115</ele>
        <time>2024-06-22T10:10:36.000Z</time>
      </trkpt>
      <trkpt lat="40.2164" lon="-8.436636">
        <ele>22.091383</ele>
        <time>2024-06-22T10:10:43.000Z</time>
      </trkpt>
      <trkpt lat="40.216332" lon="-8.43656">
        <ele>22.146992</ele>
        <time>2024-06-22T10:10:44.000Z</time>
      </trkpt>
      <trkpt lat="40.216255" lon="-8.436488">
        <ele>22.209032</ele>
        <time>2024-06-22T10:10:45.000Z</time>
      </trkpt>
      <trkpt lat="40.216133" lon="-8.436382">
        <ele>22.294464</ele>
        <time>2024-06-22T10:10:47.000Z</time>
      </trkpt>
      <trkpt lat="40.215975" lon="-8.436224">
        <ele>22.424415</ele>
        <time>2024-06-22T10:10:49.000Z</time>
      </trkpt>
      <trkpt lat="40.215613" lon="-8.435886">
        <ele>22.710835</ele>
        <time>2024-06-22T10:10:54.000Z</time>
      </trkpt>
      <trkpt lat="40.215519" lon="-8.435889">
        <ele>22.771677</ele>
        <time>2024-06-22T10:10:55.000Z</time>
      </trkpt>
      <trkpt lat="40.215458" lon="-8.435859">
        <ele>22.810631</ele>
        <time>2024-06-22T10:10:56.000Z</time>
      </trkpt>
      <trkpt lat="40.215412" lon="-8.435771">
        <ele>22.865584</ele>
        <time>2024-06-22T10:10:57.000Z</time>
      </trkpt>
      <trkpt lat="40.215418" lon="-8.435704">
        <ele>22.893572</ele>
        <time>2024-06-22T10:10:58.000Z</time>
      </trkpt>
      <trkpt lat="40.215285" lon="-8.435531">
        <ele>23.01238</ele>
        <time>2024-06-22T10:11:00.000Z</time>
      </trkpt>
      <trkpt lat="40.214269" lon="-8.434568">
        <ele>23.305633</ele>
        <time>2024-06-22T10:11:14.000Z</time>
      </trkpt>
      <trkpt lat="40.213848" lon="-8.434125">
        <ele>23.391871</ele>
        <time>2024-06-22T10:11:20.000Z</time>
      </trkpt>
      <trkpt lat="40.213575" lon="-8.433881">
        <ele>23.467582</ele>
        <time>2024-06-22T10:11:24.000Z</time>
      </trkpt>
      <trkpt lat="40.213493" lon="-8.433817">
        <ele>23.507251</ele>
        <time>2024-06-22T10:11:25.000Z</time>
      </trkpt>
      <trkpt lat="40.213449" lon="-8.433811">
        <ele>23.517193</ele>
        <time>2024-06-22T10:11:25.000Z</time>
      </trkpt>
      <trkpt lat="40.213044" lon="-8.433437">
        <ele>23.693194</ele>
        <time>2024-06-22T10:11:31.000Z</time>
      </trkpt>
      <trkpt lat="40.212999" lon="-8.433362">
        <ele>23.720049</ele>
        <time>2024-06-22T10:11:32.000Z</time>
      </trkpt>
      <trkpt lat="40.21288" lon="-8.43334">
        <ele>23.76381</ele>
        <time>2024-06-22T10:11:33.000Z</time>
      </trkpt>
      <trkpt lat="40.212665" lon="-8.43321">
        <ele>23.847105</ele>
        <time>2024-06-22T10:11:36.000Z</time>
      </trkpt>
      <trkpt lat="40.21252" lon="-8.433121">
        <ele>23.905055</ele>
        <time>2024-06-22T10:11:38.000Z</time>
      </trkpt>
      <trkpt lat="40.21142" lon="-8.432516">
        <ele>23.519128</ele>
        <time>2024-06-22T10:11:51.000Z</time>
      </trkpt>
      <trkpt lat="40.210881" lon="-8.432234">
        <ele>23.109982</ele>
        <time>2024-06-22T10:11:57.000Z</time>
      </trkpt>
      <trkpt lat="40.210811" lon="-8.432184">
        <ele>23.05213</ele>
        <time>2024-06-22T10:11:58.000Z</time>
      </trkpt>
      <trkpt lat="40.210491" lon="-8.432013">
        <ele>22.80609</ele>
        <time>2024-06-22T10:12:02.000Z</time>
      </trkpt>
      <trkpt lat="40.210294" lon="-8.431901">
        <ele>22.585467</ele>
        <time>2024-06-22T10:12:04.000Z</time>
      </trkpt>
      <trkpt lat="40.210045" lon="-8.431781">
        <ele>22.299553</ele>
        <time>2024-06-22T10:12:07.000Z</time>
      </trkpt>
      <trkpt lat="40.209795" lon="-8.431637">
        <ele>22.00502</ele>
        <time>2024-06-22T10:12:10.000Z</time>
      </trkpt>
      <trkpt lat="40.209665" lon="-8.431574">
        <ele>21.852527</ele>
        <time>2024-06-22T10:12:12.000Z</time>
      </trkpt>
      <trkpt lat="40.209575" lon="-8.431613">
        <ele>21.740328</ele>
        <time>2024-06-22T10:12:13.000Z</time>
      </trkpt>
      <trkpt lat="40.209518" lon="-8.431634">
        <ele>21.679869</ele>
        <time>2024-06-22T10:12:14.000Z</time>
      </trkpt>
      <trkpt lat="40.209352" lon="-8.43218">
        <ele>21.197052</ele>
        <time>2024-06-22T10:12:19.000Z</time>
      </trkpt>
      <trkpt lat="40.209279" lon="-8.432202">
        <ele>21.127638</ele>
        <time>2024-06-22T10:12:20.000Z</time>
      </trkpt>
      <trkpt lat="40.208917" lon="-8.431738">
        <ele>20.729815</ele>
        <time>2024-06-22T10:12:26.000Z</time>
      </trkpt>
      <trkpt lat="40.20883" lon="-8.431758">
        <ele>20.689828</ele>
        <time>2024-06-22T10:12:27.000Z</time>
      </trkpt>
      <trkpt lat="40.208738" lon="-8.431806">
        <ele>20.638018</ele>
        <time>2024-06-22T10:12:28.000Z</time>
      </trkpt>
      <trkpt lat="40.208676" lon="-8.431879">
        <ele>20.602593</ele>
        <time>2024-06-22T10:12:29.000Z</time>
      </trkpt>
      <trkpt lat="40.208617" lon="-8.431931">
        <ele>20.570255</ele>
        <time>2024-06-22T10:12:30.000Z</time>
      </trkpt>
      <trkpt lat="40.208499" lon="-8.432018">
        <ele>20.506548</ele>
        <time>2024-06-22T10:12:32.000Z</time>
      </trkpt>
      <trkpt lat="40.208389" lon="-8.432011">
        <ele>20.459221</ele>
        <time>2024-06-22T10:12:33.000Z</time>
      </trkpt>
      <trkpt lat="40.208162" lon="-8.431735">
        <ele>20.314854</ele>
        <time>2024-06-22T10:12:36.000Z</time>
      </trkpt>
      <trkpt lat="40.208019" lon="-8.431561">
        <ele>20.226107</ele>
        <time>2024-06-22T10:12:38.000Z</time>
      </trkpt>
      <trkpt lat="40.20787" lon="-8.431427">
        <ele>20.147708</ele>
        <time>2024-06-22T10:12:40.000Z</time>
      </trkpt>
      <trkpt lat="40.207767" lon="-8.431291">
        <ele>20.073979</ele>
        <time>2024-06-22T10:12:42.000Z</time>
      </trkpt>
      <trkpt lat="40.207681" lon="-8.431157">
        <ele>20.019068</ele>
        <time>2024-06-22T10:12:43.000Z</time>
      </trkpt>
      <trkpt lat="40.207436" lon="-8.430763">
        <ele>20.300699</ele>
        <time>2024-06-22T10:12:47.000Z</time>
      </trkpt>
      <trkpt lat="40.207373" lon="-8.430594">
        <ele>20.402774</ele>
        <time>2024-06-22T10:12:49.000Z</time>
      </trkpt>
      <trkpt lat="40.207368" lon="-8.430409">
        <ele>20.514062</ele>
        <time>2024-06-22T10:12:51.000Z</time>
      </trkpt>
      <trkpt lat="40.207342" lon="-8.430198">
        <ele>20.643576</ele>
        <time>2024-06-22T10:12:53.000Z</time>
      </trkpt>
      <trkpt lat="40.207237" lon="-8.429938">
        <ele>20.810311</ele>
        <time>2024-06-22T10:12:55.000Z</time>
      </trkpt>
      <trkpt lat="40.207128" lon="-8.429796">
        <ele>20.915113</ele>
        <time>2024-06-22T10:12:57.000Z</time>
      </trkpt>
      <trkpt lat="40.207005" lon="-8.429596">
        <ele>21.068223</ele>
        <time>2024-06-22T10:12:59.000Z</time>
      </trkpt>
      <trkpt lat="40.206868" lon="-8.429409">
        <ele>21.226</ele>
        <time>2024-06-22T10:13:01.000Z</time>
      </trkpt>
      <trkpt lat="40.206765" lon="-8.42925">
        <ele>21.340381</ele>
        <time>2024-06-22T10:13:03.000Z</time>
      </trkpt>
      <trkpt lat="40.206705" lon="-8.429159">
        <ele>21.411645</ele>
        <time>2024-06-22T10:13:04.000Z</time>
      </trkpt>
      <trkpt lat="40.206528" lon="-8.428927">
        <ele>21.590756</ele>
        <time>2024-06-22T10:13:07.000Z</time>
      </trkpt>
      <trkpt lat="40.205474" lon="-8.427461">
        <ele>22.635839</ele>
        <time>2024-06-22T10:13:24.000Z</time>
      </trkpt>
      <trkpt lat="40.204723" lon="-8.426394">
        <ele>22.436216</ele>
        <time>2024-06-22T10:13:36.000Z</time>
      </trkpt>
      <trkpt lat="40.20427" lon="-8.425776">
        <ele>22.313278</ele>
        <time>2024-06-22T10:13:43.000Z</time>
      </trkpt>
      <trkpt lat="40.204156" lon="-8.425654">
        <ele>22.17561</ele>
        <time>2024-06-22T10:13:45.000Z</time>
      </trkpt>
      <trkpt lat="40.204109" lon="-8.425646">
        <ele>22.145388</ele>
        <time>2024-06-22T10:13:46.000Z</time>
      </trkpt>
      <trkpt lat="40.204049" lon="-8.425616">
        <ele>22.080481</ele>
        <time>2024-06-22T10:13:47.000Z</time>
      </trkpt>
      <trkpt lat="40.203722" lon="-8.425233">
        <ele>21.676652</ele>
        <time>2024-06-22T10:13:52.000Z</time>
      </trkpt>
      <trkpt lat="40.203627" lon="-8.42516">
        <ele>21.573608</ele>
        <time>2024-06-22T10:13:53.000Z</time>
      </trkpt>
      <trkpt lat="40.203236" lon="-8.424919">
        <ele>21.18766</ele>
        <time>2024-06-22T10:13:58.000Z</time>
      </trkpt>
      <trkpt lat="40.202916" lon="-8.424741">
        <ele>20.85922</ele>
        <time>2024-06-22T10:14:02.000Z</time>
      </trkpt>
      <trkpt lat="40.201687" lon="-8.424273">
        <ele>20.590445</ele>
        <time>2024-06-22T10:14:16.000Z</time>
      </trkpt>
      <trkpt lat="40.200978" lon="-8.423909">
        <ele>20.553005</ele>
        <time>2024-06-22T10:14:24.000Z</time>
      </trkpt>
      <trkpt lat="40.199964" lon="-8.423312">
        <ele>21.212685</ele>
        <time>2024-06-22T10:14:36.000Z</time>
      </trkpt>
      <trkpt lat="40.199571" lon="-8.423015">
        <ele>21.47555</ele>
        <time>2024-06-22T10:14:41.000Z</time>
      </trkpt>
      <trkpt lat="40.199558" lon="-8.423007">
        <ele>21.479523</ele>
        <time>2024-06-22T10:14:41.000Z</time>
      </trkpt>
      <trkpt lat="40.199469" lon="-8.422942">
        <ele>21.548502</ele>
        <time>2024-06-22T10:14:42.000Z</time>
      </trkpt>
      <trkpt lat="40.199266" lon="-8.422767">
        <ele>21.736963</ele>
        <time>2024-06-22T10:14:45.000Z</time>
      </trkpt>
      <trkpt lat="40.199065" lon="-8.422556">
        <ele>21.965687</ele>
        <time>2024-06-22T10:14:48.000Z</time>
      </trkpt>
      <trkpt lat="40.198871" lon="-8.422252">
        <ele>22.236669</ele>
        <time>2024-06-22T10:14:51.000Z</time>
      </trkpt>
      <trkpt lat="40.198437" lon="-8.421692">
        <ele>22.796431</ele>
        <time>2024-06-22T10:14:58.000Z</time>
      </trkpt>
      <trkpt lat="40.198196" lon="-8.421443">
        <ele>23.073246</ele>
        <time>2024-06-22T10:15:01.000Z</time>
      </trkpt>
      <trkpt lat="40.197841" lon="-8.421238">
        <ele>23.60445</ele>
        <time>2024-06-22T10:15:05.000Z</time>
      </trkpt>
      <trkpt lat="40.197219" lon="-8.4211">
        <ele>24.7052</ele>
        <time>2024-06-22T10:15:12.000Z</time>
      </trkpt>
      <trkpt lat="40.197053" lon="-8.421033">
        <ele>24.990264</ele>
        <time>2024-06-22T10:15:14.000Z</time>
      </trkpt>
      <trkpt lat="40.196962" lon="-8.421042">
        <ele>25.151564</ele>
        <time>2024-06-22T10:15:15.000Z</time>
      </trkpt>
      <trkpt lat="40.196963" lon="-8.421029">
        <ele>25.155036</ele>
        <time>2024-06-22T10:15:15.000Z</time>
      </trkpt>
      <trkpt lat="40.196969" lon="-8.421043">
        <ele>25.162106</ele>
        <time>2024-06-22T10:15:15.000Z</time>
      </trkpt>
      <trkpt lat="40.196297" lon="-8.421005">
        <ele>26.301718</ele>
        <time>2024-06-22T10:15:22.000Z</time>
      </trkpt>
      <trkpt lat="40.195709" lon="-8.420967">
        <ele>27.305748</ele>
        <time>2024-06-22T10:15:29.000Z</time>
      </trkpt>
      <trkpt lat="40.195585" lon="-8.420981">
        <ele>27.502407</ele>
        <time>2024-06-22T10:15:30.000Z</time>
      </trkpt>
      <trkpt lat="40.194787" lon="-8.42094">
        <ele>28.811727</ele>
        <time>2024-06-22T10:15:39.000Z</time>
      </trkpt>
      <trkpt lat="40.194472" lon="-8.420923">
        <ele>29.320697</ele>
        <time>2024-06-22T10:15:43.000Z</time>
      </trkpt>
      <trkpt lat="40.193763" lon="-8.420877">
        <ele>29.596293</ele>
        <time>2024-06-22T10:15:51.000Z</time>
      </trkpt>
      <trkpt lat="40.193509" lon="-8.420734">
        <ele>29.711126</ele>
        <time>2024-06-22T10:15:54.000Z</time>
      </trkpt>
      <trkpt lat="40.193212" lon="-8.42046">
        <ele>29.850932</ele>
        <time>2024-06-22T10:15:58.000Z</time>
      </trkpt>
      <trkpt lat="40.193067" lon="-8.42039">
        <ele>29.908944</ele>
        <time>2024-06-22T10:16:00.000Z</time>
      </trkpt>
      <trkpt lat="40.192994" lon="-8.420378">
        <ele>29.939833</ele>
        <time>2024-06-22T10:16:01.000Z</time>
      </trkpt>
      <trkpt lat="40.192916" lon="-8.420435">
        <ele>29.977182</ele>
        <time>2024-06-22T10:16:02.000Z</time>
      </trkpt>
      <trkpt lat="40.192817" lon="-8.420448">
        <ele>30.014873</ele>
        <time>2024-06-22T10:16:03.000Z</time>
      </trkpt>
      <trkpt lat="40.192733" lon="-8.42041">
        <ele>30.125885</ele>
        <time>2024-06-22T10:16:04.000Z</time>
      </trkpt>
      <trkpt lat="40.192084" lon="-8.420491">
        <ele>31.03532</ele>
        <time>2024-06-22T10:16:11.000Z</time>
      </trkpt>
      <trkpt lat="40.191209" lon="-8.420631">
        <ele>32.256257</ele>
        <time>2024-06-22T10:16:21.000Z</time>
      </trkpt>
      <trkpt lat="40.19122" lon="-8.420623">
        <ele>32.259268</ele>
        <time>2024-06-22T10:16:21.000Z</time>
      </trkpt>
      <trkpt lat="40.191206" lon="-8.420624">
        <ele>32.259267</ele>
        <time>2024-06-22T10:16:21.000Z</time>
      </trkpt>
      <trkpt lat="40.191206" lon="-8.420637">
        <ele>32.259262</ele>
        <time>2024-06-22T10:16:21.000Z</time>
      </trkpt>
      <trkpt lat="40.19038" lon="-8.420818">
        <ele>32.566382</ele>
        <time>2024-06-22T10:16:30.000Z</time>
      </trkpt>
      <trkpt lat="40.189708" lon="-8.420931">
        <ele>32.587655</ele>
        <time>2024-06-22T10:16:38.000Z</time>
      </trkpt>
      <trkpt lat="40.189089" lon="-8.420953">
        <ele>32.313518</ele>
        <time>2024-06-22T10:16:45.000Z</time>
      </trkpt>
      <trkpt lat="40.188556" lon="-8.420884">
        <ele>31.268531</ele>
        <time>2024-06-22T10:16:51.000Z</time>
      </trkpt>
      <trkpt lat="40.188077" lon="-8.420796">
        <ele>30.344001</ele>
        <time>2024-06-22T10:16:56.000Z</time>
      </trkpt>
      <trkpt lat="40.187925" lon="-8.42074">
        <ele>30.034999</ele>
        <time>2024-06-22T10:16:58.000Z</time>
      </trkpt>
      <trkpt lat="40.187659" lon="-8.420656">
        <ele>29.489022</ele>
        <time>2024-06-22T10:17:01.000Z</time>
      </trkpt>
      <trkpt lat="40.187399" lon="-8.420527">
        <ele>28.944993</ele>
        <time>2024-06-22T10:17:04.000Z</time>
      </trkpt>
      <trkpt lat="40.187039" lon="-8.420353">
        <ele>28.195594</ele>
        <time>2024-06-22T10:17:08.000Z</time>
      </trkpt>
      <trkpt lat="40.186573" lon="-8.420042">
        <ele>27.158467</ele>
        <time>2024-06-22T10:17:14.000Z</time>
      </trkpt>
      <trkpt lat="40.186106" lon="-8.419652">
        <ele>26.038689</ele>
        <time>2024-06-22T10:17:20.000Z</time>
      </trkpt>
      <trkpt lat="40.185696" lon="-8.419238">
        <ele>25.315869</ele>
        <time>2024-06-22T10:17:26.000Z</time>
      </trkpt>
      <trkpt lat="40.185171" lon="-8.418582">
        <ele>24.761073</ele>
        <time>2024-06-22T10:17:34.000Z</time>
      </trkpt>
      <trkpt lat="40.185026" lon="-8.418352">
        <ele>24.596414</ele>
        <time>2024-06-22T10:17:37.000Z</time>
      </trkpt>
      <trkpt lat="40.184906" lon="-8.418167">
        <ele>24.448569</ele>
        <time>2024-06-22T10:17:39.000Z</time>
      </trkpt>
      <trkpt lat="40.184899" lon="-8.418169">
        <ele>24.446246</ele>
        <time>2024-06-22T10:17:39.000Z</time>
      </trkpt>
      <trkpt lat="40.184909" lon="-8.418153">
        <ele>24.444841</ele>
        <time>2024-06-22T10:17:39.000Z</time>
      </trkpt>
      <trkpt lat="40.184897" lon="-8.418151">
        <ele>24.444274</ele>
        <time>2024-06-22T10:17:39.000Z</time>
      </trkpt>
      <trkpt lat="40.184724" lon="-8.41788">
        <ele>24.237097</ele>
        <time>2024-06-22T10:17:42.000Z</time>
      </trkpt>
      <trkpt lat="40.184298" lon="-8.417119">
        <ele>24.27534</ele>
        <time>2024-06-22T10:17:50.000Z</time>
      </trkpt>
      <trkpt lat="40.184011" lon="-8.416511">
        <ele>24.401056</ele>
        <time>2024-06-22T10:17:56.000Z</time>
      </trkpt>
      <trkpt lat="40.183728" lon="-8.41577">
        <ele>24.54555</ele>
        <time>2024-06-22T10:18:03.000Z</time>
      </trkpt>
      <trkpt lat="40.183322" lon="-8.414526">
        <ele>24.572906</ele>
        <time>2024-06-22T10:18:14.000Z</time>
      </trkpt>
      <trkpt lat="40.183223" lon="-8.414115">
        <ele>24.580219</ele>
        <time>2024-06-22T10:18:18.000Z</time>
      </trkpt>
      <trkpt lat="40.183129" lon="-8.413672">
        <ele>24.587638</ele>
        <time>2024-06-22T10:18:22.000Z</time>
      </trkpt>
      <trkpt lat="40.182834" lon="-8.412231">
        <ele>24.601412</ele>
        <time>2024-06-22T10:18:35.000Z</time>
      </trkpt>
      <trkpt lat="40.182698" lon="-8.411319">
        <ele>24.609231</ele>
        <time>2024-06-22T10:18:43.000Z</time>
      </trkpt>
      <trkpt lat="40.182609" lon="-8.410558">
        <ele>24.607072</ele>
        <time>2024-06-22T10:18:50.000Z</time>
      </trkpt>
      <trkpt lat="40.182526" lon="-8.409396">
        <ele>24.602462</ele>
        <time>2024-06-22T10:19:00.000Z</time>
      </trkpt>
      <trkpt lat="40.182482" lon="-8.408274">
        <ele>24.560327</ele>
        <time>2024-06-22T10:19:10.000Z</time>
      </trkpt>
      <trkpt lat="40.182515" lon="-8.407084">
        <ele>24.482552</ele>
        <time>2024-06-22T10:19:20.000Z</time>
      </trkpt>
      <trkpt lat="40.182635" lon="-8.40562">
        <ele>24.496951</ele>
        <time>2024-06-22T10:19:33.000Z</time>
      </trkpt>
      <trkpt lat="40.182765" lon="-8.404616">
        <ele>24.549483</ele>
        <time>2024-06-22T10:19:42.000Z</time>
      </trkpt>
      <trkpt lat="40.183015" lon="-8.40315">
        <ele>24.794624</ele>
        <time>2024-06-22T10:19:55.000Z</time>
      </trkpt>
      <trkpt lat="40.183073" lon="-8.402889">
        <ele>24.846908</ele>
        <time>2024-06-22T10:19:57.000Z</time>
      </trkpt>
      <trkpt lat="40.18311" lon="-8.402768">
        <ele>24.87457</ele>
        <time>2024-06-22T10:19:58.000Z</time>
      </trkpt>
      <trkpt lat="40.183154" lon="-8.402515">
        <ele>24.926203</ele>
        <time>2024-06-22T10:20:00.000Z</time>
      </trkpt>
      <trkpt lat="40.183786" lon="-8.400303">
        <ele>25.399429</ele>
        <time>2024-06-22T10:20:20.000Z</time>
      </trkpt>
      <trkpt lat="40.184303" lon="-8.398456">
        <ele>25.609997</ele>
        <time>2024-06-22T10:20:37.000Z</time>
      </trkpt>
      <trkpt lat="40.184456" lon="-8.397923">
        <ele>25.648677</ele>
        <time>2024-06-22T10:20:42.000Z</time>
      </trkpt>
      <trkpt lat="40.184647" lon="-8.397631">
        <ele>25.676305</ele>
        <time>2024-06-22T10:20:45.000Z</time>
      </trkpt>
      <trkpt lat="40.184671" lon="-8.397656">
        <ele>25.680383</ele>
        <time>2024-06-22T10:20:45.000Z</time>
      </trkpt>
      <trkpt lat="40.184682" lon="-8.397678">
        <ele>25.681657</ele>
        <time>2024-06-22T10:20:45.000Z</time>
      </trkpt>
      <trkpt lat="40.184689" lon="-8.397711">
        <ele>25.685243</ele>
        <time>2024-06-22T10:20:45.000Z</time>
      </trkpt>
      <trkpt lat="40.184624" lon="-8.397812">
        <ele>25.697275</ele>
        <time>2024-06-22T10:20:46.000Z</time>
      </trkpt>
      <trkpt lat="40.184517" lon="-8.397979">
        <ele>25.715243</ele>
        <time>2024-06-22T10:20:48.000Z</time>
      </trkpt>
      <trkpt lat="40.18438" lon="-8.398485">
        <ele>25.761956</ele>
        <time>2024-06-22T10:20:53.000Z</time>
      </trkpt>
      <trkpt lat="40.183848" lon="-8.400324">
        <ele>25.729491</ele>
        <time>2024-06-22T10:21:10.000Z</time>
      </trkpt>
      <trkpt lat="40.183237" lon="-8.402551">
        <ele>25.13386</ele>
        <time>2024-06-22T10:21:30.000Z</time>
      </trkpt>
      <trkpt lat="40.183183" lon="-8.4028">
        <ele>25.062789</ele>
        <time>2024-06-22T10:21:32.000Z</time>
      </trkpt>
      <trkpt lat="40.183157" lon="-8.402934">
        <ele>25.025551</ele>
        <time>2024-06-22T10:21:33.000Z</time>
      </trkpt>
      <trkpt lat="40.183098" lon="-8.403181">
        <ele>24.955533</ele>
        <time>2024-06-22T10:21:35.000Z</time>
      </trkpt>
      <trkpt lat="40.183079" lon="-8.403262">
        <ele>24.929625</ele>
        <time>2024-06-22T10:21:36.000Z</time>
      </trkpt>
      <trkpt lat="40.183088" lon="-8.403274">
        <ele>24.929162</ele>
        <time>2024-06-22T10:21:36.000Z</time>
      </trkpt>
      <trkpt lat="40.183072" lon="-8.403278">
        <ele>24.928627</ele>
        <time>2024-06-22T10:21:36.000Z</time>
      </trkpt>
      <trkpt lat="40.18308" lon="-8.403276">
        <ele>24.928339</ele>
        <time>2024-06-22T10:21:36.000Z</time>
      </trkpt>
      <trkpt lat="40.182919" lon="-8.404117">
        <ele>24.693175</ele>
        <time>2024-06-22T10:21:43.000Z</time>
      </trkpt>
      <trkpt lat="40.182766" lon="-8.405156">
        <ele>24.68705</ele>
        <time>2024-06-22T10:21:52.000Z</time>
      </trkpt>
      <trkpt lat="40.182723" lon="-8.405648">
        <ele>24.701877</ele>
        <time>2024-06-22T10:21:56.000Z</time>
      </trkpt>
      <trkpt lat="40.182641" lon="-8.406416">
        <ele>24.724988</ele>
        <time>2024-06-22T10:22:03.000Z</time>
      </trkpt>
      <trkpt lat="40.182606" lon="-8.407072">
        <ele>24.799257</ele>
        <time>2024-06-22T10:22:09.000Z</time>
      </trkpt>
      <trkpt lat="40.182576" lon="-8.408275">
        <ele>24.959056</ele>
        <time>2024-06-22T10:22:19.000Z</time>
      </trkpt>
      <trkpt lat="40.182599" lon="-8.409379">
        <ele>25.02263</ele>
        <time>2024-06-22T10:22:28.000Z</time>
      </trkpt>
      <trkpt lat="40.182695" lon="-8.410552">
        <ele>24.973039</ele>
        <time>2024-06-22T10:22:38.000Z</time>
      </trkpt>
      <trkpt lat="40.182783" lon="-8.411297">
        <ele>24.943902</ele>
        <time>2024-06-22T10:22:44.000Z</time>
      </trkpt>
      <trkpt lat="40.182918" lon="-8.412205">
        <ele>24.947824</ele>
        <time>2024-06-22T10:22:52.000Z</time>
      </trkpt>
      <trkpt lat="40.183024" lon="-8.412808">
        <ele>24.950455</ele>
        <time>2024-06-22T10:22:57.000Z</time>
      </trkpt>
      <trkpt lat="40.183203" lon="-8.413658">
        <ele>24.956813</ele>
        <time>2024-06-22T10:23:04.000Z</time>
      </trkpt>
      <trkpt lat="40.183406" lon="-8.414501">
        <ele>24.980518</ele>
        <time>2024-06-22T10:23:12.000Z</time>
      </trkpt>
      <trkpt lat="40.18361" lon="-8.415195">
        <ele>25.000072</ele>
        <time>2024-06-22T10:23:18.000Z</time>
      </trkpt>
      <trkpt lat="40.18385" lon="-8.415888">
        <ele>24.993787</ele>
        <time>2024-06-22T10:23:24.000Z</time>
      </trkpt>
      <trkpt lat="40.184327" lon="-8.41705">
        <ele>24.809667</ele>
        <time>2024-06-22T10:23:35.000Z</time>
      </trkpt>
      <trkpt lat="40.184541" lon="-8.417432">
        <ele>24.74276</ele>
        <time>2024-06-22T10:23:39.000Z</time>
      </trkpt>
      <trkpt lat="40.184534" lon="-8.417444">
        <ele>24.742531</ele>
        <time>2024-06-22T10:23:39.000Z</time>
      </trkpt>
      <trkpt lat="40.184553" lon="-8.417437">
        <ele>24.741635</ele>
        <time>2024-06-22T10:23:39.000Z</time>
      </trkpt>
      <trkpt lat="40.184544" lon="-8.41744">
        <ele>24.741498</ele>
        <time>2024-06-22T10:23:39.000Z</time>
      </trkpt>
      <trkpt lat="40.184602" lon="-8.417541">
        <ele>24.722837</ele>
        <time>2024-06-22T10:23:40.000Z</time>
      </trkpt>
      <trkpt lat="40.185066" lon="-8.418296">
        <ele>25.234356</ele>
        <time>2024-06-22T10:23:48.000Z</time>
      </trkpt>
      <trkpt lat="40.185216" lon="-8.418511">
        <ele>25.467084</ele>
        <time>2024-06-22T10:23:50.000Z</time>
      </trkpt>
      <trkpt lat="40.1857" lon="-8.419088">
        <ele>26.135082</ele>
        <time>2024-06-22T10:23:57.000Z</time>
      </trkpt>
      <trkpt lat="40.186273" lon="-8.419665">
        <ele>27.208517</ele>
        <time>2024-06-22T10:24:05.000Z</time>
      </trkpt>
      <trkpt lat="40.187034" lon="-8.420242">
        <ele>29.01196</ele>
        <time>2024-06-22T10:24:15.000Z</time>
      </trkpt>
      <trkpt lat="40.187425" lon="-8.420442">
        <ele>29.842964</ele>
        <time>2024-06-22T10:24:20.000Z</time>
      </trkpt>
      <trkpt lat="40.187681" lon="-8.42054">
        <ele>30.385288</ele>
        <time>2024-06-22T10:24:23.000Z</time>
      </trkpt>
      <trkpt lat="40.188117" lon="-8.420691">
        <ele>31.245106</ele>
        <time>2024-06-22T10:24:28.000Z</time>
      </trkpt>
      <trkpt lat="40.188552" lon="-8.420805">
        <ele>32.078532</ele>
        <time>2024-06-22T10:24:33.000Z</time>
      </trkpt>
      <trkpt lat="40.189074" lon="-8.420856">
        <ele>33.063807</ele>
        <time>2024-06-22T10:24:39.000Z</time>
      </trkpt>
      <trkpt lat="40.189373" lon="-8.420856">
        <ele>33.5603</ele>
        <time>2024-06-22T10:24:42.000Z</time>
      </trkpt>
      <trkpt lat="40.189709" lon="-8.420835">
        <ele>33.381523</ele>
        <time>2024-06-22T10:24:46.000Z</time>
      </trkpt>
      <trkpt lat="40.190383" lon="-8.420734">
        <ele>33.02296</ele>
        <time>2024-06-22T10:24:54.000Z</time>
      </trkpt>
      <trkpt lat="40.190525" lon="-8.420725">
        <ele>32.945049</ele>
        <time>2024-06-22T10:24:56.000Z</time>
      </trkpt>
      <trkpt lat="40.190792" lon="-8.420681">
        <ele>32.803705</ele>
        <time>2024-06-22T10:24:59.000Z</time>
      </trkpt>
      <trkpt lat="40.191773" lon="-8.420527">
        <ele>31.023022</ele>
        <time>2024-06-22T10:25:10.000Z</time>
      </trkpt>
      <trkpt lat="40.192072" lon="-8.420558">
        <ele>30.30202</ele>
        <time>2024-06-22T10:25:13.000Z</time>
      </trkpt>
      <trkpt lat="40.192495" lon="-8.420687">
        <ele>29.218829</ele>
        <time>2024-06-22T10:25:18.000Z</time>
      </trkpt>
      <trkpt lat="40.192726" lon="-8.42082">
        <ele>28.594103</ele>
        <time>2024-06-22T10:25:21.000Z</time>
      </trkpt>
      <trkpt lat="40.192825" lon="-8.420938">
        <ele>28.254415</ele>
        <time>2024-06-22T10:25:22.000Z</time>
      </trkpt>
      <trkpt lat="40.192958" lon="-8.421182">
        <ele>27.65969</ele>
        <time>2024-06-22T10:25:25.000Z</time>
      </trkpt>
      <trkpt lat="40.193012" lon="-8.421394">
        <ele>27.212908</ele>
        <time>2024-06-22T10:25:27.000Z</time>
      </trkpt>
      <trkpt lat="40.19301" lon="-8.421571">
        <ele>26.872911</ele>
        <time>2024-06-22T10:25:29.000Z</time>
      </trkpt>
      <trkpt lat="40.192956" lon="-8.421832">
        <ele>26.322169</ele>
        <time>2024-06-22T10:25:31.000Z</time>
      </trkpt>
      <trkpt lat="40.192825" lon="-8.422185">
        <ele>25.563417</ele>
        <time>2024-06-22T10:25:34.000Z</time>
      </trkpt>
      <trkpt lat="40.192828" lon="-8.422276">
        <ele>25.355558</ele>
        <time>2024-06-22T10:25:35.000Z</time>
      </trkpt>
      <trkpt lat="40.192814" lon="-8.42291">
        <ele>24.114168</ele>
        <time>2024-06-22T10:25:40.000Z</time>
      </trkpt>
      <trkpt lat="40.192819" lon="-8.422899">
        <ele>24.114175</ele>
        <time>2024-06-22T10:25:40.000Z</time>
      </trkpt>
      <trkpt lat="40.19282" lon="-8.4229">
        <ele>24.114168</ele>
        <time>2024-06-22T10:25:40.000Z</time>
      </trkpt>
      <trkpt lat="40.192791" lon="-8.423985">
        <ele>23.284766</ele>
        <time>2024-06-22T10:25:49.000Z</time>
      </trkpt>
      <trkpt lat="40.192754" lon="-8.425076">
        <ele>23.032962</ele>
        <time>2024-06-22T10:25:58.000Z</time>
      </trkpt>
      <trkpt lat="40.192718" lon="-8.42616">
        <ele>24.405161</ele>
        <time>2024-06-22T10:26:07.000Z</time>
      </trkpt>
      <trkpt lat="40.192699" lon="-8.427245">
        <ele>27.227365</ele>
        <time>2024-06-22T10:26:16.000Z</time>
      </trkpt>
      <trkpt lat="40.192589" lon="-8.428057">
        <ele>29.538695</ele>
        <time>2024-06-22T10:26:23.000Z</time>
      </trkpt>
      <trkpt lat="40.192333" lon="-8.42868">
        <ele>32.071702</ele>
        <time>2024-06-22T10:26:29.000Z</time>
      </trkpt>
      <trkpt lat="40.191849" lon="-8.429612">
        <ele>36.122715</ele>
        <time>2024-06-22T10:26:39.000Z</time>
      </trkpt>
      <trkpt lat="40.191703" lon="-8.430231">
        <ele>37.552412</ele>
        <time>2024-06-22T10:26:45.000Z</time>
      </trkpt>
      <trkpt lat="40.191755" lon="-8.430728">
        <ele>37.654454</ele>
        <time>2024-06-22T10:26:49.000Z</time>
      </trkpt>
      <trkpt lat="40.191844" lon="-8.430938">
        <ele>37.705462</ele>
        <time>2024-06-22T10:26:51.000Z</time>
      </trkpt>
      <trkpt lat="40.19191" lon="-8.431127">
        <ele>37.748281</ele>
        <time>2024-06-22T10:26:53.000Z</time>
      </trkpt>
      <trkpt lat="40.192024" lon="-8.431344">
        <ele>37.800663</ele>
        <time>2024-06-22T10:26:55.000Z</time>
      </trkpt>
      <trkpt lat="40.192142" lon="-8.431485">
        <ele>37.844978</ele>
        <time>2024-06-22T10:26:57.000Z</time>
      </trkpt>
      <trkpt lat="40.192351" lon="-8.431653">
        <ele>37.908351</ele>
        <time>2024-06-22T10:27:00.000Z</time>
      </trkpt>
      <trkpt lat="40.192663" lon="-8.431894">
        <ele>37.61415</ele>
        <time>2024-06-22T10:27:04.000Z</time>
      </trkpt>
      <trkpt lat="40.192951" lon="-8.432024">
        <ele>36.39979</ele>
        <time>2024-06-22T10:27:07.000Z</time>
      </trkpt>
      <trkpt lat="40.193187" lon="-8.432107">
        <ele>35.394113</ele>
        <time>2024-06-22T10:27:10.000Z</time>
      </trkpt>
      <trkpt lat="40.193701" lon="-8.432209">
        <ele>33.363052</ele>
        <time>2024-06-22T10:27:16.000Z</time>
      </trkpt>
      <trkpt lat="40.194437" lon="-8.432228">
        <ele>30.557546</ele>
        <time>2024-06-22T10:27:24.000Z</time>
      </trkpt>
      <trkpt lat="40.194745" lon="-8.432113">
        <ele>29.51051</ele>
        <time>2024-06-22T10:27:28.000Z</time>
      </trkpt>
      <trkpt lat="40.19511" lon="-8.431915">
        <ele>28.256311</ele>
        <time>2024-06-22T10:27:32.000Z</time>
      </trkpt>
      <trkpt lat="40.195529" lon="-8.431615">
        <ele>26.782264</ele>
        <time>2024-06-22T10:27:37.000Z</time>
      </trkpt>
      <trkpt lat="40.19588" lon="-8.431262">
        <ele>25.374497</ele>
        <time>2024-06-22T10:27:42.000Z</time>
      </trkpt>
      <trkpt lat="40.195865" lon="-8.430987">
        <ele>24.920509</ele>
        <time>2024-06-22T10:27:44.000Z</time>
      </trkpt>
      <trkpt lat="40.195954" lon="-8.430762">
        <ele>24.59727</ele>
        <time>2024-06-22T10:27:46.000Z</time>
      </trkpt>
      <trkpt lat="40.196028" lon="-8.430684">
        <ele>24.435088</ele>
        <time>2024-06-22T10:27:47.000Z</time>
      </trkpt>
      <trkpt lat="40.196159" lon="-8.430581">
        <ele>24.161423</ele>
        <time>2024-06-22T10:27:49.000Z</time>
      </trkpt>
      <trkpt lat="40.196313" lon="-8.430576">
        <ele>23.866918</ele>
        <time>2024-06-22T10:27:51.000Z</time>
      </trkpt>
      <trkpt lat="40.196486" lon="-8.430639">
        <ele>23.571584</ele>
        <time>2024-06-22T10:27:53.000Z</time>
      </trkpt>
      <trkpt lat="40.196547" lon="-8.430698">
        <ele>23.422402</ele>
        <time>2024-06-22T10:27:54.000Z</time>
      </trkpt>
      <trkpt lat="40.196793" lon="-8.430661">
        <ele>22.986282</ele>
        <time>2024-06-22T10:27:57.000Z</time>
      </trkpt>
      <trkpt lat="40.196997" lon="-8.430619">
        <ele>22.643944</ele>
        <time>2024-06-22T10:27:59.000Z</time>
      </trkpt>
      <trkpt lat="40.197996" lon="-8.429921">
        <ele>21.779434</ele>
        <time>2024-06-22T10:28:12.000Z</time>
      </trkpt>
      <trkpt lat="40.198299" lon="-8.429743">
        <ele>21.682648</ele>
        <time>2024-06-22T10:28:16.000Z</time>
      </trkpt>
      <trkpt lat="40.198695" lon="-8.429608">
        <ele>21.5625</ele>
        <time>2024-06-22T10:28:21.000Z</time>
      </trkpt>
      <trkpt lat="40.199105" lon="-8.42962">
        <ele>21.462327</ele>
        <time>2024-06-22T10:28:26.000Z</time>
      </trkpt>
      <trkpt lat="40.199517" lon="-8.42977">
        <ele>21.400391</ele>
        <time>2024-06-22T10:28:31.000Z</time>
      </trkpt>
      <trkpt lat="40.20016" lon="-8.430091">
        <ele>21.303499</ele>
        <time>2024-06-22T10:28:39.000Z</time>
      </trkpt>
      <trkpt lat="40.200343" lon="-8.43019">
        <ele>21.274596</ele>
        <time>2024-06-22T10:28:41.000Z</time>
      </trkpt>
      <trkpt lat="40.200531" lon="-8.430293">
        <ele>21.246609</ele>
        <time>2024-06-22T10:28:43.000Z</time>
      </trkpt>
      <trkpt lat="40.200693" lon="-8.430377">
        <ele>21.207974</ele>
        <time>2024-06-22T10:28:45.000Z</time>
      </trkpt>
      <trkpt lat="40.201216" lon="-8.43064">
        <ele>20.900279</ele>
        <time>2024-06-22T10:28:51.000Z</time>
      </trkpt>
      <trkpt lat="40.201384" lon="-8.430741">
        <ele>20.799949</ele>
        <time>2024-06-22T10:28:53.000Z</time>
      </trkpt>
      <trkpt lat="40.201432" lon="-8.43077">
        <ele>20.770571</ele>
        <time>2024-06-22T10:28:54.000Z</time>
      </trkpt>
      <trkpt lat="40.20213" lon="-8.431125">
        <ele>20.351723</ele>
        <time>2024-06-22T10:29:02.000Z</time>
      </trkpt>
      <trkpt lat="40.202959" lon="-8.43157">
        <ele>20.142298</ele>
        <time>2024-06-22T10:29:12.000Z</time>
      </trkpt>
      <trkpt lat="40.203632" lon="-8.431915">
        <ele>20.058312</ele>
        <time>2024-06-22T10:29:20.000Z</time>
      </trkpt>
      <trkpt lat="40.203766" lon="-8.431983">
        <ele>20.041771</ele>
        <time>2024-06-22T10:29:22.000Z</time>
      </trkpt>
      <trkpt lat="40.204035" lon="-8.432009">
        <ele>20.011367</ele>
        <time>2024-06-22T10:29:25.000Z</time>
      </trkpt>
      <trkpt lat="40.204231" lon="-8.431993">
        <ele>20.015382</ele>
        <time>2024-06-22T10:29:27.000Z</time>
      </trkpt>
      <trkpt lat="40.204554" lon="-8.431878">
        <ele>20.022642</ele>
        <time>2024-06-22T10:29:31.000Z</time>
      </trkpt>
      <trkpt lat="40.204569" lon="-8.431871">
        <ele>20.02306</ele>
        <time>2024-06-22T10:29:31.000Z</time>
      </trkpt>
      <trkpt lat="40.204861" lon="-8.431573">
        <ele>20.030886</ele>
        <time>2024-06-22T10:29:35.000Z</time>
      </trkpt>
      <trkpt lat="40.204901" lon="-8.431542">
        <ele>20.031913</ele>
        <time>2024-06-22T10:29:36.000Z</time>
      </trkpt>
      <trkpt lat="40.204908" lon="-8.431548">
        <ele>20.03191</ele>
        <time>2024-06-22T10:29:36.000Z</time>
      </trkpt>
      <trkpt lat="40.204918" lon="-8.43153">
        <ele>20.031904</ele>
        <time>2024-06-22T10:29:36.000Z</time>
      </trkpt>
      <trkpt lat="40.20524" lon="-8.431618">
        <ele>20.039165</ele>
        <time>2024-06-22T10:29:40.000Z</time>
      </trkpt>
      <trkpt lat="40.205442" lon="-8.431855">
        <ele>20.044787</ele>
        <time>2024-06-22T10:29:43.000Z</time>
      </trkpt>
      <trkpt lat="40.205776" lon="-8.432279">
        <ele>20.017049</ele>
        <time>2024-06-22T10:29:48.000Z</time>
      </trkpt>
      <trkpt lat="40.205841" lon="-8.432356">
        <ele>20.006632</ele>
        <time>2024-06-22T10:29:49.000Z</time>
      </trkpt>
      <trkpt lat="40.207599" lon="-8.434523">
        <ele>19.636875</ele>
        <time>2024-06-22T10:30:16.000Z</time>
      </trkpt>
      <trkpt lat="40.207712" lon="-8.434651">
        <ele>19.607028</ele>
        <time>2024-06-22T10:30:18.000Z</time>
      </trkpt>
      <trkpt lat="40.208258" lon="-8.435291">
        <ele>19.468448</ele>
        <time>2024-06-22T10:30:26.000Z</time>
      </trkpt>
      <trkpt lat="40.208363" lon="-8.435352">
        <ele>19.443843</ele>
        <time>2024-06-22T10:30:27.000Z</time>
      </trkpt>
      <trkpt lat="40.208474" lon="-8.435544">
        <ele>19.402255</ele>
        <time>2024-06-22T10:30:29.000Z</time>
      </trkpt>
      <trkpt lat="40.209285" lon="-8.436337">
        <ele>19.179079</ele>
        <time>2024-06-22T10:30:40.000Z</time>
      </trkpt>
      <trkpt lat="40.209861" lon="-8.436848">
        <ele>19.108946</ele>
        <time>2024-06-22T10:30:48.000Z</time>
      </trkpt>
      <trkpt lat="40.211031" lon="-8.437815">
        <ele>19.289937</ele>
        <time>2024-06-22T10:31:03.000Z</time>
      </trkpt>
      <trkpt lat="40.211182" lon="-8.437978">
        <ele>19.320112</ele>
        <time>2024-06-22T10:31:05.000Z</time>
      </trkpt>
      <trkpt lat="40.211268" lon="-8.438188">
        <ele>19.397308</ele>
        <time>2024-06-22T10:31:07.000Z</time>
      </trkpt>
      <trkpt lat="40.211298" lon="-8.438374">
        <ele>19.462414</ele>
        <time>2024-06-22T10:31:09.000Z</time>
      </trkpt>
      <trkpt lat="40.211272" lon="-8.438872">
        <ele>19.618225</ele>
        <time>2024-06-22T10:31:13.000Z</time>
      </trkpt>
      <trkpt lat="40.211306" lon="-8.439093">
        <ele>19.691358</ele>
        <time>2024-06-22T10:31:15.000Z</time>
      </trkpt>
      <trkpt lat="40.211402" lon="-8.439373">
        <ele>19.793878</ele>
        <time>2024-06-22T10:31:18.000Z</time>
      </trkpt>
      <trkpt lat="40.211601" lon="-8.439484">
        <ele>19.879242</ele>
        <time>2024-06-22T10:31:20.000Z</time>
      </trkpt>
      <trkpt lat="40.211714" lon="-8.439502">
        <ele>19.929815</ele>
        <time>2024-06-22T10:31:21.000Z</time>
      </trkpt>
      <trkpt lat="40.211962" lon="-8.439712">
        <ele>20.053695</ele>
        <time>2024-06-22T10:31:24.000Z</time>
      </trkpt>
      <trkpt lat="40.212163" lon="-8.439999">
        <ele>20.086858</ele>
        <time>2024-06-22T10:31:27.000Z</time>
      </trkpt>
      <trkpt lat="40.212596" lon="-8.440434">
        <ele>20.118987</ele>
        <time>2024-06-22T10:31:33.000Z</time>
      </trkpt>
      <trkpt lat="40.213243" lon="-8.440856">
        <ele>20.161295</ele>
        <time>2024-06-22T10:31:41.000Z</time>
      </trkpt>
      <trkpt lat="40.213648" lon="-8.441041">
        <ele>20.07088</ele>
        <time>2024-06-22T10:31:46.000Z</time>
      </trkpt>
      <trkpt lat="40.214648" lon="-8.441272">
        <ele>19.346915</ele>
        <time>2024-06-22T10:31:57.000Z</time>
      </trkpt>
      <trkpt lat="40.214757" lon="-8.441271">
        <ele>19.26879</ele>
        <time>2024-06-22T10:31:58.000Z</time>
      </trkpt>
      <trkpt lat="40.214768" lon="-8.441231">
        <ele>19.2462</ele>
        <time>2024-06-22T10:31:58.000Z</time>
      </trkpt>
      <trkpt lat="40.214817" lon="-8.441217">
        <ele>19.217094</ele>
        <time>2024-06-22T10:31:59.000Z</time>
      </trkpt>
      <trkpt lat="40.214828" lon="-8.441276">
        <ele>19.187627</ele>
        <time>2024-06-22T10:32:00.000Z</time>
      </trkpt>
      <trkpt lat="40.215405" lon="-8.441578">
        <ele>18.706546</ele>
        <time>2024-06-22T10:32:07.000Z</time>
      </trkpt>
      <trkpt lat="40.215776" lon="-8.441828">
        <ele>18.341857</ele>
        <time>2024-06-22T10:32:12.000Z</time>
      </trkpt>
      <trkpt lat="40.216592" lon="-8.442576">
        <ele>17.445449</ele>
        <time>2024-06-22T10:32:23.000Z</time>
      </trkpt>
      <trkpt lat="40.21722" lon="-8.443301">
        <ele>17.025195</ele>
        <time>2024-06-22T10:32:32.000Z</time>
      </trkpt>
      <trkpt lat="40.217461" lon="-8.44372">
        <ele>16.867145</ele>
        <time>2024-06-22T10:32:36.000Z</time>
      </trkpt>
      <trkpt lat="40.217809" lon="-8.444565">
        <ele>16.56925</ele>
        <time>2024-06-22T10:32:44.000Z</time>
      </trkpt>
      <trkpt lat="40.218066" lon="-8.445414">
        <ele>16.38974</ele>
        <time>2024-06-22T10:32:52.000Z</time>
      </trkpt>
      <trkpt lat="40.218492" lon="-8.44782">
        <ele>15.967365</ele>
        <time>2024-06-22T10:33:13.000Z</time>
      </trkpt>
      <trkpt lat="40.218864" lon="-8.450051">
        <ele>15.703873</ele>
        <time>2024-06-22T10:33:32.000Z</time>
      </trkpt>
      <trkpt lat="40.219201" lon="-8.45247">
        <ele>15.502459</ele>
        <time>2024-06-22T10:33:53.000Z</time>
      </trkpt>
      <trkpt lat="40.219355" lon="-8.453685">
        <ele>15.407054</ele>
        <time>2024-06-22T10:34:03.000Z</time>
      </trkpt>
      <trkpt lat="40.219455" lon="-8.455328">
        <ele>15.290915</ele>
        <time>2024-06-22T10:34:17.000Z</time>
      </trkpt>
      <trkpt lat="40.219501" lon="-8.455699">
        <ele>15.264917</ele>
        <time>2024-06-22T10:34:20.000Z</time>
      </trkpt>
      <trkpt lat="40.219553" lon="-8.458944">
        <ele>14.841291</ele>
        <time>2024-06-22T10:34:48.000Z</time>
      </trkpt>
      <trkpt lat="40.219486" lon="-8.460231">
        <ele>14.560802</ele>
        <time>2024-06-22T10:34:59.000Z</time>
      </trkpt>
      <trkpt lat="40.219282" lon="-8.462335">
        <ele>14.039678</ele>
        <time>2024-06-22T10:35:17.000Z</time>
      </trkpt>
      <trkpt lat="40.219167" lon="-8.463171">
        <ele>13.831836</ele>
        <time>2024-06-22T10:35:24.000Z</time>
      </trkpt>
      <trkpt lat="40.218499" lon="-8.467355">
        <ele>13.206704</ele>
        <time>2024-06-22T10:36:00.000Z</time>
      </trkpt>
      <trkpt lat="40.21768" lon="-8.472049">
        <ele>12.627705</ele>
        <time>2024-06-22T10:36:41.000Z</time>
      </trkpt>
      <trkpt lat="40.216787" lon="-8.477262">
        <ele>12.269938</ele>
        <time>2024-06-22T10:37:26.000Z</time>
      </trkpt>
      <trkpt lat="40.216117" lon="-8.481095">
        <ele>11.914778</ele>
        <time>2024-06-22T10:37:59.000Z</time>
      </trkpt>
      <trkpt lat="40.215753" lon="-8.483398">
        <ele>12.09511</ele>
        <time>2024-06-22T10:38:19.000Z</time>
      </trkpt>
      <trkpt lat="40.215646" lon="-8.48388">
        <ele>12.142664</ele>
        <time>2024-06-22T10:38:23.000Z</time>
      </trkpt>
      <trkpt lat="40.215373" lon="-8.483822">
        <ele>12.137263</ele>
        <time>2024-06-22T10:38:26.000Z</time>
      </trkpt>
      <trkpt lat="40.215237" lon="-8.483562">
        <ele>12.132727</ele>
        <time>2024-06-22T10:38:29.000Z</time>
      </trkpt>
      <trkpt lat="40.215207" lon="-8.483303">
        <ele>12.128605</ele>
        <time>2024-06-22T10:38:31.000Z</time>
      </trkpt>
      <trkpt lat="40.21559" lon="-8.48345">
        <ele>12.120608</ele>
        <time>2024-06-22T10:38:35.000Z</time>
      </trkpt>
      <trkpt lat="40.216297" lon="-8.483646">
        <ele>12.09287</ele>
        <time>2024-06-22T10:38:43.000Z</time>
      </trkpt>
      <trkpt lat="40.216364" lon="-8.483676">
        <ele>12.083034</ele>
        <time>2024-06-22T10:38:44.000Z</time>
      </trkpt>
      <trkpt lat="40.216388" lon="-8.483683">
        <ele>12.078766</ele>
        <time>2024-06-22T10:38:44.000Z</time>
      </trkpt>
      <trkpt lat="40.216383" lon="-8.483673">
        <ele>12.077938</ele>
        <time>2024-06-22T10:38:44.000Z</time>
      </trkpt>
      <trkpt lat="40.217404" lon="-8.48397">
        <ele>11.911241</ele>
        <time>2024-06-22T10:38:56.000Z</time>
      </trkpt>
      <trkpt lat="40.218156" lon="-8.484158">
        <ele>11.808496</ele>
        <time>2024-06-22T10:39:05.000Z</time>
      </trkpt>
      <trkpt lat="40.218295" lon="-8.484266">
        <ele>11.798962</ele>
        <time>2024-06-22T10:39:07.000Z</time>
      </trkpt>
      <trkpt lat="40.218266" lon="-8.48448">
        <ele>11.789371</ele>
        <time>2024-06-22T10:39:09.000Z</time>
      </trkpt>
      <trkpt lat="40.217202" lon="-8.484365">
        <ele>11.727223</ele>
        <time>2024-06-22T10:39:21.000Z</time>
      </trkpt>
      <trkpt lat="40.217238" lon="-8.484051">
        <ele>11.715529</ele>
        <time>2024-06-22T10:39:24.000Z</time>
      </trkpt>
      <trkpt lat="40.219183" lon="-8.472601">
        <ele>12.342667</ele>
        <time>2024-06-22T10:41:04.000Z</time>
      </trkpt>
      <trkpt lat="40.219693" lon="-8.469556">
        <ele>13.065818</ele>
        <time>2024-06-22T10:41:30.000Z</time>
      </trkpt>
      <trkpt lat="40.219769" lon="-8.469285">
        <ele>13.179419</ele>
        <time>2024-06-22T10:41:32.000Z</time>
      </trkpt>
      <trkpt lat="40.219845" lon="-8.469089">
        <ele>13.270642</ele>
        <time>2024-06-22T10:41:34.000Z</time>
      </trkpt>
      <trkpt lat="40.219999" lon="-8.468859">
        <ele>13.391806</ele>
        <time>2024-06-22T10:41:37.000Z</time>
      </trkpt>
      <trkpt lat="40.220646" lon="-8.468137">
        <ele>13.808017</ele>
        <time>2024-06-22T10:41:46.000Z</time>
      </trkpt>
      <trkpt lat="40.221127" lon="-8.467561">
        <ele>14.055035</ele>
        <time>2024-06-22T10:41:53.000Z</time>
      </trkpt>
      <trkpt lat="40.222606" lon="-8.466121">
        <ele>14.416315</ele>
        <time>2024-06-22T10:42:13.000Z</time>
      </trkpt>
      <trkpt lat="40.222796" lon="-8.465903">
        <ele>14.421048</ele>
        <time>2024-06-22T10:42:16.000Z</time>
      </trkpt>
      <trkpt lat="40.22298" lon="-8.465598">
        <ele>14.426484</ele>
        <time>2024-06-22T10:42:19.000Z</time>
      </trkpt>
      <trkpt lat="40.223082" lon="-8.465345">
        <ele>14.430822</ele>
        <time>2024-06-22T10:42:21.000Z</time>
      </trkpt>
      <trkpt lat="40.223192" lon="-8.464973">
        <ele>14.452822</ele>
        <time>2024-06-22T10:42:24.000Z</time>
      </trkpt>
      <trkpt lat="40.223223" lon="-8.464644">
        <ele>14.47848</ele>
        <time>2024-06-22T10:42:27.000Z</time>
      </trkpt>
      <trkpt lat="40.223337" lon="-8.462191">
        <ele>14.707842</ele>
        <time>2024-06-22T10:42:48.000Z</time>
      </trkpt>
      <trkpt lat="40.223546" lon="-8.458542">
        <ele>15.182838</ele>
        <time>2024-06-22T10:43:19.000Z</time>
      </trkpt>
      <trkpt lat="40.223815" lon="-8.456493">
        <ele>15.383359</ele>
        <time>2024-06-22T10:43:37.000Z</time>
      </trkpt>
      <trkpt lat="40.223823" lon="-8.456483">
        <ele>15.385292</ele>
        <time>2024-06-22T10:43:37.000Z</time>
      </trkpt>
      <trkpt lat="40.223825" lon="-8.456479">
        <ele>15.38537</ele>
        <time>2024-06-22T10:43:37.000Z</time>
      </trkpt>
      <trkpt lat="40.223813" lon="-8.456468">
        <ele>15.38555</ele>
        <time>2024-06-22T10:43:37.000Z</time>
      </trkpt>
      <trkpt lat="40.223882" lon="-8.455934">
        <ele>15.435091</ele>
        <time>2024-06-22T10:43:42.000Z</time>
      </trkpt>
      <trkpt lat="40.224094" lon="-8.454569">
        <ele>15.767331</ele>
        <time>2024-06-22T10:43:54.000Z</time>
      </trkpt>
      <trkpt lat="40.224105" lon="-8.454021">
        <ele>15.897514</ele>
        <time>2024-06-22T10:43:59.000Z</time>
      </trkpt>
      <trkpt lat="40.223959" lon="-8.452105">
        <ele>16.896025</ele>
        <time>2024-06-22T10:44:15.000Z</time>
      </trkpt>
      <trkpt lat="40.223832" lon="-8.450917">
        <ele>17.567821</ele>
        <time>2024-06-22T10:44:25.000Z</time>
      </trkpt>
      <trkpt lat="40.223556" lon="-8.450065">
        <ele>17.939333</ele>
        <time>2024-06-22T10:44:33.000Z</time>
      </trkpt>
      <trkpt lat="40.223033" lon="-8.448748">
        <ele>18.369107</ele>
        <time>2024-06-22T10:44:46.000Z</time>
      </trkpt>
      <trkpt lat="40.222781" lon="-8.447987">
        <ele>18.292581</ele>
        <time>2024-06-22T10:44:53.000Z</time>
      </trkpt>
      <trkpt lat="40.22275" lon="-8.447677">
        <ele>18.262643</ele>
        <time>2024-06-22T10:44:56.000Z</time>
      </trkpt>
      <trkpt lat="40.222811" lon="-8.447284">
        <ele>18.22574</ele>
        <time>2024-06-22T10:44:59.000Z</time>
      </trkpt>
      <trkpt lat="40.223222" lon="-8.445692">
        <ele>17.574496</ele>
        <time>2024-06-22T10:45:13.000Z</time>
      </trkpt>
      <trkpt lat="40.223256" lon="-8.445587">
        <ele>17.513591</ele>
        <time>2024-06-22T10:45:14.000Z</time>
      </trkpt>
      <trkpt lat="40.223676" lon="-8.444456">
        <ele>16.854831</ele>
        <time>2024-06-22T10:45:25.000Z</time>
      </trkpt>
      <trkpt lat="40.223827" lon="-8.443923">
        <ele>16.46222</ele>
        <time>2024-06-22T10:45:30.000Z</time>
      </trkpt>
      <trkpt lat="40.223873" lon="-8.443739">
        <ele>16.33069</ele>
        <time>2024-06-22T10:45:32.000Z</time>
      </trkpt>
      <trkpt lat="40.223878" lon="-8.443616">
        <ele>16.24599</ele>
        <time>2024-06-22T10:45:33.000Z</time>
      </trkpt>
      <trkpt lat="40.223871" lon="-8.44362">
        <ele>16.245301</ele>
        <time>2024-06-22T10:45:33.000Z</time>
      </trkpt>
      <trkpt lat="40.223876" lon="-8.443609">
        <ele>16.242453</ele>
        <time>2024-06-22T10:45:33.000Z</time>
      </trkpt>
      <trkpt lat="40.22394" lon="-8.443164">
        <ele>15.933313</ele>
        <time>2024-06-22T10:45:37.000Z</time>
      </trkpt>
      <trkpt lat="40.223923" lon="-8.442865">
        <ele>15.734569</ele>
        <time>2024-06-22T10:45:40.000Z</time>
      </trkpt>
      <trkpt lat="40.223871" lon="-8.442587">
        <ele>15.536908</ele>
        <time>2024-06-22T10:45:42.000Z</time>
      </trkpt>
      <trkpt lat="40.223849" lon="-8.44253">
        <ele>15.491052</ele>
        <time>2024-06-22T10:45:43.000Z</time>
      </trkpt>
      <trkpt lat="40.223837" lon="-8.442531">
        <ele>15.488346</ele>
        <time>2024-06-22T10:45:43.000Z</time>
      </trkpt>
      <trkpt lat="40.223839" lon="-8.442517">
        <ele>15.487219</ele>
        <time>2024-06-22T10:45:43.000Z</time>
      </trkpt>
      <trkpt lat="40.223832" lon="-8.442517">
        <ele>15.483975</ele>
        <time>2024-06-22T10:45:43.000Z</time>
      </trkpt>
      <trkpt lat="40.223805" lon="-8.442487">
        <ele>15.447298</ele>
        <time>2024-06-22T10:45:43.000Z</time>
      </trkpt>
      <trkpt lat="40.223617" lon="-8.442341">
        <ele>15.356166</ele>
        <time>2024-06-22T10:45:45.000Z</time>
      </trkpt>
      <trkpt lat="40.223342" lon="-8.442217">
        <ele>15.271878</ele>
        <time>2024-06-22T10:45:48.000Z</time>
      </trkpt>
      <trkpt lat="40.222996" lon="-8.442102">
        <ele>15.169911</ele>
        <time>2024-06-22T10:45:52.000Z</time>
      </trkpt>
      <trkpt lat="40.222398" lon="-8.441829">
        <ele>14.991913</ele>
        <time>2024-06-22T10:45:59.000Z</time>
      </trkpt>
      <trkpt lat="40.221956" lon="-8.441637">
        <ele>14.98292</ele>
        <time>2024-06-22T10:46:04.000Z</time>
      </trkpt>
      <trkpt lat="40.220535" lon="-8.441258">
        <ele>15.94566</ele>
        <time>2024-06-22T10:46:20.000Z</time>
      </trkpt>
      <trkpt lat="40.219265" lon="-8.440342">
        <ele>16.906352</ele>
        <time>2024-06-22T10:46:36.000Z</time>
      </trkpt>
      <trkpt lat="40.218894" lon="-8.44016">
        <ele>17.182424</ele>
        <time>2024-06-22T10:46:40.000Z</time>
      </trkpt>
      <trkpt lat="40.218019" lon="-8.4398">
        <ele>17.776438</ele>
        <time>2024-06-22T10:46:50.000Z</time>
      </trkpt>
      <trkpt lat="40.217423" lon="-8.439587">
        <ele>18.194181</ele>
        <time>2024-06-22T10:46:57.000Z</time>
      </trkpt>
      <trkpt lat="40.217294" lon="-8.439526">
        <ele>18.280845</ele>
        <time>2024-06-22T10:46:59.000Z</time>
      </trkpt>
      <trkpt lat="40.217289" lon="-8.439509">
        <ele>18.28226</ele>
        <time>2024-06-22T10:46:59.000Z</time>
      </trkpt>
      <trkpt lat="40.217287" lon="-8.43951">
        <ele>18.282923</ele>
        <time>2024-06-22T10:46:59.000Z</time>
      </trkpt>
      <trkpt lat="40.21729" lon="-8.439523">
        <ele>18.284333</ele>
        <time>2024-06-22T10:46:59.000Z</time>
      </trkpt>
      <trkpt lat="40.217112" lon="-8.43942">
        <ele>18.407595</ele>
        <time>2024-06-22T10:47:01.000Z</time>
      </trkpt>
      <trkpt lat="40.217046" lon="-8.439399">
        <ele>18.452804</ele>
        <time>2024-06-22T10:47:02.000Z</time>
      </trkpt>
      <trkpt lat="40.217036" lon="-8.439276">
        <ele>18.546399</ele>
        <time>2024-06-22T10:47:03.000Z</time>
      </trkpt>
      <trkpt lat="40.217062" lon="-8.439243">
        <ele>18.599189</ele>
        <time>2024-06-22T10:47:03.000Z</time>
      </trkpt>
      <trkpt lat="40.217149" lon="-8.439235">
        <ele>18.700151</ele>
        <time>2024-06-22T10:47:04.000Z</time>
      </trkpt>
      <trkpt lat="40.217168" lon="-8.439134">
        <ele>18.825202</ele>
        <time>2024-06-22T10:47:05.000Z</time>
      </trkpt>
      <trkpt lat="40.217202" lon="-8.439052">
        <ele>18.910337</ele>
        <time>2024-06-22T10:47:06.000Z</time>
      </trkpt>
      <trkpt lat="40.217249" lon="-8.438889">
        <ele>19.083574</ele>
        <time>2024-06-22T10:47:07.000Z</time>
      </trkpt>
      <trkpt lat="40.217292" lon="-8.438747">
        <ele>19.254338</ele>
        <time>2024-06-22T10:47:08.000Z</time>
      </trkpt>
      <trkpt lat="40.217335" lon="-8.438569">
        <ele>19.456133</ele>
        <time>2024-06-22T10:47:10.000Z</time>
      </trkpt>
      <trkpt lat="40.217445" lon="-8.438192">
        <ele>19.872133</ele>
        <time>2024-06-22T10:47:13.000Z</time>
      </trkpt>
      <trkpt lat="40.217525" lon="-8.437913">
        <ele>20.1783</ele>
        <time>2024-06-22T10:47:16.000Z</time>
      </trkpt>
      <trkpt lat="40.217473" lon="-8.437676">
        <ele>20.439072</ele>
        <time>2024-06-22T10:47:18.000Z</time>
      </trkpt>
      <trkpt lat="40.217411" lon="-8.437631">
        <ele>20.535023</ele>
        <time>2024-06-22T10:47:19.000Z</time>
      </trkpt>
      <trkpt lat="40.217091" lon="-8.437337">
        <ele>21.04738</ele>
        <time>2024-06-22T10:47:23.000Z</time>
      </trkpt>
      <trkpt lat="40.216929" lon="-8.437166">
        <ele>21.269402</ele>
        <time>2024-06-22T10:47:25.000Z</time>
      </trkpt>
      <trkpt lat="40.216394" lon="-8.436624">
        <ele>21.968766</ele>
        <time>2024-06-22T10:47:33.000Z</time>
      </trkpt>
      <trkpt lat="40.216331" lon="-8.436573">
        <ele>22.060037</ele>
        <time>2024-06-22T10:47:34.000Z</time>
      </trkpt>
      <trkpt lat="40.216242" lon="-8.436493">
        <ele>22.161862</ele>
        <time>2024-06-22T10:47:35.000Z</time>
      </trkpt>
      <trkpt lat="40.216135" lon="-8.436376">
        <ele>22.302061</ele>
        <time>2024-06-22T10:47:37.000Z</time>
      </trkpt>
      <trkpt lat="40.215981" lon="-8.436227">
        <ele>22.515356</ele>
        <time>2024-06-22T10:47:39.000Z</time>
      </trkpt>
      <trkpt lat="40.215607" lon="-8.435884">
        <ele>22.849809</ele>
        <time>2024-06-22T10:47:44.000Z</time>
      </trkpt>
      <trkpt lat="40.215527" lon="-8.435906">
        <ele>22.866439</ele>
        <time>2024-06-22T10:47:45.000Z</time>
      </trkpt>
      <trkpt lat="40.215468" lon="-8.435858">
        <ele>22.877085</ele>
        <time>2024-06-22T10:47:46.000Z</time>
      </trkpt>
      <trkpt lat="40.21542" lon="-8.435773">
        <ele>22.892102</ele>
        <time>2024-06-22T10:47:47.000Z</time>
      </trkpt>
      <trkpt lat="40.215412" lon="-8.435716">
        <ele>22.899748</ele>
        <time>2024-06-22T10:47:47.000Z</time>
      </trkpt>
      <trkpt lat="40.215288" lon="-8.435542">
        <ele>22.932208</ele>
        <time>2024-06-22T10:47:49.000Z</time>
      </trkpt>
      <trkpt lat="40.21427" lon="-8.434563">
        <ele>23.176882</ele>
        <time>2024-06-22T10:48:03.000Z</time>
      </trkpt>
      <trkpt lat="40.213831" lon="-8.43413">
        <ele>23.434927</ele>
        <time>2024-06-22T10:48:09.000Z</time>
      </trkpt>
      <trkpt lat="40.213581" lon="-8.433882">
        <ele>23.587359</ele>
        <time>2024-06-22T10:48:12.000Z</time>
      </trkpt>
      <trkpt lat="40.213481" lon="-8.433816">
        <ele>23.640665</ele>
        <time>2024-06-22T10:48:13.000Z</time>
      </trkpt>
      <trkpt lat="40.213453" lon="-8.433812">
        <ele>23.654024</ele>
        <time>2024-06-22T10:48:13.000Z</time>
      </trkpt>
      <trkpt lat="40.213042" lon="-8.433436">
        <ele>23.890485</ele>
        <time>2024-06-22T10:48:19.000Z</time>
      </trkpt>
      <trkpt lat="40.212998" lon="-8.433355">
        <ele>23.926569</ele>
        <time>2024-06-22T10:48:20.000Z</time>
      </trkpt>
      <trkpt lat="40.212885" lon="-8.433332">
        <ele>23.985351</ele>
        <time>2024-06-22T10:48:21.000Z</time>
      </trkpt>
      <trkpt lat="40.212655" lon="-8.43321">
        <ele>23.936438</ele>
        <time>2024-06-22T10:48:24.000Z</time>
      </trkpt>
      <trkpt lat="40.212511" lon="-8.433109">
        <ele>23.896445</ele>
        <time>2024-06-22T10:48:26.000Z</time>
      </trkpt>
      <trkpt lat="40.211428" lon="-8.432518">
        <ele>23.607003</ele>
        <time>2024-06-22T10:48:39.000Z</time>
      </trkpt>
      <trkpt lat="40.210886" lon="-8.432236">
        <ele>23.173964</ele>
        <time>2024-06-22T10:48:45.000Z</time>
      </trkpt>
      <trkpt lat="40.21081" lon="-8.432187">
        <ele>23.08612</ele>
        <time>2024-06-22T10:48:46.000Z</time>
      </trkpt>
      <trkpt lat="40.210492" lon="-8.432013">
        <ele>22.712594</ele>
        <time>2024-06-22T10:48:50.000Z</time>
      </trkpt>
      <trkpt lat="40.210285" lon="-8.431902">
        <ele>22.473601</ele>
        <time>2024-06-22T10:48:52.000Z</time>
      </trkpt>
      <trkpt lat="40.210045" lon="-8.43177">
        <ele>22.185933</ele>
        <time>2024-06-22T10:48:55.000Z</time>
      </trkpt>
      <trkpt lat="40.209794" lon="-8.431636">
        <ele>21.889594</ele>
        <time>2024-06-22T10:48:58.000Z</time>
      </trkpt>
      <trkpt lat="40.209672" lon="-8.431568">
        <ele>21.736141</ele>
        <time>2024-06-22T10:48:59.000Z</time>
      </trkpt>
      <trkpt lat="40.20957" lon="-8.431609">
        <ele>21.623265</ele>
        <time>2024-06-22T10:49:00.000Z</time>
      </trkpt>
      <trkpt lat="40.209509" lon="-8.431635">
        <ele>21.573433</ele>
        <time>2024-06-22T10:49:01.000Z</time>
      </trkpt>
      <trkpt lat="40.209351" lon="-8.43218">
        <ele>21.22458</ele>
        <time>2024-06-22T10:49:06.000Z</time>
      </trkpt>
      <trkpt lat="40.209289" lon="-8.432202">
        <ele>21.174425</ele>
        <time>2024-06-22T10:49:07.000Z</time>
      </trkpt>
      <trkpt lat="40.208931" lon="-8.431742">
        <ele>20.784703</ele>
        <time>2024-06-22T10:49:13.000Z</time>
      </trkpt>
      <trkpt lat="40.208839" lon="-8.431756">
        <ele>20.716491</ele>
        <time>2024-06-22T10:49:14.000Z</time>
      </trkpt>
      <trkpt lat="40.208735" lon="-8.431798">
        <ele>20.628104</ele>
        <time>2024-06-22T10:49:15.000Z</time>
      </trkpt>
      <trkpt lat="40.208674" lon="-8.43187">
        <ele>20.56766</ele>
        <time>2024-06-22T10:49:16.000Z</time>
      </trkpt>
      <trkpt lat="40.208619" lon="-8.431936">
        <ele>20.51249</ele>
        <time>2024-06-22T10:49:17.000Z</time>
      </trkpt>
      <trkpt lat="40.208497" lon="-8.432016">
        <ele>20.40381</ele>
        <time>2024-06-22T10:49:19.000Z</time>
      </trkpt>
      <trkpt lat="40.208399" lon="-8.432012">
        <ele>20.323083</ele>
        <time>2024-06-22T10:49:20.000Z</time>
      </trkpt>
      <trkpt lat="40.208156" lon="-8.431729">
        <ele>20.234741</ele>
        <time>2024-06-22T10:49:24.000Z</time>
      </trkpt>
      <trkpt lat="40.208003" lon="-8.431565">
        <ele>20.276816</ele>
        <time>2024-06-22T10:49:26.000Z</time>
      </trkpt>
      <trkpt lat="40.207871" lon="-8.431436">
        <ele>20.314003</ele>
        <time>2024-06-22T10:49:28.000Z</time>
      </trkpt>
      <trkpt lat="40.207754" lon="-8.431293">
        <ele>20.348939</ele>
        <time>2024-06-22T10:49:30.000Z</time>
      </trkpt>
      <trkpt lat="40.207691" lon="-8.431172">
        <ele>20.374978</ele>
        <time>2024-06-22T10:49:31.000Z</time>
      </trkpt>
      <trkpt lat="40.207429" lon="-8.430762">
        <ele>20.4603</ele>
        <time>2024-06-22T10:49:36.000Z</time>
      </trkpt>
      <trkpt lat="40.207375" lon="-8.430601">
        <ele>20.489428</ele>
        <time>2024-06-22T10:49:37.000Z</time>
      </trkpt>
      <trkpt lat="40.207358" lon="-8.43042">
        <ele>20.521206</ele>
        <time>2024-06-22T10:49:39.000Z</time>
      </trkpt>
      <trkpt lat="40.207342" lon="-8.430193">
        <ele>20.558167</ele>
        <time>2024-06-22T10:49:41.000Z</time>
      </trkpt>
      <trkpt lat="40.207222" lon="-8.429944">
        <ele>20.655235</ele>
        <time>2024-06-22T10:49:44.000Z</time>
      </trkpt>
      <trkpt lat="40.20713" lon="-8.429798">
        <ele>20.777569</ele>
        <time>2024-06-22T10:49:46.000Z</time>
      </trkpt>
      <trkpt lat="40.207012" lon="-8.429608">
        <ele>20.956266</ele>
        <time>2024-06-22T10:49:48.000Z</time>
      </trkpt>
      <trkpt lat="40.206863" lon="-8.429403">
        <ele>21.140422</ele>
        <time>2024-06-22T10:49:50.000Z</time>
      </trkpt>
      <trkpt lat="40.206771" lon="-8.429251">
        <ele>21.27395</ele>
        <time>2024-06-22T10:49:52.000Z</time>
      </trkpt>
      <trkpt lat="40.206704" lon="-8.429149">
        <ele>21.360279</ele>
        <time>2024-06-22T10:49:53.000Z</time>
      </trkpt>
      <trkpt lat="40.206532" lon="-8.428928">
        <ele>21.585473</ele>
        <time>2024-06-22T10:49:56.000Z</time>
      </trkpt>
      <trkpt lat="40.205469" lon="-8.427463">
        <ele>22.456879</ele>
        <time>2024-06-22T10:50:13.000Z</time>
      </trkpt>
      <trkpt lat="40.204721" lon="-8.4264">
        <ele>22.627085</ele>
        <time>2024-06-22T10:50:25.000Z</time>
      </trkpt>
      <trkpt lat="40.204263" lon="-8.425767">
        <ele>22.101849</ele>
        <time>2024-06-22T10:50:32.000Z</time>
      </trkpt>
      <trkpt lat="40.204157" lon="-8.425658">
        <ele>21.982425</ele>
        <time>2024-06-22T10:50:33.000Z</time>
      </trkpt>
      <trkpt lat="40.204122" lon="-8.425643">
        <ele>21.956213</ele>
        <time>2024-06-22T10:50:33.000Z</time>
      </trkpt>
      <trkpt lat="40.20405" lon="-8.425612">
        <ele>21.899887</ele>
        <time>2024-06-22T10:50:34.000Z</time>
      </trkpt>
      <trkpt lat="40.203716" lon="-8.425233">
        <ele>21.549558</ele>
        <time>2024-06-22T10:50:39.000Z</time>
      </trkpt>
      <trkpt lat="40.203618" lon="-8.425171">
        <ele>21.460184</ele>
        <time>2024-06-22T10:50:40.000Z</time>
      </trkpt>
      <trkpt lat="40.20325" lon="-8.424918">
        <ele>21.198163</ele>
        <time>2024-06-22T10:50:45.000Z</time>
      </trkpt>
      <trkpt lat="40.202902" lon="-8.424749">
        <ele>21.015227</ele>
        <time>2024-06-22T10:50:49.000Z</time>
      </trkpt>
      <trkpt lat="40.201699" lon="-8.42428">
        <ele>20.438187</ele>
        <time>2024-06-22T10:51:03.000Z</time>
      </trkpt>
      <trkpt lat="40.200966" lon="-8.423911">
        <ele>20.678556</ele>
        <time>2024-06-22T10:51:12.000Z</time>
      </trkpt>
      <trkpt lat="40.199962" lon="-8.423313">
        <ele>21.117104</ele>
        <time>2024-06-22T10:51:24.000Z</time>
      </trkpt>
      <trkpt lat="40.199571" lon="-8.423024">
        <ele>21.485648</ele>
        <time>2024-06-22T10:51:29.000Z</time>
      </trkpt>
      <trkpt lat="40.199555" lon="-8.423025">
        <ele>21.491215</ele>
        <time>2024-06-22T10:51:29.000Z</time>
      </trkpt>
      <trkpt lat="40.19947" lon="-8.422934">
        <ele>21.587933</ele>
        <time>2024-06-22T10:51:30.000Z</time>
      </trkpt>
      <trkpt lat="40.199263" lon="-8.422765">
        <ele>21.782994</ele>
        <time>2024-06-22T10:51:33.000Z</time>
      </trkpt>
      <trkpt lat="40.199064" lon="-8.422553">
        <ele>21.992104</ele>
        <time>2024-06-22T10:51:36.000Z</time>
      </trkpt>
      <trkpt lat="40.198869" lon="-8.422251">
        <ele>22.239825</ele>
        <time>2024-06-22T10:51:39.000Z</time>
      </trkpt>
      <trkpt lat="40.198437" lon="-8.42168">
        <ele>22.883137</ele>
        <time>2024-06-22T10:51:46.000Z</time>
      </trkpt>
      <trkpt lat="40.198208" lon="-8.42143">
        <ele>23.251139</ele>
        <time>2024-06-22T10:51:49.000Z</time>
      </trkpt>
      <trkpt lat="40.197846" lon="-8.421236">
        <ele>23.713969</ele>
        <time>2024-06-22T10:51:53.000Z</time>
      </trkpt>
      <trkpt lat="40.19722" lon="-8.421112">
        <ele>24.477296</ele>
        <time>2024-06-22T10:52:00.000Z</time>
      </trkpt>
      <trkpt lat="40.197062" lon="-8.421031">
        <ele>24.711304</ele>
        <time>2024-06-22T10:52:02.000Z</time>
      </trkpt>
      <trkpt lat="40.196973" lon="-8.421036">
        <ele>24.903338</ele>
        <time>2024-06-22T10:52:03.000Z</time>
      </trkpt>
      <trkpt lat="40.196976" lon="-8.42103">
        <ele>24.907468</ele>
        <time>2024-06-22T10:52:03.000Z</time>
      </trkpt>
      <trkpt lat="40.196966" lon="-8.421041">
        <ele>24.915865</ele>
        <time>2024-06-22T10:52:03.000Z</time>
      </trkpt>
      <trkpt lat="40.196307" lon="-8.421016">
        <ele>26.272482</ele>
        <time>2024-06-22T10:52:10.000Z</time>
      </trkpt>
      <trkpt lat="40.195691" lon="-8.420967">
        <ele>27.524135</ele>
        <time>2024-06-22T10:52:17.000Z</time>
      </trkpt>
      <trkpt lat="40.19559" lon="-8.420967">
        <ele>27.769735</ele>
        <time>2024-06-22T10:52:18.000Z</time>
      </trkpt>
      <trkpt lat="40.194789" lon="-8.420942">
        <ele>28.724161</ele>
        <time>2024-06-22T10:52:27.000Z</time>
      </trkpt>
      <trkpt lat="40.194463" lon="-8.420926">
        <ele>28.967066</ele>
        <time>2024-06-22T10:52:31.000Z</time>
      </trkpt>
      <trkpt lat="40.193777" lon="-8.42088">
        <ele>29.489437</ele>
        <time>2024-06-22T10:52:39.000Z</time>
      </trkpt>
      <trkpt lat="40.193497" lon="-8.42072">
        <ele>29.711314</ele>
        <time>2024-06-22T10:52:42.000Z</time>
      </trkpt>
      <trkpt lat="40.193219" lon="-8.420462">
        <ele>30.023659</ele>
        <time>2024-06-22T10:52:46.000Z</time>
      </trkpt>
      <trkpt lat="40.193067" lon="-8.420389">
        <ele>30.153262</ele>
        <time>2024-06-22T10:52:48.000Z</time>
      </trkpt>
      <trkpt lat="40.193003" lon="-8.420383">
        <ele>30.222259</ele>
        <time>2024-06-22T10:52:49.000Z</time>
      </trkpt>
      <trkpt lat="40.192921" lon="-8.420442">
        <ele>30.305693</ele>
        <time>2024-06-22T10:52:50.000Z</time>
      </trkpt>
      <trkpt lat="40.192817" lon="-8.420443">
        <ele>30.389895</ele>
        <time>2024-06-22T10:52:51.000Z</time>
      </trkpt>
      <trkpt lat="40.192733" lon="-8.420423">
        <ele>30.473105</ele>
        <time>2024-06-22T10:52:52.000Z</time>
      </trkpt>
      <trkpt lat="40.192086" lon="-8.420494">
        <ele>31.045582</ele>
        <time>2024-06-22T10:52:59.000Z</time>
      </trkpt>
      <trkpt lat="40.191208" lon="-8.42062">
        <ele>31.917643</ele>
        <time>2024-06-22T10:53:09.000Z</time>
      </trkpt>
      <trkpt lat="40.191213" lon="-8.42063">
        <ele>31.917654</ele>
        <time>2024-06-22T10:53:09.000Z</time>
      </trkpt>
      <trkpt lat="40.191214" lon="-8.420628">
        <ele>31.917652</ele>
        <time>2024-06-22T10:53:09.000Z</time>
      </trkpt>
      <trkpt lat="40.190377" lon="-8.420823">
        <ele>32.811292</ele>
        <time>2024-06-22T10:53:18.000Z</time>
      </trkpt>
      <trkpt lat="40.189709" lon="-8.420931">
        <ele>32.731752</ele>
        <time>2024-06-22T10:53:25.000Z</time>
      </trkpt>
      <trkpt lat="40.189083" lon="-8.420957">
        <ele>31.940117</ele>
        <time>2024-06-22T10:53:32.000Z</time>
      </trkpt>
      <trkpt lat="40.188551" lon="-8.420888">
        <ele>31.263659</ele>
        <time>2024-06-22T10:53:38.000Z</time>
      </trkpt>
      <trkpt lat="40.188075" lon="-8.420795">
        <ele>30.497318</ele>
        <time>2024-06-22T10:53:43.000Z</time>
      </trkpt>
      <trkpt lat="40.187929" lon="-8.420742">
        <ele>30.149833</ele>
        <time>2024-06-22T10:53:45.000Z</time>
      </trkpt>
      <trkpt lat="40.187654" lon="-8.420652">
        <ele>29.535889</ele>
        <time>2024-06-22T10:53:48.000Z</time>
      </trkpt>
      <trkpt lat="40.187385" lon="-8.42053">
        <ele>28.927874</ele>
        <time>2024-06-22T10:53:51.000Z</time>
      </trkpt>
      <trkpt lat="40.187048" lon="-8.420364">
        <ele>28.103892</ele>
        <time>2024-06-22T10:53:55.000Z</time>
      </trkpt>
      <trkpt lat="40.186578" lon="-8.420047">
        <ele>26.963529</ele>
        <time>2024-06-22T10:54:01.000Z</time>
      </trkpt>
      <trkpt lat="40.186102" lon="-8.419644">
        <ele>26.181437</ele>
        <time>2024-06-22T10:54:07.000Z</time>
      </trkpt>
      <trkpt lat="40.185686" lon="-8.419234">
        <ele>25.464564</ele>
        <time>2024-06-22T10:54:13.000Z</time>
      </trkpt>
      <trkpt lat="40.185174" lon="-8.418567">
        <ele>24.460808</ele>
        <time>2024-06-22T10:54:21.000Z</time>
      </trkpt>
      <trkpt lat="40.185026" lon="-8.41837">
        <ele>24.443146</ele>
        <time>2024-06-22T10:54:23.000Z</time>
      </trkpt>
      <trkpt lat="40.184908" lon="-8.418172">
        <ele>24.427301</ele>
        <time>2024-06-22T10:54:25.000Z</time>
      </trkpt>
      <trkpt lat="40.184913" lon="-8.418163">
        <ele>24.427048</ele>
        <time>2024-06-22T10:54:25.000Z</time>
      </trkpt>
      <trkpt lat="40.184902" lon="-8.41816">
        <ele>24.426898</ele>
        <time>2024-06-22T10:54:25.000Z</time>
      </trkpt>
      <trkpt lat="40.1849" lon="-8.418165">
        <ele>24.426837</ele>
        <time>2024-06-22T10:54:25.000Z</time>
      </trkpt>
      <trkpt lat="40.184728" lon="-8.417884">
        <ele>24.404629</ele>
        <time>2024-06-22T10:54:28.000Z</time>
      </trkpt>
      <trkpt lat="40.184306" lon="-8.417109">
        <ele>24.344594</ele>
        <time>2024-06-22T10:54:36.000Z</time>
      </trkpt>
      <trkpt lat="40.184006" lon="-8.416504">
        <ele>24.344256</ele>
        <time>2024-06-22T10:54:42.000Z</time>
      </trkpt>
      <trkpt lat="40.183722" lon="-8.415768">
        <ele>24.456714</ele>
        <time>2024-06-22T10:54:49.000Z</time>
      </trkpt>
      <trkpt lat="40.183334" lon="-8.414542">
        <ele>24.635664</ele>
        <time>2024-06-22T10:55:00.000Z</time>
      </trkpt>
      <trkpt lat="40.183217" lon="-8.414104">
        <ele>24.619264</ele>
        <time>2024-06-22T10:55:04.000Z</time>
      </trkpt>
      <trkpt lat="40.183116" lon="-8.413672">
        <ele>24.602635</ele>
        <time>2024-06-22T10:55:08.000Z</time>
      </trkpt>
      <trkpt lat="40.182833" lon="-8.412232">
        <ele>24.55406</ele>
        <time>2024-06-22T10:55:21.000Z</time>
      </trkpt>
      <trkpt lat="40.182689" lon="-8.411303">
        <ele>24.604383</ele>
        <time>2024-06-22T10:55:29.000Z</time>
      </trkpt>
      <trkpt lat="40.182615" lon="-8.410564">
        <ele>24.6453</ele>
        <time>2024-06-22T10:55:35.000Z</time>
      </trkpt>
      <trkpt lat="40.182526" lon="-8.409398">
        <ele>24.623676</ele>
        <time>2024-06-22T10:55:45.000Z</time>
      </trkpt>
      <trkpt lat="40.182494" lon="-8.408275">
        <ele>24.523287</ele>
        <time>2024-06-22T10:55:55.000Z</time>
      </trkpt>
      <trkpt lat="40.182527" lon="-8.407076">
        <ele>24.471714</ele>
        <time>2024-06-22T10:56:05.000Z</time>
      </trkpt>
      <trkpt lat="40.182644" lon="-8.405633">
        <ele>24.492267</ele>
        <time>2024-06-22T10:56:17.000Z</time>
      </trkpt>
      <trkpt lat="40.182752" lon="-8.404618">
        <ele>24.578783</ele>
        <time>2024-06-22T10:56:26.000Z</time>
      </trkpt>
      <trkpt lat="40.18301" lon="-8.403136">
        <ele>24.763488</ele>
        <time>2024-06-22T10:56:39.000Z</time>
      </trkpt>
      <trkpt lat="40.183077" lon="-8.402896">
        <ele>24.805806</ele>
        <time>2024-06-22T10:56:41.000Z</time>
      </trkpt>
      <trkpt lat="40.183097" lon="-8.402771">
        <ele>24.838947</ele>
        <time>2024-06-22T10:56:42.000Z</time>
      </trkpt>
      <trkpt lat="40.183156" lon="-8.402525">
        <ele>24.900864</ele>
        <time>2024-06-22T10:56:44.000Z</time>
      </trkpt>
      <trkpt lat="40.183777" lon="-8.400303">
        <ele>25.402596</ele>
        <time>2024-06-22T10:57:04.000Z</time>
      </trkpt>
      <trkpt lat="40.184298" lon="-8.398442">
        <ele>25.594996</ele>
        <time>2024-06-22T10:57:21.000Z</time>
      </trkpt>
      <trkpt lat="40.184444" lon="-8.39793">
        <ele>25.655633</ele>
        <time>2024-06-22T10:57:26.000Z</time>
      </trkpt>
      <trkpt lat="40.184643" lon="-8.397625">
        <ele>25.698984</ele>
        <time>2024-06-22T10:57:29.000Z</time>
      </trkpt>
      <trkpt lat="40.184672" lon="-8.397652">
        <ele>25.704444</ele>
        <time>2024-06-22T10:57:29.000Z</time>
      </trkpt>
      <trkpt lat="40.18467" lon="-8.397667">
        <ele>25.706075</ele>
        <time>2024-06-22T10:57:29.000Z</time>
      </trkpt>
      <trkpt lat="40.184699" lon="-8.397696">
        <ele>25.71068</ele>
        <time>2024-06-22T10:57:29.000Z</time>
      </trkpt>
      <trkpt lat="40.184624" lon="-8.397797">
        <ele>25.72615</ele>
        <time>2024-06-22T10:57:30.000Z</time>
      </trkpt>
      <trkpt lat="40.184533" lon="-8.397971">
        <ele>25.749251</ele>
        <time>2024-06-22T10:57:32.000Z</time>
      </trkpt>
      <trkpt lat="40.184374" lon="-8.398498">
        <ele>25.809278</ele>
        <time>2024-06-22T10:57:37.000Z</time>
      </trkpt>
      <trkpt lat="40.183853" lon="-8.400322">
        <ele>25.70709</ele>
        <time>2024-06-22T10:57:54.000Z</time>
      </trkpt>
      <trkpt lat="40.183238" lon="-8.402555">
        <ele>25.095817</ele>
        <time>2024-06-22T10:58:14.000Z</time>
      </trkpt>
      <trkpt lat="40.183175" lon="-8.402795">
        <ele>25.010313</ele>
        <time>2024-06-22T10:58:16.000Z</time>
      </trkpt>
      <trkpt lat="40.183158" lon="-8.402923">
        <ele>24.96549</ele>
        <time>2024-06-22T10:58:17.000Z</time>
      </trkpt>
      <trkpt lat="40.183096" lon="-8.403174">
        <ele>24.88125</ele>
        <time>2024-06-22T10:58:19.000Z</time>
      </trkpt>
      <trkpt lat="40.183072" lon="-8.403271">
        <ele>24.869115</ele>
        <time>2024-06-22T10:58:20.000Z</time>
      </trkpt>
      <trkpt lat="40.183082" lon="-8.403279">
        <ele>24.868943</ele>
        <time>2024-06-22T10:58:20.000Z</time>
      </trkpt>
      <trkpt lat="40.183081" lon="-8.403265">
        <ele>24.868717</ele>
        <time>2024-06-22T10:58:20.000Z</time>
      </trkpt>
      <trkpt lat="40.183073" lon="-8.403264">
        <ele>24.868619</ele>
        <time>2024-06-22T10:58:20.000Z</time>
      </trkpt>
      <trkpt lat="40.18293" lon="-8.404103">
        <ele>24.7776</ele>
        <time>2024-06-22T10:58:27.000Z</time>
      </trkpt>
      <trkpt lat="40.182755" lon="-8.405148">
        <ele>24.664301</ele>
        <time>2024-06-22T10:58:36.000Z</time>
      </trkpt>
      <trkpt lat="40.182723" lon="-8.405649">
        <ele>24.648321</ele>
        <time>2024-06-22T10:58:40.000Z</time>
      </trkpt>
      <trkpt lat="40.182647" lon="-8.406409">
        <ele>24.743201</ele>
        <time>2024-06-22T10:58:47.000Z</time>
      </trkpt>
      <trkpt lat="40.182606" lon="-8.407086">
        <ele>24.825114</ele>
        <time>2024-06-22T10:58:53.000Z</time>
      </trkpt>
      <trkpt lat="40.182582" lon="-8.408275">
        <ele>24.94476</ele>
        <time>2024-06-22T10:59:03.000Z</time>
      </trkpt>
      <trkpt lat="40.182605" lon="-8.409389">
        <ele>25.011737</ele>
        <time>2024-06-22T10:59:12.000Z</time>
      </trkpt>
      <trkpt lat="40.182686" lon="-8.410554">
        <ele>25.027615</ele>
        <time>2024-06-22T10:59:22.000Z</time>
      </trkpt>
      <trkpt lat="40.182782" lon="-8.411301">
        <ele>24.962336</ele>
        <time>2024-06-22T10:59:28.000Z</time>
      </trkpt>
      <trkpt lat="40.182913" lon="-8.412208">
        <ele>24.880698</ele>
        <time>2024-06-22T10:59:36.000Z</time>
      </trkpt>
      <trkpt lat="40.183018" lon="-8.412797">
        <ele>24.883408</ele>
        <time>2024-06-22T10:59:41.000Z</time>
      </trkpt>
      <trkpt lat="40.183213" lon="-8.413657">
        <ele>24.968368</ele>
        <time>2024-06-22T10:59:49.000Z</time>
      </trkpt>
      <trkpt lat="40.183409" lon="-8.414504">
        <ele>25.053962</ele>
        <time>2024-06-22T10:59:57.000Z</time>
      </trkpt>
      <trkpt lat="40.183595" lon="-8.415191">
        <ele>25.012382</ele>
        <time>2024-06-22T11:00:03.000Z</time>
      </trkpt>
      <trkpt lat="40.183838" lon="-8.415897">
        <ele>24.895903</ele>
        <time>2024-06-22T11:00:10.000Z</time>
      </trkpt>
      <trkpt lat="40.184335" lon="-8.41705">
        <ele>24.780912</ele>
        <time>2024-06-22T11:00:21.000Z</time>
      </trkpt>
      <trkpt lat="40.184535" lon="-8.41743">
        <ele>24.909046</ele>
        <time>2024-06-22T11:00:25.000Z</time>
      </trkpt>
      <trkpt lat="40.184537" lon="-8.417426">
        <ele>24.909477</ele>
        <time>2024-06-22T11:00:25.000Z</time>
      </trkpt>
      <trkpt lat="40.184539" lon="-8.417442">
        <ele>24.9112</ele>
        <time>2024-06-22T11:00:25.000Z</time>
      </trkpt>
      <trkpt lat="40.184553" lon="-8.417446">
        <ele>24.911467</ele>
        <time>2024-06-22T11:00:25.000Z</time>
      </trkpt>
      <trkpt lat="40.184599" lon="-8.417552">
        <ele>24.947185</ele>
        <time>2024-06-22T11:00:26.000Z</time>
      </trkpt>
      <trkpt lat="40.185072" lon="-8.418305">
        <ele>25.206573</ele>
        <time>2024-06-22T11:00:34.000Z</time>
      </trkpt>
      <trkpt lat="40.185219" lon="-8.418512">
        <ele>25.286622</ele>
        <time>2024-06-22T11:00:36.000Z</time>
      </trkpt>
      <trkpt lat="40.185695" lon="-8.41909">
        <ele>26.111212</ele>
        <time>2024-06-22T11:00:43.000Z</time>
      </trkpt>
      <trkpt lat="40.18627" lon="-8.419664">
        <ele>27.336167</ele>
        <time>2024-06-22T11:00:51.000Z</time>
      </trkpt>
      <trkpt lat="40.187029" lon="-8.420236">
        <ele>28.939701</ele>
        <time>2024-06-22T11:01:01.000Z</time>
      </trkpt>
      <trkpt lat="40.187418" lon="-8.420439">
        <ele>29.795185</ele>
        <time>2024-06-22T11:01:06.000Z</time>
      </trkpt>
      <trkpt lat="40.187676" lon="-8.420544">
        <ele>30.370859</ele>
        <time>2024-06-22T11:01:09.000Z</time>
      </trkpt>
      <trkpt lat="40.188114" lon="-8.420688">
        <ele>31.336664</ele>
        <time>2024-06-22T11:01:14.000Z</time>
      </trkpt>
      <trkpt lat="40.188558" lon="-8.420809">
        <ele>32.242274</ele>
        <time>2024-06-22T11:01:19.000Z</time>
      </trkpt>
      <trkpt lat="40.18908" lon="-8.420866">
        <ele>32.716783</ele>
        <time>2024-06-22T11:01:25.000Z</time>
      </trkpt>
      <trkpt lat="40.189371" lon="-8.420847">
        <ele>32.971051</ele>
        <time>2024-06-22T11:01:28.000Z</time>
      </trkpt>
      <trkpt lat="40.189693" lon="-8.420833">
        <ele>33.275046</ele>
        <time>2024-06-22T11:01:32.000Z</time>
      </trkpt>
      <trkpt lat="40.190382" lon="-8.420733">
        <ele>33.748547</ele>
        <time>2024-06-22T11:01:40.000Z</time>
      </trkpt>
      <trkpt lat="40.190517" lon="-8.420715">
        <ele>33.46984</ele>
        <time>2024-06-22T11:01:42.000Z</time>
      </trkpt>
      <trkpt lat="40.19078" lon="-8.42067">
        <ele>32.964265</ele>
        <time>2024-06-22T11:01:45.000Z</time>
      </trkpt>
      <trkpt lat="40.191775" lon="-8.42052">
        <ele>31.06429</ele>
        <time>2024-06-22T11:01:56.000Z</time>
      </trkpt>
      <trkpt lat="40.192075" lon="-8.420542">
        <ele>30.511216</ele>
        <time>2024-06-22T11:01:59.000Z</time>
      </trkpt>
      <trkpt lat="40.192493" lon="-8.420676">
        <ele>29.295979</ele>
        <time>2024-06-22T11:02:04.000Z</time>
      </trkpt>
      <trkpt lat="40.192725" lon="-8.420829">
        <ele>28.57101</ele>
        <time>2024-06-22T11:02:07.000Z</time>
      </trkpt>
      <trkpt lat="40.192835" lon="-8.420938">
        <ele>28.176831</ele>
        <time>2024-06-22T11:02:09.000Z</time>
      </trkpt>
      <trkpt lat="40.192961" lon="-8.421183">
        <ele>27.519059</ele>
        <time>2024-06-22T11:02:12.000Z</time>
      </trkpt>
      <trkpt lat="40.193011" lon="-8.421404">
        <ele>27.029122</ele>
        <time>2024-06-22T11:02:14.000Z</time>
      </trkpt>
      <trkpt lat="40.193004" lon="-8.42158">
        <ele>26.656281</ele>
        <time>2024-06-22T11:02:15.000Z</time>
      </trkpt>
      <trkpt lat="40.192952" lon="-8.42185">
        <ele>26.052348</ele>
        <time>2024-06-22T11:02:17.000Z</time>
      </trkpt>
      <trkpt lat="40.192832" lon="-8.422178">
        <ele>25.24105</ele>
        <time>2024-06-22T11:02:20.000Z</time>
      </trkpt>
      <trkpt lat="40.19283" lon="-8.422289">
        <ele>25.109301</ele>
        <time>2024-06-22T11:02:21.000Z</time>
      </trkpt>
      <trkpt lat="40.192823" lon="-8.422899">
        <ele>24.322477</ele>
        <time>2024-06-22T11:02:26.000Z</time>
      </trkpt>
      <trkpt lat="40.19281" lon="-8.422904">
        <ele>24.322483</ele>
        <time>2024-06-22T11:02:26.000Z</time>
      </trkpt>
      <trkpt lat="40.192815" lon="-8.422899">
        <ele>24.322481</ele>
        <time>2024-06-22T11:02:26.000Z</time>
      </trkpt>
      <trkpt lat="40.192792" lon="-8.423996">
        <ele>22.945965</ele>
        <time>2024-06-22T11:02:35.000Z</time>
      </trkpt>
      <trkpt lat="40.19276" lon="-8.425075">
        <ele>23.123655</ele>
        <time>2024-06-22T11:02:44.000Z</time>
      </trkpt>
      <trkpt lat="40.192736" lon="-8.426155">
        <ele>24.729727</ele>
        <time>2024-06-22T11:02:53.000Z</time>
      </trkpt>
      <trkpt lat="40.192705" lon="-8.42724">
        <ele>27.095736</ele>
        <time>2024-06-22T11:03:02.000Z</time>
      </trkpt>
      <trkpt lat="40.192592" lon="-8.428057">
        <ele>29.970226</ele>
        <time>2024-06-22T11:03:09.000Z</time>
      </trkpt>
      <trkpt lat="40.192336" lon="-8.428678">
        <ele>32.402687</ele>
        <time>2024-06-22T11:03:15.000Z</time>
      </trkpt>
      <trkpt lat="40.191842" lon="-8.42961">
        <ele>35.423094</ele>
        <time>2024-06-22T11:03:25.000Z</time>
      </trkpt>
      <trkpt lat="40.191695" lon="-8.430229">
        <ele>36.862477</ele>
        <time>2024-06-22T11:03:31.000Z</time>
      </trkpt>
      <trkpt lat="40.191752" lon="-8.430719">
        <ele>37.985706</ele>
        <time>2024-06-22T11:03:35.000Z</time>
      </trkpt>
      <trkpt lat="40.191848" lon="-8.43094">
        <ele>38.542959</ele>
        <time>2024-06-22T11:03:37.000Z</time>
      </trkpt>
      <trkpt lat="40.191912" lon="-8.431138">
        <ele>39.010768</ele>
        <time>2024-06-22T11:03:39.000Z</time>
      </trkpt>
      <trkpt lat="40.192023" lon="-8.431344">
        <ele>38.730243</ele>
        <time>2024-06-22T11:03:41.000Z</time>
      </trkpt>
      <trkpt lat="40.192148" lon="-8.431486">
        <ele>38.285378</ele>
        <time>2024-06-22T11:03:43.000Z</time>
      </trkpt>
      <trkpt lat="40.192344" lon="-8.431669">
        <ele>37.6493</ele>
        <time>2024-06-22T11:03:46.000Z</time>
      </trkpt>
      <trkpt lat="40.192663" lon="-8.431883">
        <ele>36.702797</ele>
        <time>2024-06-22T11:03:50.000Z</time>
      </trkpt>
      <trkpt lat="40.192952" lon="-8.432023">
        <ele>35.883332</ele>
        <time>2024-06-22T11:03:53.000Z</time>
      </trkpt>
      <trkpt lat="40.193199" lon="-8.432115">
        <ele>35.204653</ele>
        <time>2024-06-22T11:03:56.000Z</time>
      </trkpt>
      <trkpt lat="40.193709" lon="-8.432197">
        <ele>33.612644</ele>
        <time>2024-06-22T11:04:02.000Z</time>
      </trkpt>
      <trkpt lat="40.194424" lon="-8.432228">
        <ele>30.816908</ele>
        <time>2024-06-22T11:04:10.000Z</time>
      </trkpt>
      <trkpt lat="40.194744" lon="-8.432117">
        <ele>29.54796</ele>
        <time>2024-06-22T11:04:14.000Z</time>
      </trkpt>
      <trkpt lat="40.195117" lon="-8.431915">
        <ele>28.027951</ele>
        <time>2024-06-22T11:04:18.000Z</time>
      </trkpt>
      <trkpt lat="40.195515" lon="-8.43162">
        <ele>26.681114</ele>
        <time>2024-06-22T11:04:23.000Z</time>
      </trkpt>
      <trkpt lat="40.195869" lon="-8.43126">
        <ele>25.59726</ele>
        <time>2024-06-22T11:04:28.000Z</time>
      </trkpt>
      <trkpt lat="40.195873" lon="-8.430994">
        <ele>25.089481</ele>
        <time>2024-06-22T11:04:30.000Z</time>
      </trkpt>
      <trkpt lat="40.195947" lon="-8.430764">
        <ele>24.643611</ele>
        <time>2024-06-22T11:04:32.000Z</time>
      </trkpt>
      <trkpt lat="40.196024" lon="-8.430689">
        <ele>24.419919</ele>
        <time>2024-06-22T11:04:33.000Z</time>
      </trkpt>
      <trkpt lat="40.196158" lon="-8.430598">
        <ele>24.042427</ele>
        <time>2024-06-22T11:04:35.000Z</time>
      </trkpt>
      <trkpt lat="40.196319" lon="-8.430567">
        <ele>23.636175</ele>
        <time>2024-06-22T11:04:37.000Z</time>
      </trkpt>
      <trkpt lat="40.196482" lon="-8.430629">
        <ele>23.228815</ele>
        <time>2024-06-22T11:04:39.000Z</time>
      </trkpt>
      <trkpt lat="40.196558" lon="-8.4307">
        <ele>23.051957</ele>
        <time>2024-06-22T11:04:40.000Z</time>
      </trkpt>
      <trkpt lat="40.196802" lon="-8.430664">
        <ele>22.843606</ele>
        <time>2024-06-22T11:04:43.000Z</time>
      </trkpt>
      <trkpt lat="40.196992" lon="-8.430629">
        <ele>22.68005</ele>
        <time>2024-06-22T11:04:45.000Z</time>
      </trkpt>
      <trkpt lat="40.197999" lon="-8.429914">
        <ele>21.722061</ele>
        <time>2024-06-22T11:04:58.000Z</time>
      </trkpt>
      <trkpt lat="40.198298" lon="-8.429729">
        <ele>21.543545</ele>
        <time>2024-06-22T11:05:02.000Z</time>
      </trkpt>
      <trkpt lat="40.198686" lon="-8.42961">
        <ele>21.521511</ele>
        <time>2024-06-22T11:05:06.000Z</time>
      </trkpt>
      <trkpt lat="40.199093" lon="-8.429632">
        <ele>21.499617</ele>
        <time>2024-06-22T11:05:11.000Z</time>
      </trkpt>
      <trkpt lat="40.199513" lon="-8.429764">
        <ele>21.476409</ele>
        <time>2024-06-22T11:05:16.000Z</time>
      </trkpt>
      <trkpt lat="40.200161" lon="-8.430098">
        <ele>21.336725</ele>
        <time>2024-06-22T11:05:24.000Z</time>
      </trkpt>
      <trkpt lat="40.20034" lon="-8.430189">
        <ele>21.246666</ele>
        <time>2024-06-22T11:05:26.000Z</time>
      </trkpt>
      <trkpt lat="40.200529" lon="-8.430285">
        <ele>21.159453</ele>
        <time>2024-06-22T11:05:28.000Z</time>
      </trkpt>
      <trkpt lat="40.200695" lon="-8.430375">
        <ele>21.076476</ele>
        <time>2024-06-22T11:05:30.000Z</time>
      </trkpt>
      <trkpt lat="40.201217" lon="-8.430652">
        <ele>20.831661</ele>
        <time>2024-06-22T11:05:36.000Z</time>
      </trkpt>
      <trkpt lat="40.201367" lon="-8.43074">
        <ele>20.75181</ele>
        <time>2024-06-22T11:05:38.000Z</time>
      </trkpt>
      <trkpt lat="40.20143" lon="-8.430763">
        <ele>20.728446</ele>
        <time>2024-06-22T11:05:39.000Z</time>
      </trkpt>
      <trkpt lat="40.202115" lon="-8.431127">
        <ele>20.437831</ele>
        <time>2024-06-22T11:05:47.000Z</time>
      </trkpt>
      <trkpt lat="40.202958" lon="-8.431564">
        <ele>20.102345</ele>
        <time>2024-06-22T11:05:57.000Z</time>
      </trkpt>
      <trkpt lat="40.203641" lon="-8.431914">
        <ele>20.013401</ele>
        <time>2024-06-22T11:06:05.000Z</time>
      </trkpt>
      <trkpt lat="40.203774" lon="-8.431981">
        <ele>20.022605</ele>
        <time>2024-06-22T11:06:07.000Z</time>
      </trkpt>
      <trkpt lat="40.204032" lon="-8.432011">
        <ele>20.039507</ele>
        <time>2024-06-22T11:06:10.000Z</time>
      </trkpt>
      <trkpt lat="40.204219" lon="-8.431989">
        <ele>20.052038</ele>
        <time>2024-06-22T11:06:12.000Z</time>
      </trkpt>
      <trkpt lat="40.204556" lon="-8.431884">
        <ele>20.074019</ele>
        <time>2024-06-22T11:06:16.000Z</time>
      </trkpt>
      <trkpt lat="40.204573" lon="-8.431853">
        <ele>20.075281</ele>
        <time>2024-06-22T11:06:16.000Z</time>
      </trkpt>
      <trkpt lat="40.204861" lon="-8.431577">
        <ele>20.099051</ele>
        <time>2024-06-22T11:06:20.000Z</time>
      </trkpt>
      <trkpt lat="40.204912" lon="-8.431544">
        <ele>20.102153</ele>
        <time>2024-06-22T11:06:21.000Z</time>
      </trkpt>
      <trkpt lat="40.204906" lon="-8.431537">
        <ele>20.102159</ele>
        <time>2024-06-22T11:06:21.000Z</time>
      </trkpt>
      <trkpt lat="40.204912" lon="-8.431541">
        <ele>20.102149</ele>
        <time>2024-06-22T11:06:21.000Z</time>
      </trkpt>
      <trkpt lat="40.205247" lon="-8.431619">
        <ele>20.068021</ele>
        <time>2024-06-22T11:06:25.000Z</time>
      </trkpt>
      <trkpt lat="40.205442" lon="-8.431855">
        <ele>20.041108</ele>
        <time>2024-06-22T11:06:28.000Z</time>
      </trkpt>
      <trkpt lat="40.205789" lon="-8.432279">
        <ele>19.993376</ele>
        <time>2024-06-22T11:06:33.000Z</time>
      </trkpt>
      <trkpt lat="40.205842" lon="-8.432347">
        <ele>19.985128</ele>
        <time>2024-06-22T11:06:34.000Z</time>
      </trkpt>
      <trkpt lat="40.207604" lon="-8.43452">
        <ele>19.660448</ele>
        <time>2024-06-22T11:07:01.000Z</time>
      </trkpt>
      <trkpt lat="40.207711" lon="-8.434664">
        <ele>19.6249</ele>
        <time>2024-06-22T11:07:03.000Z</time>
      </trkpt>
      <trkpt lat="40.208268" lon="-8.435284">
        <ele>19.450926</ele>
        <time>2024-06-22T11:07:11.000Z</time>
      </trkpt>
      <trkpt lat="40.208363" lon="-8.43536">
        <ele>19.424207</ele>
        <time>2024-06-22T11:07:12.000Z</time>
      </trkpt>
      <trkpt lat="40.208468" lon="-8.435555">
        <ele>19.379038</ele>
        <time>2024-06-22T11:07:14.000Z</time>
      </trkpt>
      <trkpt lat="40.209296" lon="-8.436325">
        <ele>19.202287</ele>
        <time>2024-06-22T11:07:25.000Z</time>
      </trkpt>
      <trkpt lat="40.20986" lon="-8.43685">
        <ele>19.16046</ele>
        <time>2024-06-22T11:07:33.000Z</time>
      </trkpt>
      <trkpt lat="40.211027" lon="-8.437818">
        <ele>19.330859</ele>
        <time>2024-06-22T11:07:48.000Z</time>
      </trkpt>
      <trkpt lat="40.211169" lon="-8.437973">
        <ele>19.397948</ele>
        <time>2024-06-22T11:07:50.000Z</time>
      </trkpt>
      <trkpt lat="40.211281" lon="-8.438181">
        <ele>19.459863</ele>
        <time>2024-06-22T11:07:52.000Z</time>
      </trkpt>
      <trkpt lat="40.211314" lon="-8.438377">
        <ele>19.51206</ele>
        <time>2024-06-22T11:07:54.000Z</time>
      </trkpt>
      <trkpt lat="40.21128" lon="-8.438863">
        <ele>19.637007</ele>
        <time>2024-06-22T11:07:58.000Z</time>
      </trkpt>
      <trkpt lat="40.211294" lon="-8.439085">
        <ele>19.695657</ele>
        <time>2024-06-22T11:08:00.000Z</time>
      </trkpt>
      <trkpt lat="40.211402" lon="-8.439368">
        <ele>19.772582</ele>
        <time>2024-06-22T11:08:03.000Z</time>
      </trkpt>
      <trkpt lat="40.211591" lon="-8.439496">
        <ele>19.834394</ele>
        <time>2024-06-22T11:08:05.000Z</time>
      </trkpt>
      <trkpt lat="40.211707" lon="-8.439516">
        <ele>19.871013</ele>
        <time>2024-06-22T11:08:06.000Z</time>
      </trkpt>
      <trkpt lat="40.211966" lon="-8.439711">
        <ele>19.960713</ele>
        <time>2024-06-22T11:08:09.000Z</time>
      </trkpt>
      <trkpt lat="40.21217" lon="-8.439993">
        <ele>20.051919</ele>
        <time>2024-06-22T11:08:12.000Z</time>
      </trkpt>
      <trkpt lat="40.212608" lon="-8.440432">
        <ele>20.218564</ele>
        <time>2024-06-22T11:08:18.000Z</time>
      </trkpt>
      <trkpt lat="40.213241" lon="-8.440859">
        <ele>20.07758</ele>
        <time>2024-06-22T11:08:26.000Z</time>
      </trkpt>
      <trkpt lat="40.213643" lon="-8.44104">
        <ele>19.925092</ele>
        <time>2024-06-22T11:08:31.000Z</time>
      </trkpt>
      <trkpt lat="40.214653" lon="-8.441266">
        <ele>19.451184</ele>
        <time>2024-06-22T11:08:42.000Z</time>
      </trkpt>
      <trkpt lat="40.214758" lon="-8.441257">
        <ele>19.348978</ele>
        <time>2024-06-22T11:08:43.000Z</time>
      </trkpt>
      <trkpt lat="40.214773" lon="-8.441229">
        <ele>19.31944</ele>
        <time>2024-06-22T11:08:43.000Z</time>
      </trkpt>
      <trkpt lat="40.214814" lon="-8.441218">
        <ele>19.281335</ele>
        <time>2024-06-22T11:08:43.000Z</time>
      </trkpt>
      <trkpt lat="40.214837" lon="-8.441274">
        <ele>19.242797</ele>
        <time>2024-06-22T11:08:44.000Z</time>
      </trkpt>
      <trkpt lat="40.215409" lon="-8.441581">
        <ele>18.664811</ele>
        <time>2024-06-22T11:08:51.000Z</time>
      </trkpt>
      <trkpt lat="40.215759" lon="-8.441831">
        <ele>18.284424</ele>
        <time>2024-06-22T11:08:55.000Z</time>
      </trkpt>
      <trkpt lat="40.216588" lon="-8.442582">
        <ele>17.53981</ele>
        <time>2024-06-22T11:09:06.000Z</time>
      </trkpt>
      <trkpt lat="40.217225" lon="-8.443297">
        <ele>17.003699</ele>
        <time>2024-06-22T11:09:15.000Z</time>
      </trkpt>
      <trkpt lat="40.217461" lon="-8.443711">
        <ele>16.786599</ele>
        <time>2024-06-22T11:09:19.000Z</time>
      </trkpt>
      <trkpt lat="40.217797" lon="-8.444567">
        <ele>16.589611</ele>
        <time>2024-06-22T11:09:27.000Z</time>
      </trkpt>
      <trkpt lat="40.218067" lon="-8.445421">
        <ele>16.402402</ele>
        <time>2024-06-22T11:09:35.000Z</time>
      </trkpt>
      <trkpt lat="40.218496" lon="-8.447804">
        <ele>15.945312</ele>
        <time>2024-06-22T11:09:56.000Z</time>
      </trkpt>
      <trkpt lat="40.218869" lon="-8.45004">
        <ele>15.705715</ele>
        <time>2024-06-22T11:10:15.000Z</time>
      </trkpt>
      <trkpt lat="40.219213" lon="-8.452472">
        <ele>15.49968</ele>
        <time>2024-06-22T11:10:36.000Z</time>
      </trkpt>
      <trkpt lat="40.219352" lon="-8.453682">
        <ele>15.414057</ele>
        <time>2024-06-22T11:10:46.000Z</time>
      </trkpt>
      <trkpt lat="40.219458" lon="-8.455341">
        <ele>15.291816</ele>
        <time>2024-06-22T11:11:00.000Z</time>
      </trkpt>
      <trkpt lat="40.2195" lon="-8.455711">
        <ele>15.25559</ele>
        <time>2024-06-22T11:11:03.000Z</time>
      </trkpt>
      <trkpt lat="40.219539" lon="-8.458949">
        <ele>14.836266</ele>
        <time>2024-06-22T11:11:30.000Z</time>
      </trkpt>
      <trkpt lat="40.219494" lon="-8.460216">
        <ele>14.576951</ele>
        <time>2024-06-22T11:11:41.000Z</time>
      </trkpt>
      <trkpt lat="40.219266" lon="-8.462344">
        <ele>14.03087</ele>
        <time>2024-06-22T11:11:59.000Z</time>
      </trkpt>
      <trkpt lat="40.219184" lon="-8.463171">
        <ele>13.86831</ele>
        <time>2024-06-22T11:12:06.000Z</time>
      </trkpt>
      <trkpt lat="40.218497" lon="-8.467358">
        <ele>13.207994</ele>
        <time>2024-06-22T11:12:42.000Z</time>
      </trkpt>
      <trkpt lat="40.217688" lon="-8.472048">
        <ele>12.646652</ele>
        <time>2024-06-22T11:13:23.000Z</time>
      </trkpt>
      <trkpt lat="40.216784" lon="-8.477275">
        <ele>12.259305</ele>
        <time>2024-06-22T11:14:09.000Z</time>
      </trkpt>
      <trkpt lat="40.216123" lon="-8.481105">
        <ele>11.931552</ele>
        <time>2024-06-22T11:14:42.000Z</time>
      </trkpt>
      <trkpt lat="40.21575" lon="-8.483399">
        <ele>12.065897</ele>
        <time>2024-06-22T11:15:02.000Z</time>
      </trkpt>
      <trkpt lat="40.215646" lon="-8.483874">
        <ele>12.099138</ele>
        <time>2024-06-22T11:15:06.000Z</time>
      </trkpt>
      <trkpt lat="40.215379" lon="-8.483819">
        <ele>12.123355</ele>
        <time>2024-06-22T11:15:09.000Z</time>
      </trkpt>
      <trkpt lat="40.215235" lon="-8.483571">
        <ele>12.143695</ele>
        <time>2024-06-22T11:15:12.000Z</time>
      </trkpt>
      <trkpt lat="40.2152" lon="-8.483295">
        <ele>12.162154</ele>
        <time>2024-06-22T11:15:14.000Z</time>
      </trkpt>
      <trkpt lat="40.215588" lon="-8.483447">
        <ele>12.156406</ele>
        <time>2024-06-22T11:15:19.000Z</time>
      </trkpt>
      <trkpt lat="40.2163" lon="-8.483658">
        <ele>12.065662</ele>
        <time>2024-06-22T11:15:27.000Z</time>
      </trkpt>
      <trkpt lat="40.216367" lon="-8.483674">
        <ele>12.05796</ele>
        <time>2024-06-22T11:15:28.000Z</time>
      </trkpt>
      <trkpt lat="40.216375" lon="-8.483681">
        <ele>12.054612</ele>
        <time>2024-06-22T11:15:28.000Z</time>
      </trkpt>
      <trkpt lat="40.21639" lon="-8.483683">
        <ele>12.053968</ele>
        <time>2024-06-22T11:15:28.000Z</time>
      </trkpt>
      <trkpt lat="40.217414" lon="-8.483962">
        <ele>11.92221</ele>
        <time>2024-06-22T11:15:40.000Z</time>
      </trkpt>
      <trkpt lat="40.218162" lon="-8.484158">
        <ele>11.822414</ele>
        <time>2024-06-22T11:15:48.000Z</time>
      </trkpt>
      <trkpt lat="40.218297" lon="-8.48428">
        <ele>11.801236</ele>
        <time>2024-06-22T11:15:50.000Z</time>
      </trkpt>
      <trkpt lat="40.21827" lon="-8.484488">
        <ele>11.779955</ele>
        <time>2024-06-22T11:15:52.000Z</time>
      </trkpt>
      <trkpt lat="40.217209" lon="-8.484361">
        <ele>11.754857</ele>
        <time>2024-06-22T11:16:04.000Z</time>
      </trkpt>
      <trkpt lat="40.217248" lon="-8.484049">
        <ele>11.767854</ele>
        <time>2024-06-22T11:16:07.000Z</time>
      </trkpt>
      <trkpt lat="40.219197" lon="-8.472609">
        <ele>12.382354</ele>
        <time>2024-06-22T11:17:47.000Z</time>
      </trkpt>
      <trkpt lat="40.219706" lon="-8.469548">
        <ele>13.044472</ele>
        <time>2024-06-22T11:18:14.000Z</time>
      </trkpt>
      <trkpt lat="40.219759" lon="-8.469288">
        <ele>13.120597</ele>
        <time>2024-06-22T11:18:16.000Z</time>
      </trkpt>
      <trkpt lat="40.219862" lon="-8.469086">
        <ele>13.18173</ele>
        <time>2024-06-22T11:18:18.000Z</time>
      </trkpt>
      <trkpt lat="40.220001" lon="-8.468869">
        <ele>13.307379</ele>
        <time>2024-06-22T11:18:20.000Z</time>
      </trkpt>
      <trkpt lat="40.220655" lon="-8.468138">
        <ele>13.794146</ele>
        <time>2024-06-22T11:18:30.000Z</time>
      </trkpt>
      <trkpt lat="40.221128" lon="-8.467558">
        <ele>14.166615</ele>
        <time>2024-06-22T11:18:37.000Z</time>
      </trkpt>
      <trkpt lat="40.222598" lon="-8.466121">
        <ele>14.440993</ele>
        <time>2024-06-22T11:18:57.000Z</time>
      </trkpt>
      <trkpt lat="40.222798" lon="-8.465912">
        <ele>14.452333</ele>
        <time>2024-06-22T11:19:00.000Z</time>
      </trkpt>
      <trkpt lat="40.222972" lon="-8.465597">
        <ele>14.459255</ele>
        <time>2024-06-22T11:19:03.000Z</time>
      </trkpt>
      <trkpt lat="40.223093" lon="-8.465349">
        <ele>14.464739</ele>
        <time>2024-06-22T11:19:05.000Z</time>
      </trkpt>
      <trkpt lat="40.223182" lon="-8.464971">
        <ele>14.471738</ele>
        <time>2024-06-22T11:19:08.000Z</time>
      </trkpt>
      <trkpt lat="40.223234" lon="-8.464647">
        <ele>14.477703</ele>
        <time>2024-06-22T11:19:11.000Z</time>
      </trkpt>
      <trkpt lat="40.22334" lon="-8.462199">
        <ele>14.708917</ele>
        <time>2024-06-22T11:19:32.000Z</time>
      </trkpt>
      <trkpt lat="40.223556" lon="-8.458543">
        <ele>15.175406</ele>
        <time>2024-06-22T11:20:03.000Z</time>
      </trkpt>
      <trkpt lat="40.223822" lon="-8.456492">
        <ele>15.400427</ele>
        <time>2024-06-22T11:20:21.000Z</time>
      </trkpt>
      <trkpt lat="40.223814" lon="-8.456482">
        <ele>15.403</ele>
        <time>2024-06-22T11:20:21.000Z</time>
      </trkpt>
      <trkpt lat="40.22381" lon="-8.456483">
        <ele>15.403122</ele>
        <time>2024-06-22T11:20:21.000Z</time>
      </trkpt>
      <trkpt lat="40.223822" lon="-8.456474">
        <ele>15.403367</ele>
        <time>2024-06-22T11:20:21.000Z</time>
      </trkpt>
      <trkpt lat="40.223883" lon="-8.455932">
        <ele>15.469812</ele>
        <time>2024-06-22T11:20:26.000Z</time>
      </trkpt>
      <trkpt lat="40.224096" lon="-8.454554">
        <ele>15.658923</ele>
        <time>2024-06-22T11:20:38.000Z</time>
      </trkpt>
      <trkpt lat="40.22411" lon="-8.454026">
        <ele>15.911198</ele>
        <time>2024-06-22T11:20:42.000Z</time>
      </trkpt>
      <trkpt lat="40.22396" lon="-8.452104">
        <ele>16.84176</ele>
        <time>2024-06-22T11:20:58.000Z</time>
      </trkpt>
      <trkpt lat="40.223835" lon="-8.450924">
        <ele>17.542801</ele>
        <time>2024-06-22T11:21:08.000Z</time>
      </trkpt>
      <trkpt lat="40.223549" lon="-8.450076">
        <ele>18.082594</ele>
        <time>2024-06-22T11:21:16.000Z</time>
      </trkpt>
      <trkpt lat="40.223031" lon="-8.448738">
        <ele>18.311886</ele>
        <time>2024-06-22T11:21:29.000Z</time>
      </trkpt>
      <trkpt lat="40.222792" lon="-8.447993">
        <ele>18.420484</ele>
        <time>2024-06-22T11:21:36.000Z</time>
      </trkpt>
      <trkpt lat="40.222739" lon="-8.447672">
        <ele>18.362959</ele>
        <time>2024-06-22T11:21:39.000Z</time>
      </trkpt>
      <trkpt lat="40.222817" lon="-8.447294">
        <ele>18.223694</ele>
        <time>2024-06-22T11:21:42.000Z</time>
      </trkpt>
      <trkpt lat="40.223215" lon="-8.445685">
        <ele>17.630992</ele>
        <time>2024-06-22T11:21:56.000Z</time>
      </trkpt>
      <trkpt lat="40.223256" lon="-8.445585">
        <ele>17.572857</ele>
        <time>2024-06-22T11:21:57.000Z</time>
      </trkpt>
      <trkpt lat="40.223679" lon="-8.444456">
        <ele>16.801551</ele>
        <time>2024-06-22T11:22:08.000Z</time>
      </trkpt>
      <trkpt lat="40.223834" lon="-8.443919">
        <ele>16.441539</ele>
        <time>2024-06-22T11:22:13.000Z</time>
      </trkpt>
      <trkpt lat="40.223855" lon="-8.443742">
        <ele>16.320942</ele>
        <time>2024-06-22T11:22:15.000Z</time>
      </trkpt>
      <trkpt lat="40.223887" lon="-8.443613">
        <ele>16.243269</ele>
        <time>2024-06-22T11:22:16.000Z</time>
      </trkpt>
      <trkpt lat="40.223877" lon="-8.443617">
        <ele>16.242638</ele>
        <time>2024-06-22T11:22:16.000Z</time>
      </trkpt>
      <trkpt lat="40.223886" lon="-8.443604">
        <ele>16.240017</ele>
        <time>2024-06-22T11:22:16.000Z</time>
      </trkpt>
      <trkpt lat="40.223937" lon="-8.443153">
        <ele>15.980159</ele>
        <time>2024-06-22T11:22:20.000Z</time>
      </trkpt>
      <trkpt lat="40.223918" lon="-8.442863">
        <ele>15.82117</ele>
        <time>2024-06-22T11:22:22.000Z</time>
      </trkpt>
      <trkpt lat="40.223883" lon="-8.442575">
        <ele>15.663038</ele>
        <time>2024-06-22T11:22:24.000Z</time>
      </trkpt>
      <trkpt lat="40.22385" lon="-8.442532">
        <ele>15.626348</ele>
        <time>2024-06-22T11:22:25.000Z</time>
      </trkpt>
      <trkpt lat="40.223832" lon="-8.442524">
        <ele>15.624182</ele>
        <time>2024-06-22T11:22:25.000Z</time>
      </trkpt>
      <trkpt lat="40.223831" lon="-8.442519">
        <ele>15.623289</ele>
        <time>2024-06-22T11:22:25.000Z</time>
      </trkpt>
      <trkpt lat="40.223845" lon="-8.442515">
        <ele>15.620688</ele>
        <time>2024-06-22T11:22:25.000Z</time>
      </trkpt>
      <trkpt lat="40.223804" lon="-8.442484">
        <ele>15.591326</ele>
        <time>2024-06-22T11:22:26.000Z</time>
      </trkpt>
      <trkpt lat="40.223617" lon="-8.442332">
        <ele>15.434929</ele>
        <time>2024-06-22T11:22:28.000Z</time>
      </trkpt>
      <trkpt lat="40.223331" lon="-8.442211">
        <ele>15.223667</ele>
        <time>2024-06-22T11:22:31.000Z</time>
      </trkpt>
      <trkpt lat="40.222986" lon="-8.4421">
        <ele>14.968105</ele>
        <time>2024-06-22T11:22:35.000Z</time>
      </trkpt>
      <trkpt lat="40.222401" lon="-8.441822">
        <ele>15.018105</ele>
        <time>2024-06-22T11:22:42.000Z</time>
      </trkpt>
      <trkpt lat="40.221944" lon="-8.441639">
        <ele>15.172796</ele>
        <time>2024-06-22T11:22:47.000Z</time>
      </trkpt>
      <trkpt lat="40.220538" lon="-8.441252">
        <ele>15.913022</ele>
        <time>2024-06-22T11:23:03.000Z</time>
      </trkpt>
      <trkpt lat="40.219277" lon="-8.440354">
        <ele>16.981386</ele>
        <time>2024-06-22T11:23:19.000Z</time>
      </trkpt>
      <trkpt lat="40.21889" lon="-8.44015">
        <ele>17.201431</ele>
        <time>2024-06-22T11:23:24.000Z</time>
      </trkpt>
      <trkpt lat="40.218025" lon="-8.439789">
        <ele>17.679296</ele>
        <time>2024-06-22T11:23:34.000Z</time>
      </trkpt>
      <trkpt lat="40.217422" lon="-8.43959">
        <ele>18.209024</ele>
        <time>2024-06-22T11:23:41.000Z</time>
      </trkpt>
      <trkpt lat="40.217286" lon="-8.439524">
        <ele>18.344298</ele>
        <time>2024-06-22T11:23:43.000Z</time>
      </trkpt>
      <trkpt lat="40.217291" lon="-8.439523">
        <ele>18.34649</ele>
        <time>2024-06-22T11:23:43.000Z</time>
      </trkpt>
      <trkpt lat="40.217293" lon="-8.439514">
        <ele>18.347525</ele>
        <time>2024-06-22T11:23:43.000Z</time>
      </trkpt>
      <trkpt lat="40.217283" lon="-8.439507">
        <ele>18.349724</ele>
        <time>2024-06-22T11:23:43.000Z</time>
      </trkpt>
      <trkpt lat="40.217112" lon="-8.439415">
        <ele>18.542112</ele>
        <time>2024-06-22T11:23:45.000Z</time>
      </trkpt>
      <trkpt lat="40.217046" lon="-8.439395">
        <ele>18.612655</ele>
        <time>2024-06-22T11:23:46.000Z</time>
      </trkpt>
      <trkpt lat="40.217035" lon="-8.439275">
        <ele>18.704241</ele>
        <time>2024-06-22T11:23:47.000Z</time>
      </trkpt>
      <trkpt lat="40.217067" lon="-8.439243">
        <ele>18.744012</ele>
        <time>2024-06-22T11:23:47.000Z</time>
      </trkpt>
      <trkpt lat="40.217144" lon="-8.439245">
        <ele>18.820037</ele>
        <time>2024-06-22T11:23:48.000Z</time>
      </trkpt>
      <trkpt lat="40.217173" lon="-8.439129">
        <ele>18.914231</ele>
        <time>2024-06-22T11:23:49.000Z</time>
      </trkpt>
      <trkpt lat="40.217197" lon="-8.43905">
        <ele>18.978364</ele>
        <time>2024-06-22T11:23:50.000Z</time>
      </trkpt>
      <trkpt lat="40.217245" lon="-8.438901">
        <ele>19.108853</ele>
        <time>2024-06-22T11:23:51.000Z</time>
      </trkpt>
      <trkpt lat="40.217286" lon="-8.438752">
        <ele>19.237485</ele>
        <time>2024-06-22T11:23:52.000Z</time>
      </trkpt>
      <trkpt lat="40.217335" lon="-8.438552">
        <ele>19.389485</ele>
        <time>2024-06-22T11:23:54.000Z</time>
      </trkpt>
      <trkpt lat="40.217454" lon="-8.438192">
        <ele>19.718558</ele>
        <time>2024-06-22T11:23:57.000Z</time>
      </trkpt>
      <trkpt lat="40.217533" lon="-8.437919">
        <ele>20.029533</ele>
        <time>2024-06-22T11:23:59.000Z</time>
      </trkpt>
      <trkpt lat="40.217482" lon="-8.437686">
        <ele>20.294393</ele>
        <time>2024-06-22T11:24:01.000Z</time>
      </trkpt>
      <trkpt lat="40.217417" lon="-8.437624">
        <ele>20.391845</ele>
        <time>2024-06-22T11:24:02.000Z</time>
      </trkpt>
      <trkpt lat="40.217092" lon="-8.437337">
        <ele>20.9471</ele>
        <time>2024-06-22T11:24:06.000Z</time>
      </trkpt>
      <trkpt lat="40.216925" lon="-8.437165">
        <ele>21.239667</ele>
        <time>2024-06-22T11:24:08.000Z</time>
      </trkpt>
      <trkpt lat="40.216396" lon="-8.436627">
        <ele>22.154194</ele>
        <time>2024-06-22T11:24:15.000Z</time>
      </trkpt>
      <trkpt lat="40.216314" lon="-8.436557">
        <ele>22.202556</ele>
        <time>2024-06-22T11:24:16.000Z</time>
      </trkpt>
      <trkpt lat="40.216243" lon="-8.436479">
        <ele>22.256525</ele>
        <time>2024-06-22T11:24:17.000Z</time>
      </trkpt>
      <trkpt lat="40.216137" lon="-8.436382">
        <ele>22.330805</ele>
        <time>2024-06-22T11:24:18.000Z</time>
      </trkpt>
      <trkpt lat="40.215983" lon="-8.436217">
        <ele>22.44383</ele>
        <time>2024-06-22T11:24:20.000Z</time>
      </trkpt>
      <trkpt lat="40.215615" lon="-8.43587">
        <ele>22.692903</ele>
        <time>2024-06-22T11:24:25.000Z</time>
      </trkpt>
      <trkpt lat="40.215527" lon="-8.435892">
        <ele>22.745815</ele>
        <time>2024-06-22T11:24:26.000Z</time>
      </trkpt>
      <trkpt lat="40.215457" lon="-8.43586">
        <ele>22.779679</ele>
        <time>2024-06-22T11:24:27.000Z</time>
      </trkpt>
      <trkpt lat="40.215411" lon="-8.435766">
        <ele>22.827476</ele>
        <time>2024-06-22T11:24:28.000Z</time>
      </trkpt>
      <trkpt lat="40.215411" lon="-8.435721">
        <ele>22.851824</ele>
        <time>2024-06-22T11:24:28.000Z</time>
      </trkpt>
      <trkpt lat="40.215279" lon="-8.435534">
        <ele>22.955146</ele>
        <time>2024-06-22T11:24:30.000Z</time>
      </trkpt>
      <trkpt lat="40.21428" lon="-8.434561">
        <ele>23.334952</ele>
        <time>2024-06-22T11:24:44.000Z</time>
      </trkpt>
      <trkpt lat="40.213844" lon="-8.434126">
        <ele>23.445476</ele>
        <time>2024-06-22T11:24:50.000Z</time>
      </trkpt>
      <trkpt lat="40.213576" lon="-8.433871">
        <ele>23.510757</ele>
        <time>2024-06-22T11:24:54.000Z</time>
      </trkpt>
      <trkpt lat="40.213492" lon="-8.43382">
        <ele>23.539832</ele>
        <time>2024-06-22T11:24:55.000Z</time>
      </trkpt>
      <trkpt lat="40.213448" lon="-8.4338">
        <ele>23.547692</ele>
        <time>2024-06-22T11:24:56.000Z</time>
      </trkpt>
      <trkpt lat="40.213038" lon="-8.433438">
        <ele>23.6866</ele>
        <time>2024-06-22T11:25:01.000Z</time>
      </trkpt>
      <trkpt lat="40.213009" lon="-8.433362">
        <ele>23.707793</ele>
        <time>2024-06-22T11:25:02.000Z</time>
      </trkpt>
      <trkpt lat="40.212887" lon="-8.43333">
        <ele>23.742332</ele>
        <time>2024-06-22T11:25:03.000Z</time>
      </trkpt>
      <trkpt lat="40.212656" lon="-8.433198">
        <ele>23.808086</ele>
        <time>2024-06-22T11:25:06.000Z</time>
      </trkpt>
      <trkpt lat="40.212518" lon="-8.433121">
        <ele>23.853815</ele>
        <time>2024-06-22T11:25:08.000Z</time>
      </trkpt>
      <trkpt lat="40.211427" lon="-8.432518">
        <ele>23.541687</ele>
        <time>2024-06-22T11:25:21.000Z</time>
      </trkpt>
      <trkpt lat="40.210898" lon="-8.432233">
        <ele>23.084827</ele>
        <time>2024-06-22T11:25:27.000Z</time>
      </trkpt>
      <trkpt lat="40.210814" lon="-8.432185">
        <ele>23.020227</ele>
        <time>2024-06-22T11:25:28.000Z</time>
      </trkpt>
      <trkpt lat="40.210496" lon="-8.432012">
        <ele>22.745521</ele>
        <time>2024-06-22T11:25:32.000Z</time>
      </trkpt>
      <trkpt lat="40.210287" lon="-8.431904">
        <ele>22.565592</ele>
        <time>2024-06-22T11:25:34.000Z</time>
      </trkpt>
      <trkpt lat="40.210047" lon="-8.431782">
        <ele>22.289375</ele>
        <time>2024-06-22T11:25:37.000Z</time>
      </trkpt>
      <trkpt lat="40.209792" lon="-8.431642">
        <ele>22.004834</ele>
        <time>2024-06-22T11:25:40.000Z</time>
      </trkpt>
      <trkpt lat="40.209659" lon="-8.431572">
        <ele>21.857514</ele>
        <time>2024-06-22T11:25:42.000Z</time>
      </trkpt>
      <trkpt lat="40.209558" lon="-8.431599">
        <ele>21.749132</ele>
        <time>2024-06-22T11:25:43.000Z</time>
      </trkpt>
      <trkpt lat="40.209512" lon="-8.43164">
        <ele>21.69073</ele>
        <time>2024-06-22T11:25:44.000Z</time>
      </trkpt>
      <trkpt lat="40.209347" lon="-8.432178">
        <ele>21.224298</ele>
        <time>2024-06-22T11:25:49.000Z</time>
      </trkpt>
      <trkpt lat="40.209289" lon="-8.432202">
        <ele>21.157238</ele>
        <time>2024-06-22T11:25:50.000Z</time>
      </trkpt>
      <trkpt lat="40.208933" lon="-8.43174">
        <ele>20.684422</ele>
        <time>2024-06-22T11:25:56.000Z</time>
      </trkpt>
      <trkpt lat="40.208847" lon="-8.431752">
        <ele>20.652788</ele>
        <time>2024-06-22T11:25:57.000Z</time>
      </trkpt>
      <trkpt lat="40.208736" lon="-8.4318">
        <ele>20.611805</ele>
        <time>2024-06-22T11:25:58.000Z</time>
      </trkpt>
      <trkpt lat="40.208675" lon="-8.431881">
        <ele>20.583781</ele>
        <time>2024-06-22T11:25:59.000Z</time>
      </trkpt>
      <trkpt lat="40.208611" lon="-8.431926">
        <ele>20.558206</ele>
        <time>2024-06-22T11:26:00.000Z</time>
      </trkpt>
      <trkpt lat="40.208506" lon="-8.432016">
        <ele>20.507795</ele>
        <time>2024-06-22T11:26:01.000Z</time>
      </trkpt>
      <trkpt lat="40.208396" lon="-8.432">
        <ele>20.470366</ele>
        <time>2024-06-22T11:26:02.000Z</time>
      </trkpt>
      <trkpt lat="40.208161" lon="-8.431727">
        <ele>20.356177</ele>
        <time>2024-06-22T11:26:05.000Z</time>
      </trkpt>
      <trkpt lat="40.208005" lon="-8.431573">
        <ele>20.285959</ele>
        <time>2024-06-22T11:26:07.000Z</time>
      </trkpt>
      <trkpt lat="40.207872" lon="-8.431441">
        <ele>20.223943</ele>
        <time>2024-06-22T11:26:09.000Z</time>
      </trkpt>
      <trkpt lat="40.207763" lon="-8.431281">
        <ele>20.165632</ele>
        <time>2024-06-22T11:26:11.000Z</time>
      </trkpt>
      <trkpt lat="40.207676" lon="-8.431166">
        <ele>20.122176</ele>
        <time>2024-06-22T11:26:12.000Z</time>
      </trkpt>
      <trkpt lat="40.207424" lon="-8.430772">
        <ele>20.240787</ele>
        <time>2024-06-22T11:26:16.000Z</time>
      </trkpt>
      <trkpt lat="40.20738" lon="-8.430609">
        <ele>20.349615</ele>
        <time>2024-06-22T11:26:17.000Z</time>
      </trkpt>
      <trkpt lat="40.20737" lon="-8.430414">
        <ele>20.468282</ele>
        <time>2024-06-22T11:26:19.000Z</time>
      </trkpt>
      <trkpt lat="40.207343" lon="-8.430188">
        <ele>20.606362</ele>
        <time>2024-06-22T11:26:21.000Z</time>
      </trkpt>
      <trkpt lat="40.207236" lon="-8.429933">
        <ele>20.784138</ele>
        <time>2024-06-22T11:26:23.000Z</time>
      </trkpt>
      <trkpt lat="40.207146" lon="-8.429806">
        <ele>20.89588</ele>
        <time>2024-06-22T11:26:24.000Z</time>
      </trkpt>
      <trkpt lat="40.207011" lon="-8.429607">
        <ele>21.059115</ele>
        <time>2024-06-22T11:26:26.000Z</time>
      </trkpt>
      <trkpt lat="40.206876" lon="-8.429394">
        <ele>21.227336</ele>
        <time>2024-06-22T11:26:28.000Z</time>
      </trkpt>
      <trkpt lat="40.206762" lon="-8.429248">
        <ele>21.3493</ele>
        <time>2024-06-22T11:26:30.000Z</time>
      </trkpt>
      <trkpt lat="40.206694" lon="-8.429166">
        <ele>21.428166</ele>
        <time>2024-06-22T11:26:31.000Z</time>
      </trkpt>
      <trkpt lat="40.206529" lon="-8.428916">
        <ele>21.612183</ele>
        <time>2024-06-22T11:26:34.000Z</time>
      </trkpt>
      <trkpt lat="40.205477" lon="-8.427459">
        <ele>22.626563</ele>
        <time>2024-06-22T11:26:51.000Z</time>
      </trkpt>
      <trkpt lat="40.20472" lon="-8.426399">
        <ele>22.416877</ele>
        <time>2024-06-22T11:27:03.000Z</time>
      </trkpt>
      <trkpt lat="40.204276" lon="-8.425774">
        <ele>22.223791</ele>
        <time>2024-06-22T11:27:10.000Z</time>
      </trkpt>
      <trkpt lat="40.204151" lon="-8.42565">
        <ele>22.179886</ele>
        <time>2024-06-22T11:27:12.000Z</time>
      </trkpt>
      <trkpt lat="40.20411" lon="-8.425646">
        <ele>22.151943</ele>
        <time>2024-06-22T11:27:12.000Z</time>
      </trkpt>
      <trkpt lat="40.204046" lon="-8.425614">
        <ele>22.089093</ele>
        <time>2024-06-22T11:27:13.000Z</time>
      </trkpt>
      <trkpt lat="40.203711" lon="-8.425243">
        <ele>21.69804</ele>
        <time>2024-06-22T11:27:18.000Z</time>
      </trkpt>
      <trkpt lat="40.20362" lon="-8.425165">
        <ele>21.598253</ele>
        <time>2024-06-22T11:27:19.000Z</time>
      </trkpt>
      <trkpt lat="40.20324" lon="-8.424913">
        <ele>21.224512</ele>
        <time>2024-06-22T11:27:24.000Z</time>
      </trkpt>
      <trkpt lat="40.202899" lon="-8.424747">
        <ele>20.906473</ele>
        <time>2024-06-22T11:27:28.000Z</time>
      </trkpt>
      <trkpt lat="40.201693" lon="-8.424273">
        <ele>20.586174</ele>
        <time>2024-06-22T11:27:42.000Z</time>
      </trkpt>
      <trkpt lat="40.200972" lon="-8.423915">
        <ele>20.587024</ele>
        <time>2024-06-22T11:27:51.000Z</time>
      </trkpt>
      <trkpt lat="40.199951" lon="-8.423309">
        <ele>21.220492</ele>
        <time>2024-06-22T11:28:03.000Z</time>
      </trkpt>
      <trkpt lat="40.19957" lon="-8.423011">
        <ele>21.504753</ele>
        <time>2024-06-22T11:28:08.000Z</time>
      </trkpt>
      <trkpt lat="40.199564" lon="-8.423016">
        <ele>21.509055</ele>
        <time>2024-06-22T11:28:08.000Z</time>
      </trkpt>
      <trkpt lat="40.199457" lon="-8.422947">
        <ele>21.583659</ele>
        <time>2024-06-22T11:28:09.000Z</time>
      </trkpt>
      <trkpt lat="40.199265" lon="-8.422777">
        <ele>21.734127</ele>
        <time>2024-06-22T11:28:12.000Z</time>
      </trkpt>
      <trkpt lat="40.199064" lon="-8.422557">
        <ele>21.967833</ele>
        <time>2024-06-22T11:28:15.000Z</time>
      </trkpt>
      <trkpt lat="40.198872" lon="-8.422248">
        <ele>22.244756</ele>
        <time>2024-06-22T11:28:18.000Z</time>
      </trkpt>
      <trkpt lat="40.198438" lon="-8.421686">
        <ele>22.8168</ele>
        <time>2024-06-22T11:28:25.000Z</time>
      </trkpt>
      <trkpt lat="40.1982" lon="-8.42144">
        <ele>23.099677</ele>
        <time>2024-06-22T11:28:28.000Z</time>
      </trkpt>
      <trkpt lat="40.19785" lon="-8.42123">
        <ele>23.51316</ele>
        <time>2024-06-22T11:28:32.000Z</time>
      </trkpt>
      <trkpt lat="40.197217" lon="-8.421099">
        <ele>24.673255</ele>
        <time>2024-06-22T11:28:39.000Z</time>
      </trkpt>
      <trkpt lat="40.197055" lon="-8.421034">
        <ele>24.973657</ele>
        <time>2024-06-22T11:28:41.000Z</time>
      </trkpt>
      <trkpt lat="40.19697" lon="-8.421034">
        <ele>25.143676</ele>
        <time>2024-06-22T11:28:42.000Z</time>
      </trkpt>
      <trkpt lat="40.196971" lon="-8.421028">
        <ele>25.147327</ele>
        <time>2024-06-22T11:28:42.000Z</time>
      </trkpt>
      <trkpt lat="40.196971" lon="-8.421042">
        <ele>25.154776</ele>
        <time>2024-06-22T11:28:42.000Z</time>
      </trkpt>
      <trkpt lat="40.19631" lon="-8.421006">
        <ele>26.355821</ele>
        <time>2024-06-22T11:28:49.000Z</time>
      </trkpt>
      <trkpt lat="40.1957" lon="-8.420974">
        <ele>27.333733</ele>
        <time>2024-06-22T11:28:56.000Z</time>
      </trkpt>
      <trkpt lat="40.19559" lon="-8.42097">
        <ele>27.514937</ele>
        <time>2024-06-22T11:28:57.000Z</time>
      </trkpt>
      <trkpt lat="40.194781" lon="-8.420942">
        <ele>28.721288</ele>
        <time>2024-06-22T11:29:06.000Z</time>
      </trkpt>
      <trkpt lat="40.194474" lon="-8.420922">
        <ele>29.214902</ele>
        <time>2024-06-22T11:29:09.000Z</time>
      </trkpt>
      <trkpt lat="40.193775" lon="-8.420872">
        <ele>29.649785</ele>
        <time>2024-06-22T11:29:17.000Z</time>
      </trkpt>
      <trkpt lat="40.193498" lon="-8.420717">
        <ele>29.767991</ele>
        <time>2024-06-22T11:29:20.000Z</time>
      </trkpt>
      <trkpt lat="40.193215" lon="-8.420451">
        <ele>29.911889</ele>
        <time>2024-06-22T11:29:24.000Z</time>
      </trkpt>
      <trkpt lat="40.193074" lon="-8.420388">
        <ele>29.971615</ele>
        <time>2024-06-22T11:29:26.000Z</time>
      </trkpt>
      <trkpt lat="40.192991" lon="-8.420383">
        <ele>30.003391</ele>
        <time>2024-06-22T11:29:27.000Z</time>
      </trkpt>
      <trkpt lat="40.192908" lon="-8.420443">
        <ele>30.041831</ele>
        <time>2024-06-22T11:29:28.000Z</time>
      </trkpt>
      <trkpt lat="40.192822" lon="-8.420458">
        <ele>30.080622</ele>
        <time>2024-06-22T11:29:29.000Z</time>
      </trkpt>
      <trkpt lat="40.192722" lon="-8.420426">
        <ele>30.118968</ele>
        <time>2024-06-22T11:29:30.000Z</time>
      </trkpt>
      <trkpt lat="40.192084" lon="-8.420498">
        <ele>30.963345</ele>
        <time>2024-06-22T11:29:37.000Z</time>
      </trkpt>
      <trkpt lat="40.191221" lon="-8.42063">
        <ele>32.212363</ele>
        <time>2024-06-22T11:29:47.000Z</time>
      </trkpt>
      <trkpt lat="40.191206" lon="-8.42062">
        <ele>32.215429</ele>
        <time>2024-06-22T11:29:47.000Z</time>
      </trkpt>
      <trkpt lat="40.191213" lon="-8.420633">
        <ele>32.21687</ele>
        <time>2024-06-22T11:29:47.000Z</time>
      </trkpt>
      <trkpt lat="40.191208" lon="-8.420628">
        <ele>32.221301</ele>
        <time>2024-06-22T11:29:47.000Z</time>
      </trkpt>
      <trkpt lat="40.191218" lon="-8.420624">
        <ele>32.221311</ele>
        <time>2024-06-22T11:29:47.000Z</time>
      </trkpt>
      <trkpt lat="40.191211" lon="-8.420631">
        <ele>32.221307</ele>
        <time>2024-06-22T11:29:47.000Z</time>
      </trkpt>
      <trkpt lat="40.19038" lon="-8.420826">
        <ele>32.640273</ele>
        <time>2024-06-22T11:29:56.000Z</time>
      </trkpt>
      <trkpt lat="40.189712" lon="-8.420934">
        <ele>32.509878</ele>
        <time>2024-06-22T11:30:03.000Z</time>
      </trkpt>
      <trkpt lat="40.189083" lon="-8.420955">
        <ele>32.389034</ele>
        <time>2024-06-22T11:30:10.000Z</time>
      </trkpt>
      <trkpt lat="40.188555" lon="-8.420888">
        <ele>31.32008</ele>
        <time>2024-06-22T11:30:16.000Z</time>
      </trkpt>
      <trkpt lat="40.188086" lon="-8.420789">
        <ele>30.360553</ele>
        <time>2024-06-22T11:30:21.000Z</time>
      </trkpt>
      <trkpt lat="40.187933" lon="-8.420735">
        <ele>30.039873</ele>
        <time>2024-06-22T11:30:23.000Z</time>
      </trkpt>
      <trkpt lat="40.187646" lon="-8.420651">
        <ele>29.47324</ele>
        <time>2024-06-22T11:30:26.000Z</time>
      </trkpt>
      <trkpt lat="40.187394" lon="-8.420533">
        <ele>28.91209</ele>
        <time>2024-06-22T11:30:29.000Z</time>
      </trkpt>
      <trkpt lat="40.187046" lon="-8.42035">
        <ele>28.180389</ele>
        <time>2024-06-22T11:30:33.000Z</time>
      </trkpt>
      <trkpt lat="40.186582" lon="-8.42004">
        <ele>27.178769</ele>
        <time>2024-06-22T11:30:39.000Z</time>
      </trkpt>
      <trkpt lat="40.186108" lon="-8.419651">
        <ele>26.097306</ele>
        <time>2024-06-22T11:30:45.000Z</time>
      </trkpt>
      <trkpt lat="40.185698" lon="-8.419232">
        <ele>25.222201</ele>
        <time>2024-06-22T11:30:51.000Z</time>
      </trkpt>
      <trkpt lat="40.185174" lon="-8.418566">
        <ele>24.758542</ele>
        <time>2024-06-22T11:30:59.000Z</time>
      </trkpt>
      <trkpt lat="40.185031" lon="-8.418354">
        <ele>24.620918</ele>
        <time>2024-06-22T11:31:01.000Z</time>
      </trkpt>
      <trkpt lat="40.184907" lon="-8.418164">
        <ele>24.497361</ele>
        <time>2024-06-22T11:31:03.000Z</time>
      </trkpt>
      <trkpt lat="40.184911" lon="-8.418168">
        <ele>24.495426</ele>
        <time>2024-06-22T11:31:03.000Z</time>
      </trkpt>
      <trkpt lat="40.184901" lon="-8.418155">
        <ele>24.494268</ele>
        <time>2024-06-22T11:31:03.000Z</time>
      </trkpt>
      <trkpt lat="40.184908" lon="-8.418158">
        <ele>24.493775</ele>
        <time>2024-06-22T11:31:03.000Z</time>
      </trkpt>
      <trkpt lat="40.184731" lon="-8.417885">
        <ele>24.320623</ele>
        <time>2024-06-22T11:31:06.000Z</time>
      </trkpt>
      <trkpt lat="40.1843" lon="-8.417107">
        <ele>24.247608</ele>
        <time>2024-06-22T11:31:14.000Z</time>
      </trkpt>
      <trkpt lat="40.184021" lon="-8.416508">
        <ele>24.383527</ele>
        <time>2024-06-22T11:31:20.000Z</time>
      </trkpt>
      <trkpt lat="40.183729" lon="-8.415784">
        <ele>24.539734</ele>
        <time>2024-06-22T11:31:27.000Z</time>
      </trkpt>
      <trkpt lat="40.18333" lon="-8.414534">
        <ele>24.579719</ele>
        <time>2024-06-22T11:31:39.000Z</time>
      </trkpt>
      <trkpt lat="40.183218" lon="-8.414121">
        <ele>24.57754</ele>
        <time>2024-06-22T11:31:43.000Z</time>
      </trkpt>
      <trkpt lat="40.183117" lon="-8.413688">
        <ele>24.575346</ele>
        <time>2024-06-22T11:31:47.000Z</time>
      </trkpt>
      <trkpt lat="40.182837" lon="-8.412219">
        <ele>24.599594</ele>
        <time>2024-06-22T11:32:00.000Z</time>
      </trkpt>
      <trkpt lat="40.182706" lon="-8.411314">
        <ele>24.620622</ele>
        <time>2024-06-22T11:32:08.000Z</time>
      </trkpt>
      <trkpt lat="40.182609" lon="-8.410568">
        <ele>24.616765</ele>
        <time>2024-06-22T11:32:14.000Z</time>
      </trkpt>
      <trkpt lat="40.182516" lon="-8.409386">
        <ele>24.592563</ele>
        <time>2024-06-22T11:32:24.000Z</time>
      </trkpt>
      <trkpt lat="40.182498" lon="-8.40828">
        <ele>24.55617</ele>
        <time>2024-06-22T11:32:33.000Z</time>
      </trkpt>
      <trkpt lat="40.182531" lon="-8.407074">
        <ele>24.492202</ele>
        <time>2024-06-22T11:32:43.000Z</time>
      </trkpt>
      <trkpt lat="40.182641" lon="-8.405626">
        <ele>24.496754</ele>
        <time>2024-06-22T11:32:55.000Z</time>
      </trkpt>
      <trkpt lat="40.182757" lon="-8.404632">
        <ele>24.557235</ele>
        <time>2024-06-22T11:33:04.000Z</time>
      </trkpt>
      <trkpt lat="40.183023" lon="-8.403148">
        <ele>24.787812</ele>
        <time>2024-06-22T11:33:17.000Z</time>
      </trkpt>
      <trkpt lat="40.18308" lon="-8.40289">
        <ele>24.84339</ele>
        <time>2024-06-22T11:33:19.000Z</time>
      </trkpt>
      <trkpt lat="40.183097" lon="-8.402758">
        <ele>24.872791</ele>
        <time>2024-06-22T11:33:20.000Z</time>
      </trkpt>
      <trkpt lat="40.183164" lon="-8.402526">
        <ele>24.927673</ele>
        <time>2024-06-22T11:33:22.000Z</time>
      </trkpt>
      <trkpt lat="40.183785" lon="-8.400288">
        <ele>25.389084</ele>
        <time>2024-06-22T11:33:42.000Z</time>
      </trkpt>
      <trkpt lat="40.184287" lon="-8.398445">
        <ele>25.618718</ele>
        <time>2024-06-22T11:33:59.000Z</time>
      </trkpt>
      <trkpt lat="40.184446" lon="-8.397936">
        <ele>25.659139</ele>
        <time>2024-06-22T11:34:04.000Z</time>
      </trkpt>
      <trkpt lat="40.184653" lon="-8.397617">
        <ele>25.688015</ele>
        <time>2024-06-22T11:34:08.000Z</time>
      </trkpt>
      <trkpt lat="40.184662" lon="-8.397665">
        <ele>25.69165</ele>
        <time>2024-06-22T11:34:08.000Z</time>
      </trkpt>
      <trkpt lat="40.184672" lon="-8.397679">
        <ele>25.692743</ele>
        <time>2024-06-22T11:34:08.000Z</time>
      </trkpt>
      <trkpt lat="40.184697" lon="-8.397697">
        <ele>25.695806</ele>
        <time>2024-06-22T11:34:08.000Z</time>
      </trkpt>
      <trkpt lat="40.184629" lon="-8.397794">
        <ele>25.705869</ele>
        <time>2024-06-22T11:34:09.000Z</time>
      </trkpt>
      <trkpt lat="40.18453" lon="-8.397978">
        <ele>25.719654</ele>
        <time>2024-06-22T11:34:11.000Z</time>
      </trkpt>
      <trkpt lat="40.184381" lon="-8.398491">
        <ele>25.755463</ele>
        <time>2024-06-22T11:34:16.000Z</time>
      </trkpt>
      <trkpt lat="40.183859" lon="-8.400322">
        <ele>25.751055</ele>
        <time>2024-06-22T11:34:33.000Z</time>
      </trkpt>
      <trkpt lat="40.18323" lon="-8.402554">
        <ele>25.128209</ele>
        <time>2024-06-22T11:34:53.000Z</time>
      </trkpt>
      <trkpt lat="40.183187" lon="-8.402794">
        <ele>25.062282</ele>
        <time>2024-06-22T11:34:55.000Z</time>
      </trkpt>
      <trkpt lat="40.18315" lon="-8.402931">
        <ele>25.027742</ele>
        <time>2024-06-22T11:34:56.000Z</time>
      </trkpt>
      <trkpt lat="40.183106" lon="-8.403168">
        <ele>24.962796</ele>
        <time>2024-06-22T11:34:58.000Z</time>
      </trkpt>
      <trkpt lat="40.183081" lon="-8.403275">
        <ele>24.938748</ele>
        <time>2024-06-22T11:34:59.000Z</time>
      </trkpt>
      <trkpt lat="40.183079" lon="-8.403267">
        <ele>24.938329</ele>
        <time>2024-06-22T11:34:59.000Z</time>
      </trkpt>
      <trkpt lat="40.183087" lon="-8.40327">
        <ele>24.937819</ele>
        <time>2024-06-22T11:34:59.000Z</time>
      </trkpt>
      <trkpt lat="40.183078" lon="-8.403264">
        <ele>24.937577</ele>
        <time>2024-06-22T11:34:59.000Z</time>
      </trkpt>
      <trkpt lat="40.182928" lon="-8.404104">
        <ele>24.719409</ele>
        <time>2024-06-22T11:35:06.000Z</time>
      </trkpt>
      <trkpt lat="40.182756" lon="-8.405165">
        <ele>24.673742</ele>
        <time>2024-06-22T11:35:15.000Z</time>
      </trkpt>
      <trkpt lat="40.182723" lon="-8.405654">
        <ele>24.699509</ele>
        <time>2024-06-22T11:35:19.000Z</time>
      </trkpt>
      <trkpt lat="40.182643" lon="-8.406424">
        <ele>24.73961</ele>
        <time>2024-06-22T11:35:26.000Z</time>
      </trkpt>
      <trkpt lat="40.182603" lon="-8.407075">
        <ele>24.798532</ele>
        <time>2024-06-22T11:35:32.000Z</time>
      </trkpt>
      <trkpt lat="40.182575" lon="-8.40829">
        <ele>24.951607</ele>
        <time>2024-06-22T11:35:42.000Z</time>
      </trkpt>
      <trkpt lat="40.182602" lon="-8.409388">
        <ele>25.041733</ele>
        <time>2024-06-22T11:35:51.000Z</time>
      </trkpt>
      <trkpt lat="40.182701" lon="-8.410555">
        <ele>24.971376</ele>
        <time>2024-06-22T11:36:01.000Z</time>
      </trkpt>
      <trkpt lat="40.182776" lon="-8.411286">
        <ele>24.927212</ele>
        <time>2024-06-22T11:36:07.000Z</time>
      </trkpt>
      <trkpt lat="40.182918" lon="-8.412194">
        <ele>24.937812</ele>
        <time>2024-06-22T11:36:15.000Z</time>
      </trkpt>
      <trkpt lat="40.183029" lon="-8.412813">
        <ele>24.954193</ele>
        <time>2024-06-22T11:36:20.000Z</time>
      </trkpt>
      <trkpt lat="40.183204" lon="-8.413651">
        <ele>24.977493</ele>
        <time>2024-06-22T11:36:27.000Z</time>
      </trkpt>
      <trkpt lat="40.183422" lon="-8.414497">
        <ele>24.979693</ele>
        <time>2024-06-22T11:36:35.000Z</time>
      </trkpt>
      <trkpt lat="40.183606" lon="-8.41519">
        <ele>24.97955</ele>
        <time>2024-06-22T11:36:41.000Z</time>
      </trkpt>
      <trkpt lat="40.183841" lon="-8.415895">
        <ele>24.979404</ele>
        <time>2024-06-22T11:36:48.000Z</time>
      </trkpt>
      <trkpt lat="40.184324" lon="-8.417039">
        <ele>24.849007</ele>
        <time>2024-06-22T11:36:59.000Z</time>
      </trkpt>
      <trkpt lat="40.184539" lon="-8.417443">
        <ele>24.800009</ele>
        <time>2024-06-22T11:37:03.000Z</time>
      </trkpt>
      <trkpt lat="40.184546" lon="-8.417428">
        <ele>24.799837</ele>
        <time>2024-06-22T11:37:03.000Z</time>
      </trkpt>
      <trkpt lat="40.184541" lon="-8.417441">
        <ele>24.799178</ele>
        <time>2024-06-22T11:37:03.000Z</time>
      </trkpt>
      <trkpt lat="40.184545" lon="-8.41745">
        <ele>24.799073</ele>
        <time>2024-06-22T11:37:03.000Z</time>
      </trkpt>
      <trkpt lat="40.184603" lon="-8.417552">
        <ele>24.785414</ele>
        <time>2024-06-22T11:37:04.000Z</time>
      </trkpt>
      <trkpt lat="40.185064" lon="-8.418297">
        <ele>25.173143</ele>
        <time>2024-06-22T11:37:12.000Z</time>
      </trkpt>
      <trkpt lat="40.185215" lon="-8.418513">
        <ele>25.434572</ele>
        <time>2024-06-22T11:37:14.000Z</time>
      </trkpt>
      <trkpt lat="40.185695" lon="-8.419103">
        <ele>26.185044</ele>
        <time>2024-06-22T11:37:21.000Z</time>
      </trkpt>
      <trkpt lat="40.186271" lon="-8.419665">
        <ele>27.171937</ele>
        <time>2024-06-22T11:37:29.000Z</time>
      </trkpt>
      <trkpt lat="40.187047" lon="-8.420236">
        <ele>29.000758</ele>
        <time>2024-06-22T11:37:39.000Z</time>
      </trkpt>
      <trkpt lat="40.187419" lon="-8.420437">
        <ele>29.843439</ele>
        <time>2024-06-22T11:37:43.000Z</time>
      </trkpt>
      <trkpt lat="40.187679" lon="-8.420544">
        <ele>30.410513</ele>
        <time>2024-06-22T11:37:46.000Z</time>
      </trkpt>
      <trkpt lat="40.18813" lon="-8.420688">
        <ele>31.244484</ele>
        <time>2024-06-22T11:37:51.000Z</time>
      </trkpt>
      <trkpt lat="40.188566" lon="-8.42082">
        <ele>32.03643</ele>
        <time>2024-06-22T11:37:56.000Z</time>
      </trkpt>
      <trkpt lat="40.189074" lon="-8.420863">
        <ele>32.972648</ele>
        <time>2024-06-22T11:38:02.000Z</time>
      </trkpt>
      <trkpt lat="40.189369" lon="-8.420846">
        <ele>33.474312</ele>
        <time>2024-06-22T11:38:05.000Z</time>
      </trkpt>
      <trkpt lat="40.189701" lon="-8.420841">
        <ele>33.575062</ele>
        <time>2024-06-22T11:38:09.000Z</time>
      </trkpt>
      <trkpt lat="40.190377" lon="-8.420737">
        <ele>33.033625</ele>
        <time>2024-06-22T11:38:17.000Z</time>
      </trkpt>
      <trkpt lat="40.19052" lon="-8.420719">
        <ele>32.915967</ele>
        <time>2024-06-22T11:38:19.000Z</time>
      </trkpt>
      <trkpt lat="40.190788" lon="-8.42068">
        <ele>32.702563</ele>
        <time>2024-06-22T11:38:22.000Z</time>
      </trkpt>
      <trkpt lat="40.19178" lon="-8.420534">
        <ele>31.04339</ele>
        <time>2024-06-22T11:38:33.000Z</time>
      </trkpt>
      <trkpt lat="40.192072" lon="-8.420546">
        <ele>30.296187</ele>
        <time>2024-06-22T11:38:36.000Z</time>
      </trkpt>
      <trkpt lat="40.192499" lon="-8.420679">
        <ele>29.173626</ele>
        <time>2024-06-22T11:38:41.000Z</time>
      </trkpt>
      <trkpt lat="40.192728" lon="-8.420824">
        <ele>28.52618</ele>
        <time>2024-06-22T11:38:44.000Z</time>
      </trkpt>
      <trkpt lat="40.192838" lon="-8.42093">
        <ele>28.174156</ele>
        <time>2024-06-22T11:38:46.000Z</time>
      </trkpt>
      <trkpt lat="40.192959" lon="-8.421188">
        <ele>27.589743</ele>
        <time>2024-06-22T11:38:49.000Z</time>
      </trkpt>
      <trkpt lat="40.192999" lon="-8.421407">
        <ele>27.166087</ele>
        <time>2024-06-22T11:38:51.000Z</time>
      </trkpt>
      <trkpt lat="40.193002" lon="-8.421568">
        <ele>26.843675</ele>
        <time>2024-06-22T11:38:52.000Z</time>
      </trkpt>
      <trkpt lat="40.192953" lon="-8.421841">
        <ele>26.321445</ele>
        <time>2024-06-22T11:38:54.000Z</time>
      </trkpt>
      <trkpt lat="40.192833" lon="-8.422171">
        <ele>25.601971</ele>
        <time>2024-06-22T11:38:57.000Z</time>
      </trkpt>
      <trkpt lat="40.192816" lon="-8.422283">
        <ele>25.404859</ele>
        <time>2024-06-22T11:38:58.000Z</time>
      </trkpt>
      <trkpt lat="40.192819" lon="-8.422895">
        <ele>24.227716</ele>
        <time>2024-06-22T11:39:03.000Z</time>
      </trkpt>
      <trkpt lat="40.192822" lon="-8.422899">
        <ele>24.227714</ele>
        <time>2024-06-22T11:39:03.000Z</time>
      </trkpt>
      <trkpt lat="40.192805" lon="-8.42291">
        <ele>24.227716</ele>
        <time>2024-06-22T11:39:03.000Z</time>
      </trkpt>
      <trkpt lat="40.192789" lon="-8.423989">
        <ele>23.22114</ele>
        <time>2024-06-22T11:39:12.000Z</time>
      </trkpt>
      <trkpt lat="40.192762" lon="-8.425077">
        <ele>23.224832</ele>
        <time>2024-06-22T11:39:21.000Z</time>
      </trkpt>
      <trkpt lat="40.192738" lon="-8.426152">
        <ele>24.244942</ele>
        <time>2024-06-22T11:39:30.000Z</time>
      </trkpt>
      <trkpt lat="40.192699" lon="-8.427237">
        <ele>27.243332</ele>
        <time>2024-06-22T11:39:39.000Z</time>
      </trkpt>
      <trkpt lat="40.192583" lon="-8.428062">
        <ele>29.557154</ele>
        <time>2024-06-22T11:39:46.000Z</time>
      </trkpt>
      <trkpt lat="40.192342" lon="-8.428682">
        <ele>31.925136</ele>
        <time>2024-06-22T11:39:52.000Z</time>
      </trkpt>
      <trkpt lat="40.191848" lon="-8.4296">
        <ele>35.895481</ele>
        <time>2024-06-22T11:40:02.000Z</time>
      </trkpt>
      <trkpt lat="40.191718" lon="-8.430229">
        <ele>37.956586</ele>
        <time>2024-06-22T11:40:08.000Z</time>
      </trkpt>
      <trkpt lat="40.191758" lon="-8.43073">
        <ele>37.854328</ele>
        <time>2024-06-22T11:40:12.000Z</time>
      </trkpt>
      <trkpt lat="40.191855" lon="-8.430941">
        <ele>37.803498</ele>
        <time>2024-06-22T11:40:14.000Z</time>
      </trkpt>
      <trkpt lat="40.191915" lon="-8.431128">
        <ele>37.760813</ele>
        <time>2024-06-22T11:40:16.000Z</time>
      </trkpt>
      <trkpt lat="40.192026" lon="-8.431344">
        <ele>37.708588</ele>
        <time>2024-06-22T11:40:18.000Z</time>
      </trkpt>
      <trkpt lat="40.192149" lon="-8.431496">
        <ele>37.664415</ele>
        <time>2024-06-22T11:40:20.000Z</time>
      </trkpt>
      <trkpt lat="40.192355" lon="-8.431667">
        <ele>37.601237</ele>
        <time>2024-06-22T11:40:23.000Z</time>
      </trkpt>
      <trkpt lat="40.192657" lon="-8.431891">
        <ele>37.507233</ele>
        <time>2024-06-22T11:40:27.000Z</time>
      </trkpt>
      <trkpt lat="40.192956" lon="-8.432023">
        <ele>36.517668</ele>
        <time>2024-06-22T11:40:31.000Z</time>
      </trkpt>
      <trkpt lat="40.193194" lon="-8.432107">
        <ele>35.495564</ele>
        <time>2024-06-22T11:40:34.000Z</time>
      </trkpt>
      <trkpt lat="40.193712" lon="-8.432198">
        <ele>33.431392</ele>
        <time>2024-06-22T11:40:40.000Z</time>
      </trkpt>
      <trkpt lat="40.194429" lon="-8.432244">
        <ele>30.501158</ele>
        <time>2024-06-22T11:40:48.000Z</time>
      </trkpt>
      <trkpt lat="40.194743" lon="-8.432109">
        <ele>29.437401</ele>
        <time>2024-06-22T11:40:52.000Z</time>
      </trkpt>
      <trkpt lat="40.195108" lon="-8.431904">
        <ele>28.232286</ele>
        <time>2024-06-22T11:40:56.000Z</time>
      </trkpt>
      <trkpt lat="40.195516" lon="-8.431606">
        <ele>26.815892</ele>
        <time>2024-06-22T11:41:01.000Z</time>
      </trkpt>
      <trkpt lat="40.195869" lon="-8.431266">
        <ele>25.463198</ele>
        <time>2024-06-22T11:41:06.000Z</time>
      </trkpt>
      <trkpt lat="40.195867" lon="-8.430981">
        <ele>24.829492</ele>
        <time>2024-06-22T11:41:08.000Z</time>
      </trkpt>
      <trkpt lat="40.195955" lon="-8.430778">
        <ele>24.517566</ele>
        <time>2024-06-22T11:41:10.000Z</time>
      </trkpt>
      <trkpt lat="40.196023" lon="-8.430684">
        <ele>24.368305</ele>
        <time>2024-06-22T11:41:11.000Z</time>
      </trkpt>
      <trkpt lat="40.196153" lon="-8.430593">
        <ele>24.116439</ele>
        <time>2024-06-22T11:41:13.000Z</time>
      </trkpt>
      <trkpt lat="40.19633" lon="-8.430563">
        <ele>23.845377</ele>
        <time>2024-06-22T11:41:15.000Z</time>
      </trkpt>
      <trkpt lat="40.196473" lon="-8.430638">
        <ele>23.573571</ele>
        <time>2024-06-22T11:41:17.000Z</time>
      </trkpt>
      <trkpt lat="40.196557" lon="-8.430697">
        <ele>23.436264</ele>
        <time>2024-06-22T11:41:18.000Z</time>
      </trkpt>
      <trkpt lat="40.19679" lon="-8.430657">
        <ele>23.034853</ele>
        <time>2024-06-22T11:41:21.000Z</time>
      </trkpt>
      <trkpt lat="40.196994" lon="-8.430613">
        <ele>22.719787</ele>
        <time>2024-06-22T11:41:23.000Z</time>
      </trkpt>
      <trkpt lat="40.197996" lon="-8.429911">
        <ele>21.742488</ele>
        <time>2024-06-22T11:41:36.000Z</time>
      </trkpt>
      <trkpt lat="40.198285" lon="-8.429733">
        <ele>21.670475</ele>
        <time>2024-06-22T11:41:40.000Z</time>
      </trkpt>
      <trkpt lat="40.198685" lon="-8.429614">
        <ele>21.581069</ele>
        <time>2024-06-22T11:41:45.000Z</time>
      </trkpt>
      <trkpt lat="40.199099" lon="-8.429622">
        <ele>21.492281</ele>
        <time>2024-06-22T11:41:50.000Z</time>
      </trkpt>
      <trkpt lat="40.199514" lon="-8.429771">
        <ele>21.410582</ele>
        <time>2024-06-22T11:41:55.000Z</time>
      </trkpt>
      <trkpt lat="40.200154" lon="-8.430093">
        <ele>21.284152</ele>
        <time>2024-06-22T11:42:03.000Z</time>
      </trkpt>
      <trkpt lat="40.200339" lon="-8.430192">
        <ele>21.246436</ele>
        <time>2024-06-22T11:42:05.000Z</time>
      </trkpt>
      <trkpt lat="40.200522" lon="-8.430285">
        <ele>21.209914</ele>
        <time>2024-06-22T11:42:07.000Z</time>
      </trkpt>
      <trkpt lat="40.200691" lon="-8.430384">
        <ele>21.17517</ele>
        <time>2024-06-22T11:42:09.000Z</time>
      </trkpt>
      <trkpt lat="40.201213" lon="-8.430646">
        <ele>20.917822</ele>
        <time>2024-06-22T11:42:15.000Z</time>
      </trkpt>
      <trkpt lat="40.201377" lon="-8.430738">
        <ele>20.818557</ele>
        <time>2024-06-22T11:42:17.000Z</time>
      </trkpt>
      <trkpt lat="40.201416" lon="-8.430774">
        <ele>20.789506</ele>
        <time>2024-06-22T11:42:18.000Z</time>
      </trkpt>
      <trkpt lat="40.202122" lon="-8.431132">
        <ele>20.375133</ele>
        <time>2024-06-22T11:42:26.000Z</time>
      </trkpt>
      <trkpt lat="40.20296" lon="-8.431561">
        <ele>20.120672</ele>
        <time>2024-06-22T11:42:36.000Z</time>
      </trkpt>
      <trkpt lat="40.203638" lon="-8.431909">
        <ele>20.068431</ele>
        <time>2024-06-22T11:42:44.000Z</time>
      </trkpt>
      <trkpt lat="40.203765" lon="-8.431988">
        <ele>20.058132</ele>
        <time>2024-06-22T11:42:46.000Z</time>
      </trkpt>
      <trkpt lat="40.204029" lon="-8.432008">
        <ele>20.0392</ele>
        <time>2024-06-22T11:42:49.000Z</time>
      </trkpt>
      <trkpt lat="40.204227" lon="-8.431995">
        <ele>20.027863</ele>
        <time>2024-06-22T11:42:51.000Z</time>
      </trkpt>
      <trkpt lat="40.204547" lon="-8.431878">
        <ele>20.028202</ele>
        <time>2024-06-22T11:42:55.000Z</time>
      </trkpt>
      <trkpt lat="40.204565" lon="-8.431856">
        <ele>20.028226</ele>
        <time>2024-06-22T11:42:55.000Z</time>
      </trkpt>
      <trkpt lat="40.204859" lon="-8.431579">
        <ele>20.028593</ele>
        <time>2024-06-22T11:42:59.000Z</time>
      </trkpt>
      <trkpt lat="40.204917" lon="-8.431536">
        <ele>20.028633</ele>
        <time>2024-06-22T11:43:00.000Z</time>
      </trkpt>
      <trkpt lat="40.204916" lon="-8.431541">
        <ele>20.028631</ele>
        <time>2024-06-22T11:43:00.000Z</time>
      </trkpt>
      <trkpt lat="40.204914" lon="-8.431535">
        <ele>20.028637</ele>
        <time>2024-06-22T11:43:00.000Z</time>
      </trkpt>
      <trkpt lat="40.205249" lon="-8.431628">
        <ele>20.028985</ele>
        <time>2024-06-22T11:43:04.000Z</time>
      </trkpt>
      <trkpt lat="40.205434" lon="-8.431847">
        <ele>20.029243</ele>
        <time>2024-06-22T11:43:07.000Z</time>
      </trkpt>
      <trkpt lat="40.205774" lon="-8.432276">
        <ele>20.017406</ele>
        <time>2024-06-22T11:43:12.000Z</time>
      </trkpt>
      <trkpt lat="40.205848" lon="-8.432344">
        <ele>20.006912</ele>
        <time>2024-06-22T11:43:13.000Z</time>
      </trkpt>
      <trkpt lat="40.207614" lon="-8.434516">
        <ele>19.636829</ele>
        <time>2024-06-22T11:43:40.000Z</time>
      </trkpt>
      <trkpt lat="40.207725" lon="-8.434657">
        <ele>19.605203</ele>
        <time>2024-06-22T11:43:42.000Z</time>
      </trkpt>
      <trkpt lat="40.208268" lon="-8.435287">
        <ele>19.459581</ele>
        <time>2024-06-22T11:43:50.000Z</time>
      </trkpt>
      <trkpt lat="40.208366" lon="-8.435368">
        <ele>19.437227</ele>
        <time>2024-06-22T11:43:51.000Z</time>
      </trkpt>
      <trkpt lat="40.20848" lon="-8.435557">
        <ele>19.399048</ele>
        <time>2024-06-22T11:43:53.000Z</time>
      </trkpt>
      <trkpt lat="40.209289" lon="-8.436325">
        <ele>19.194057</ele>
        <time>2024-06-22T11:44:04.000Z</time>
      </trkpt>
      <trkpt lat="40.209857" lon="-8.436842">
        <ele>19.082299</ele>
        <time>2024-06-22T11:44:12.000Z</time>
      </trkpt>
      <trkpt lat="40.211017" lon="-8.437809">
        <ele>19.311931</ele>
        <time>2024-06-22T11:44:27.000Z</time>
      </trkpt>
      <trkpt lat="40.211179" lon="-8.437977">
        <ele>19.345076</ele>
        <time>2024-06-22T11:44:29.000Z</time>
      </trkpt>
      <trkpt lat="40.211274" lon="-8.438185">
        <ele>19.385707</ele>
        <time>2024-06-22T11:44:31.000Z</time>
      </trkpt>
      <trkpt lat="40.21131" lon="-8.438381">
        <ele>19.450363</ele>
        <time>2024-06-22T11:44:33.000Z</time>
      </trkpt>
      <trkpt lat="40.211273" lon="-8.438864">
        <ele>19.605095</ele>
        <time>2024-06-22T11:44:37.000Z</time>
      </trkpt>
      <trkpt lat="40.211307" lon="-8.439092">
        <ele>19.677714</ele>
        <time>2024-06-22T11:44:39.000Z</time>
      </trkpt>
      <trkpt lat="40.211419" lon="-8.439368">
        <ele>19.779537</ele>
        <time>2024-06-22T11:44:42.000Z</time>
      </trkpt>
      <trkpt lat="40.211597" lon="-8.439483">
        <ele>19.864299</ele>
        <time>2024-06-22T11:44:44.000Z</time>
      </trkpt>
      <trkpt lat="40.211716" lon="-8.439505">
        <ele>19.914514</ele>
        <time>2024-06-22T11:44:45.000Z</time>
      </trkpt>
      <trkpt lat="40.21196" lon="-8.439711">
        <ele>20.037536</ele>
        <time>2024-06-22T11:44:48.000Z</time>
      </trkpt>
      <trkpt lat="40.212172" lon="-8.439995">
        <ele>20.12127</ele>
        <time>2024-06-22T11:44:51.000Z</time>
      </trkpt>
      <trkpt lat="40.212605" lon="-8.440433">
        <ele>20.12111</ele>
        <time>2024-06-22T11:44:57.000Z</time>
      </trkpt>
      <trkpt lat="40.21325" lon="-8.440857">
        <ele>20.120895</ele>
        <time>2024-06-22T11:45:05.000Z</time>
      </trkpt>
      <trkpt lat="40.21364" lon="-8.441029">
        <ele>20.120788</ele>
        <time>2024-06-22T11:45:10.000Z</time>
      </trkpt>
      <trkpt lat="40.214659" lon="-8.441257">
        <ele>19.350145</ele>
        <time>2024-06-22T11:45:21.000Z</time>
      </trkpt>
      <trkpt lat="40.214763" lon="-8.441256">
        <ele>19.266408</ele>
        <time>2024-06-22T11:45:22.000Z</time>
      </trkpt>
      <trkpt lat="40.214783" lon="-8.441224">
        <ele>19.242197</ele>
        <time>2024-06-22T11:45:22.000Z</time>
      </trkpt>
      <trkpt lat="40.214814" lon="-8.44122">
        <ele>19.210993</ele>
        <time>2024-06-22T11:45:22.000Z</time>
      </trkpt>
      <trkpt lat="40.214823" lon="-8.441268">
        <ele>19.179412</ele>
        <time>2024-06-22T11:45:22.000Z</time>
      </trkpt>
      <trkpt lat="40.215396" lon="-8.441582">
        <ele>18.699499</ele>
        <time>2024-06-22T11:45:29.000Z</time>
      </trkpt>
      <trkpt lat="40.215762" lon="-8.441837">
        <ele>18.344601</ele>
        <time>2024-06-22T11:45:34.000Z</time>
      </trkpt>
      <trkpt lat="40.216593" lon="-8.442577">
        <ele>17.472283</ele>
        <time>2024-06-22T11:45:45.000Z</time>
      </trkpt>
      <trkpt lat="40.217236" lon="-8.443306">
        <ele>17.003167</ele>
        <time>2024-06-22T11:45:54.000Z</time>
      </trkpt>
      <trkpt lat="40.217455" lon="-8.443708">
        <ele>16.86009</ele>
        <time>2024-06-22T11:45:58.000Z</time>
      </trkpt>
      <trkpt lat="40.217808" lon="-8.444576">
        <ele>16.590122</ele>
        <time>2024-06-22T11:46:06.000Z</time>
      </trkpt>
      <trkpt lat="40.218071" lon="-8.445417">
        <ele>16.392709</ele>
        <time>2024-06-22T11:46:14.000Z</time>
      </trkpt>
      <trkpt lat="40.218493" lon="-8.44782">
        <ele>15.963958</ele>
        <time>2024-06-22T11:46:35.000Z</time>
      </trkpt>
      <trkpt lat="40.218881" lon="-8.450036">
        <ele>15.703621</ele>
        <time>2024-06-22T11:46:54.000Z</time>
      </trkpt>
      <trkpt lat="40.219203" lon="-8.452469">
        <ele>15.502829</ele>
        <time>2024-06-22T11:47:15.000Z</time>
      </trkpt>
      <trkpt lat="40.219355" lon="-8.453685">
        <ele>15.408633</ele>
        <time>2024-06-22T11:47:25.000Z</time>
      </trkpt>
      <trkpt lat="40.219458" lon="-8.455328">
        <ele>15.287766</ele>
        <time>2024-06-22T11:47:39.000Z</time>
      </trkpt>
      <trkpt lat="40.219501" lon="-8.455698">
        <ele>15.260921</ele>
        <time>2024-06-22T11:47:42.000Z</time>
      </trkpt>
      <trkpt lat="40.219538" lon="-8.458954">
        <ele>14.850627</ele>
        <time>2024-06-22T11:48:10.000Z</time>
      </trkpt>
      <trkpt lat="40.219493" lon="-8.460218">
        <ele>14.557772</ele>
        <time>2024-06-22T11:48:21.000Z</time>
      </trkpt>
      <trkpt lat="40.219278" lon="-8.462347">
        <ele>14.045331</ele>
        <time>2024-06-22T11:48:39.000Z</time>
      </trkpt>
      <trkpt lat="40.219185" lon="-8.463169">
        <ele>13.83994</ele>
        <time>2024-06-22T11:48:46.000Z</time>
      </trkpt>
      <trkpt lat="40.218504" lon="-8.46736">
        <ele>13.207667</ele>
        <time>2024-06-22T11:49:22.000Z</time>
      </trkpt>
      <trkpt lat="40.217681" lon="-8.472051">
        <ele>12.632391</ele>
        <time>2024-06-22T11:50:03.000Z</time>
      </trkpt>
      <trkpt lat="40.216778" lon="-8.477265">
        <ele>12.27519</ele>
        <time>2024-06-22T11:50:48.000Z</time>
      </trkpt>
      <trkpt lat="40.216124" lon="-8.4811">
        <ele>11.930311</ele>
        <time>2024-06-22T11:51:21.000Z</time>
      </trkpt>
      <trkpt lat="40.21575" lon="-8.483404">
        <ele>12.087322</ele>
        <time>2024-06-22T11:51:41.000Z</time>
      </trkpt>
      <trkpt lat="40.215652" lon="-8.483868">
        <ele>12.142621</ele>
        <time>2024-06-22T11:51:45.000Z</time>
      </trkpt>
      <trkpt lat="40.215368" lon="-8.483808">
        <ele>12.15274</ele>
        <time>2024-06-22T11:51:48.000Z</time>
      </trkpt>
      <trkpt lat="40.215237" lon="-8.483574">
        <ele>12.143323</ele>
        <time>2024-06-22T11:51:50.000Z</time>
      </trkpt>
      <trkpt lat="40.215197" lon="-8.483299">
        <ele>12.134757</ele>
        <time>2024-06-22T11:51:52.000Z</time>
      </trkpt>
      <trkpt lat="40.215595" lon="-8.48345">
        <ele>12.118137</ele>
        <time>2024-06-22T11:51:57.000Z</time>
      </trkpt>
      <trkpt lat="40.216289" lon="-8.483647">
        <ele>12.088844</ele>
        <time>2024-06-22T11:52:05.000Z</time>
      </trkpt>
      <trkpt lat="40.216364" lon="-8.483673">
        <ele>12.086241</ele>
        <time>2024-06-22T11:52:06.000Z</time>
      </trkpt>
      <trkpt lat="40.21638" lon="-8.483673">
        <ele>12.081992</ele>
        <time>2024-06-22T11:52:06.000Z</time>
      </trkpt>
      <trkpt lat="40.216384" lon="-8.483672">
        <ele>12.081161</ele>
        <time>2024-06-22T11:52:06.000Z</time>
      </trkpt>
      <trkpt lat="40.217401" lon="-8.483972">
        <ele>11.914619</ele>
        <time>2024-06-22T11:52:18.000Z</time>
      </trkpt>
      <trkpt lat="40.218158" lon="-8.484159">
        <ele>11.796602</ele>
        <time>2024-06-22T11:52:27.000Z</time>
      </trkpt>
      <trkpt lat="40.218304" lon="-8.484278">
        <ele>11.789545</ele>
        <time>2024-06-22T11:52:29.000Z</time>
      </trkpt>
      <trkpt lat="40.218271" lon="-8.484481">
        <ele>11.782435</ele>
        <time>2024-06-22T11:52:31.000Z</time>
      </trkpt>
      <trkpt lat="40.217208" lon="-8.48436">
        <ele>11.736398</ele>
        <time>2024-06-22T11:52:43.000Z</time>
      </trkpt>
      <trkpt lat="40.217236" lon="-8.484059">
        <ele>11.726359</ele>
        <time>2024-06-22T11:52:46.000Z</time>
      </trkpt>
      <trkpt lat="40.219186" lon="-8.472606">
        <ele>12.353395</ele>
        <time>2024-06-22T11:54:26.000Z</time>
      </trkpt>
      <trkpt lat="40.219697" lon="-8.46956">
        <ele>13.044732</ele>
        <time>2024-06-22T11:54:52.000Z</time>
      </trkpt>
      <trkpt lat="40.219774" lon="-8.469294">
        <ele>13.164723</ele>
        <time>2024-06-22T11:54:54.000Z</time>
      </trkpt>
      <trkpt lat="40.219863" lon="-8.469091">
        <ele>13.261104</ele>
        <time>2024-06-22T11:54:56.000Z</time>
      </trkpt>
      <trkpt lat="40.219998" lon="-8.468864">
        <ele>13.389086</ele>
        <time>2024-06-22T11:54:58.000Z</time>
      </trkpt>
      <trkpt lat="40.220644" lon="-8.468142">
        <ele>13.848351</ele>
        <time>2024-06-22T11:55:07.000Z</time>
      </trkpt>
      <trkpt lat="40.221133" lon="-8.467562">
        <ele>14.063757</ele>
        <time>2024-06-22T11:55:14.000Z</time>
      </trkpt>
      <trkpt lat="40.222594" lon="-8.466129">
        <ele>14.422302</ele>
        <time>2024-06-22T11:55:34.000Z</time>
      </trkpt>
      <trkpt lat="40.222797" lon="-8.465899">
        <ele>14.424502</ele>
        <time>2024-06-22T11:55:37.000Z</time>
      </trkpt>
      <trkpt lat="40.222974" lon="-8.465599">
        <ele>14.427044</ele>
        <time>2024-06-22T11:55:40.000Z</time>
      </trkpt>
      <trkpt lat="40.223085" lon="-8.465334">
        <ele>14.429046</ele>
        <time>2024-06-22T11:55:43.000Z</time>
      </trkpt>
      <trkpt lat="40.223178" lon="-8.464985">
        <ele>14.436071</ele>
        <time>2024-06-22T11:55:46.000Z</time>
      </trkpt>
      <trkpt lat="40.223219" lon="-8.464647">
        <ele>14.465528</ele>
        <time>2024-06-22T11:55:49.000Z</time>
      </trkpt>
      <trkpt lat="40.223345" lon="-8.462185">
        <ele>14.706986</ele>
        <time>2024-06-22T11:56:10.000Z</time>
      </trkpt>
      <trkpt lat="40.223561" lon="-8.458541">
        <ele>15.180204</ele>
        <time>2024-06-22T11:56:41.000Z</time>
      </trkpt>
      <trkpt lat="40.223808" lon="-8.456505">
        <ele>15.385993</ele>
        <time>2024-06-22T11:56:59.000Z</time>
      </trkpt>
      <trkpt lat="40.223808" lon="-8.456475">
        <ele>15.387899</ele>
        <time>2024-06-22T11:56:59.000Z</time>
      </trkpt>
      <trkpt lat="40.223824" lon="-8.45647">
        <ele>15.387986</ele>
        <time>2024-06-22T11:56:59.000Z</time>
      </trkpt>
      <trkpt lat="40.22381" lon="-8.456482">
        <ele>15.388173</ele>
        <time>2024-06-22T11:56:59.000Z</time>
      </trkpt>
      <trkpt lat="40.223883" lon="-8.45594">
        <ele>15.437261</ele>
        <time>2024-06-22T11:57:04.000Z</time>
      </trkpt>
      <trkpt lat="40.224095" lon="-8.454564">
        <ele>15.774521</ele>
        <time>2024-06-22T11:57:16.000Z</time>
      </trkpt>
      <trkpt lat="40.224096" lon="-8.454034">
        <ele>15.922139</ele>
        <time>2024-06-22T11:57:20.000Z</time>
      </trkpt>
      <trkpt lat="40.22396" lon="-8.452115">
        <ele>16.885853</ele>
        <time>2024-06-22T11:57:36.000Z</time>
      </trkpt>
      <trkpt lat="40.223821" lon="-8.450927">
        <ele>17.612994</ele>
        <time>2024-06-22T11:57:46.000Z</time>
      </trkpt>
      <trkpt lat="40.223561" lon="-8.450072">
        <ele>17.942712</ele>
        <time>2024-06-22T11:57:54.000Z</time>
      </trkpt>
      <trkpt lat="40.223032" lon="-8.448743">
        <ele>18.407482</ele>
        <time>2024-06-22T11:58:07.000Z</time>
      </trkpt>
      <trkpt lat="40.222784" lon="-8.44799">
        <ele>18.296161</ele>
        <time>2024-06-22T11:58:14.000Z</time>
      </trkpt>
      <trkpt lat="40.22274" lon="-8.447673">
        <ele>18.252618</ele>
        <time>2024-06-22T11:58:17.000Z</time>
      </trkpt>
      <trkpt lat="40.222801" lon="-8.447297">
        <ele>18.198942</ele>
        <time>2024-06-22T11:58:20.000Z</time>
      </trkpt>
      <trkpt lat="40.223214" lon="-8.445694">
        <ele>17.579123</ele>
        <time>2024-06-22T11:58:34.000Z</time>
      </trkpt>
      <trkpt lat="40.223263" lon="-8.445581">
        <ele>17.515368</ele>
        <time>2024-06-22T11:58:35.000Z</time>
      </trkpt>
      <trkpt lat="40.22368" lon="-8.444455">
        <ele>16.864846</ele>
        <time>2024-06-22T11:58:46.000Z</time>
      </trkpt>
      <trkpt lat="40.223844" lon="-8.443924">
        <ele>16.474411</ele>
        <time>2024-06-22T11:58:51.000Z</time>
      </trkpt>
      <trkpt lat="40.22387" lon="-8.443739">
        <ele>16.343587</ele>
        <time>2024-06-22T11:58:53.000Z</time>
      </trkpt>
      <trkpt lat="40.223872" lon="-8.443612">
        <ele>16.259365</ele>
        <time>2024-06-22T11:58:54.000Z</time>
      </trkpt>
      <trkpt lat="40.223872" lon="-8.443606">
        <ele>16.258682</ele>
        <time>2024-06-22T11:58:54.000Z</time>
      </trkpt>
      <trkpt lat="40.223878" lon="-8.443609">
        <ele>16.255849</ele>
        <time>2024-06-22T11:58:54.000Z</time>
      </trkpt>
      <trkpt lat="40.223931" lon="-8.443158">
        <ele>15.94841</ele>
        <time>2024-06-22T11:58:58.000Z</time>
      </trkpt>
      <trkpt lat="40.22392" lon="-8.442865">
        <ele>15.750755</ele>
        <time>2024-06-22T11:59:00.000Z</time>
      </trkpt>
      <trkpt lat="40.223873" lon="-8.442576">
        <ele>15.554193</ele>
        <time>2024-06-22T11:59:03.000Z</time>
      </trkpt>
      <trkpt lat="40.223841" lon="-8.442525">
        <ele>15.508577</ele>
        <time>2024-06-22T11:59:04.000Z</time>
      </trkpt>
      <trkpt lat="40.223833" lon="-8.44253">
        <ele>15.505888</ele>
        <time>2024-06-22T11:59:04.000Z</time>
      </trkpt>
      <trkpt lat="40.223838" lon="-8.442534">
        <ele>15.504774</ele>
        <time>2024-06-22T11:59:04.000Z</time>
      </trkpt>
      <trkpt lat="40.223838" lon="-8.442518">
        <ele>15.501559</ele>
        <time>2024-06-22T11:59:04.000Z</time>
      </trkpt>
      <trkpt lat="40.223811" lon="-8.44247">
        <ele>15.465063</ele>
        <time>2024-06-22T11:59:05.000Z</time>
      </trkpt>
      <trkpt lat="40.223613" lon="-8.442348">
        <ele>15.28127</ele>
        <time>2024-06-22T11:59:07.000Z</time>
      </trkpt>
      <trkpt lat="40.223331" lon="-8.442222">
        <ele>15.22663</ele>
        <time>2024-06-22T11:59:10.000Z</time>
      </trkpt>
      <trkpt lat="40.222992" lon="-8.442098">
        <ele>15.160547</ele>
        <time>2024-06-22T11:59:14.000Z</time>
      </trkpt>
      <trkpt lat="40.222401" lon="-8.441817">
        <ele>15.0452</ele>
        <time>2024-06-22T11:59:21.000Z</time>
      </trkpt>
      <trkpt lat="40.22195" lon="-8.441637">
        <ele>14.957905</ele>
        <time>2024-06-22T11:59:26.000Z</time>
      </trkpt>
      <trkpt lat="40.220542" lon="-8.441265">
        <ele>15.953124</ele>
        <time>2024-06-22T11:59:42.000Z</time>
      </trkpt>
      <trkpt lat="40.219265" lon="-8.440355">
        <ele>16.896797</ele>
        <time>2024-06-22T11:59:58.000Z</time>
      </trkpt>
      <trkpt lat="40.218884" lon="-8.440158">
        <ele>17.160237</ele>
        <time>2024-06-22T12:00:03.000Z</time>
      </trkpt>
      <trkpt lat="40.218032" lon="-8.439803">
        <ele>17.775217</ele>
        <time>2024-06-22T12:00:13.000Z</time>
      </trkpt>
      <trkpt lat="40.217407" lon="-8.439586">
        <ele>18.225776</ele>
        <time>2024-06-22T12:00:20.000Z</time>
      </trkpt>
      <trkpt lat="40.217301" lon="-8.439518">
        <ele>18.319271</ele>
        <time>2024-06-22T12:00:21.000Z</time>
      </trkpt>
      <trkpt lat="40.217294" lon="-8.43951">
        <ele>18.320787</ele>
        <time>2024-06-22T12:00:21.000Z</time>
      </trkpt>
      <trkpt lat="40.217296" lon="-8.439509">
        <ele>18.321496</ele>
        <time>2024-06-22T12:00:21.000Z</time>
      </trkpt>
      <trkpt lat="40.217283" lon="-8.439514">
        <ele>18.323012</ele>
        <time>2024-06-22T12:00:21.000Z</time>
      </trkpt>
      <trkpt lat="40.217116" lon="-8.439414">
        <ele>18.455975</ele>
        <time>2024-06-22T12:00:23.000Z</time>
      </trkpt>
      <trkpt lat="40.217056" lon="-8.439394">
        <ele>18.50474</ele>
        <time>2024-06-22T12:00:24.000Z</time>
      </trkpt>
      <trkpt lat="40.217049" lon="-8.439276">
        <ele>18.568031</ele>
        <time>2024-06-22T12:00:25.000Z</time>
      </trkpt>
      <trkpt lat="40.217063" lon="-8.439234">
        <ele>18.595509</ele>
        <time>2024-06-22T12:00:25.000Z</time>
      </trkpt>
      <trkpt lat="40.217148" lon="-8.439238">
        <ele>18.651457</ele>
        <time>2024-06-22T12:00:26.000Z</time>
      </trkpt>
      <trkpt lat="40.21717" lon="-8.439128">
        <ele>18.779504</ele>
        <time>2024-06-22T12:00:27.000Z</time>
      </trkpt>
      <trkpt lat="40.217197" lon="-8.43905">
        <ele>18.866709</ele>
        <time>2024-06-22T12:00:28.000Z</time>
      </trkpt>
      <trkpt lat="40.217242" lon="-8.438893">
        <ele>19.044101</ele>
        <time>2024-06-22T12:00:29.000Z</time>
      </trkpt>
      <trkpt lat="40.217285" lon="-8.43874">
        <ele>19.218961</ele>
        <time>2024-06-22T12:00:30.000Z</time>
      </trkpt>
      <trkpt lat="40.217336" lon="-8.438558">
        <ele>19.425617</ele>
        <time>2024-06-22T12:00:32.000Z</time>
      </trkpt>
      <trkpt lat="40.217452" lon="-8.438186">
        <ele>19.851616</ele>
        <time>2024-06-22T12:00:35.000Z</time>
      </trkpt>
      <trkpt lat="40.217533" lon="-8.43791">
        <ele>20.165148</ele>
        <time>2024-06-22T12:00:38.000Z</time>
      </trkpt>
      <trkpt lat="40.217484" lon="-8.43767">
        <ele>20.432187</ele>
        <time>2024-06-22T12:00:40.000Z</time>
      </trkpt>
      <trkpt lat="40.217419" lon="-8.437634">
        <ele>20.530456</ele>
        <time>2024-06-22T12:00:41.000Z</time>
      </trkpt>
      <trkpt lat="40.21708" lon="-8.43732">
        <ele>21.090266</ele>
        <time>2024-06-22T12:00:46.000Z</time>
      </trkpt>
      <trkpt lat="40.21693" lon="-8.437163">
        <ele>21.316387</ele>
        <time>2024-06-22T12:00:48.000Z</time>
      </trkpt>
      <trkpt lat="40.216394" lon="-8.436638">
        <ele>21.965645</ele>
        <time>2024-06-22T12:00:55.000Z</time>
      </trkpt>
      <trkpt lat="40.216316" lon="-8.436555">
        <ele>22.05036</ele>
        <time>2024-06-22T12:00:56.000Z</time>
      </trkpt>
      <trkpt lat="40.216249" lon="-8.436493">
        <ele>22.144893</ele>
        <time>2024-06-22T12:00:57.000Z</time>
      </trkpt>
      <trkpt lat="40.216146" lon="-8.436381">
        <ele>22.275051</ele>
        <time>2024-06-22T12:00:58.000Z</time>
      </trkpt>
      <trkpt lat="40.215985" lon="-8.436216">
        <ele>22.473049</ele>
        <time>2024-06-22T12:01:00.000Z</time>
      </trkpt>
      <trkpt lat="40.21562" lon="-8.435882">
        <ele>22.909406</ele>
        <time>2024-06-22T12:01:05.000Z</time>
      </trkpt>
      <trkpt lat="40.215517" lon="-8.435905">
        <ele>22.924589</ele>
        <time>2024-06-22T12:01:06.000Z</time>
      </trkpt>
      <trkpt lat="40.215472" lon="-8.435863">
        <ele>22.932934</ele>
        <time>2024-06-22T12:01:07.000Z</time>
      </trkpt>
      <trkpt lat="40.215418" lon="-8.435776">
        <ele>22.94472</ele>
        <time>2024-06-22T12:01:08.000Z</time>
      </trkpt>
      <trkpt lat="40.215409" lon="-8.435711">
        <ele>22.950725</ele>
        <time>2024-06-22T12:01:09.000Z</time>
      </trkpt>
      <trkpt lat="40.215282" lon="-8.435543">
        <ele>22.976208</ele>
        <time>2024-06-22T12:01:11.000Z</time>
      </trkpt>
      <trkpt lat="40.214274" lon="-8.434571">
        <ele>23.148787</ele>
        <time>2024-06-22T12:01:25.000Z</time>
      </trkpt>
      <trkpt lat="40.213835" lon="-8.434124">
        <ele>23.389667</ele>
        <time>2024-06-22T12:01:31.000Z</time>
      </trkpt>
      <trkpt lat="40.213588" lon="-8.433888">
        <ele>23.547438</ele>
        <time>2024-06-22T12:01:34.000Z</time>
      </trkpt>
      <trkpt lat="40.213492" lon="-8.43381">
        <ele>23.602624</ele>
        <time>2024-06-22T12:01:35.000Z</time>
      </trkpt>
      <trkpt lat="40.213453" lon="-8.433815">
        <ele>23.616458</ele>
        <time>2024-06-22T12:01:35.000Z</time>
      </trkpt>
      <trkpt lat="40.213052" lon="-8.433448">
        <ele>23.861229</ele>
        <time>2024-06-22T12:01:40.000Z</time>
      </trkpt>
      <trkpt lat="40.212997" lon="-8.43336">
        <ele>23.898589</ele>
        <time>2024-06-22T12:01:41.000Z</time>
      </trkpt>
      <trkpt lat="40.212877" lon="-8.433341">
        <ele>23.959427</ele>
        <time>2024-06-22T12:01:42.000Z</time>
      </trkpt>
      <trkpt lat="40.212667" lon="-8.433201">
        <ele>24.019774</ele>
        <time>2024-06-22T12:01:45.000Z</time>
      </trkpt>
      <trkpt lat="40.212518" lon="-8.433109">
        <ele>23.96358</ele>
        <time>2024-06-22T12:01:47.000Z</time>
      </trkpt>
      <trkpt lat="40.211415" lon="-8.432524">
        <ele>23.55708</ele>
        <time>2024-06-22T12:02:00.000Z</time>
      </trkpt>
      <trkpt lat="40.210899" lon="-8.432226">
        <ele>23.215513</ele>
        <time>2024-06-22T12:02:06.000Z</time>
      </trkpt>
      <trkpt lat="40.210815" lon="-8.43219">
        <ele>23.126301</ele>
        <time>2024-06-22T12:02:07.000Z</time>
      </trkpt>
      <trkpt lat="40.210494" lon="-8.43201">
        <ele>22.747</ele>
        <time>2024-06-22T12:02:11.000Z</time>
      </trkpt>
      <trkpt lat="40.210295" lon="-8.431901">
        <ele>22.50432</ele>
        <time>2024-06-22T12:02:13.000Z</time>
      </trkpt>
      <trkpt lat="40.210049" lon="-8.431784">
        <ele>22.212178</ele>
        <time>2024-06-22T12:02:16.000Z</time>
      </trkpt>
      <trkpt lat="40.20979" lon="-8.431645">
        <ele>21.911266</ele>
        <time>2024-06-22T12:02:19.000Z</time>
      </trkpt>
      <trkpt lat="40.20966" lon="-8.431561">
        <ele>21.755448</ele>
        <time>2024-06-22T12:02:21.000Z</time>
      </trkpt>
      <trkpt lat="40.209559" lon="-8.431602">
        <ele>21.640813</ele>
        <time>2024-06-22T12:02:22.000Z</time>
      </trkpt>
      <trkpt lat="40.209515" lon="-8.431629">
        <ele>21.579042</ele>
        <time>2024-06-22T12:02:23.000Z</time>
      </trkpt>
      <trkpt lat="40.209347" lon="-8.432167">
        <ele>21.204445</ele>
        <time>2024-06-22T12:02:28.000Z</time>
      </trkpt>
      <trkpt lat="40.209282" lon="-8.432202">
        <ele>21.156934</ele>
        <time>2024-06-22T12:02:29.000Z</time>
      </trkpt>
      <trkpt lat="40.208922" lon="-8.431737">
        <ele>20.787719</ele>
        <time>2024-06-22T12:02:35.000Z</time>
      </trkpt>
      <trkpt lat="40.208846" lon="-8.431758">
        <ele>20.723112</ele>
        <time>2024-06-22T12:02:36.000Z</time>
      </trkpt>
      <trkpt lat="40.20873" lon="-8.431805">
        <ele>20.63937</ele>
        <time>2024-06-22T12:02:37.000Z</time>
      </trkpt>
      <trkpt lat="40.208676" lon="-8.431877">
        <ele>20.582115</ele>
        <time>2024-06-22T12:02:38.000Z</time>
      </trkpt>
      <trkpt lat="40.208622" lon="-8.431933">
        <ele>20.529841</ele>
        <time>2024-06-22T12:02:39.000Z</time>
      </trkpt>
      <trkpt lat="40.208494" lon="-8.432033">
        <ele>20.426874</ele>
        <time>2024-06-22T12:02:41.000Z</time>
      </trkpt>
      <trkpt lat="40.208403" lon="-8.432">
        <ele>20.350395</ele>
        <time>2024-06-22T12:02:42.000Z</time>
      </trkpt>
      <trkpt lat="40.20816" lon="-8.43173">
        <ele>20.118595</ele>
        <time>2024-06-22T12:02:46.000Z</time>
      </trkpt>
      <trkpt lat="40.208009" lon="-8.431564">
        <ele>20.185614</ele>
        <time>2024-06-22T12:02:48.000Z</time>
      </trkpt>
      <trkpt lat="40.207865" lon="-8.431442">
        <ele>20.244809</ele>
        <time>2024-06-22T12:02:50.000Z</time>
      </trkpt>
      <trkpt lat="40.207758" lon="-8.431281">
        <ele>20.300462</ele>
        <time>2024-06-22T12:02:52.000Z</time>
      </trkpt>
      <trkpt lat="40.207691" lon="-8.431156">
        <ele>20.341922</ele>
        <time>2024-06-22T12:02:53.000Z</time>
      </trkpt>
      <trkpt lat="40.207427" lon="-8.430764">
        <ele>20.477818</ele>
        <time>2024-06-22T12:02:57.000Z</time>
      </trkpt>
      <trkpt lat="40.207371" lon="-8.430593">
        <ele>20.52422</ele>
        <time>2024-06-22T12:02:59.000Z</time>
      </trkpt>
      <trkpt lat="40.207355" lon="-8.430407">
        <ele>20.574808</ele>
        <time>2024-06-22T12:03:01.000Z</time>
      </trkpt>
      <trkpt lat="40.207329" lon="-8.430198">
        <ele>20.633669</ele>
        <time>2024-06-22T12:03:03.000Z</time>
      </trkpt>
      <trkpt lat="40.207226" lon="-8.429942">
        <ele>20.709457</ele>
        <time>2024-06-22T12:03:05.000Z</time>
      </trkpt>
      <trkpt lat="40.207138" lon="-8.42981">
        <ele>20.785519</ele>
        <time>2024-06-22T12:03:06.000Z</time>
      </trkpt>
      <trkpt lat="40.206998" lon="-8.429609">
        <ele>20.959586</ele>
        <time>2024-06-22T12:03:08.000Z</time>
      </trkpt>
      <trkpt lat="40.206867" lon="-8.4294">
        <ele>21.138979</ele>
        <time>2024-06-22T12:03:10.000Z</time>
      </trkpt>
      <trkpt lat="40.206774" lon="-8.429244">
        <ele>21.269042</ele>
        <time>2024-06-22T12:03:12.000Z</time>
      </trkpt>
      <trkpt lat="40.2067" lon="-8.429163">
        <ele>21.353132</ele>
        <time>2024-06-22T12:03:13.000Z</time>
      </trkpt>
      <trkpt lat="40.206519" lon="-8.428916">
        <ele>21.572523</ele>
        <time>2024-06-22T12:03:16.000Z</time>
      </trkpt>
      <trkpt lat="40.20547" lon="-8.42746">
        <ele>22.451529</ele>
        <time>2024-06-22T12:03:33.000Z</time>
      </trkpt>
      <trkpt lat="40.204733" lon="-8.426395">
        <ele>22.699414</ele>
        <time>2024-06-22T12:03:45.000Z</time>
      </trkpt>
      <trkpt lat="40.204279" lon="-8.425778">
        <ele>22.133815</ele>
        <time>2024-06-22T12:03:52.000Z</time>
      </trkpt>
      <trkpt lat="40.204158" lon="-8.425643">
        <ele>22.005205</ele>
        <time>2024-06-22T12:03:54.000Z</time>
      </trkpt>
      <trkpt lat="40.204124" lon="-8.425644">
        <ele>21.976978</ele>
        <time>2024-06-22T12:03:54.000Z</time>
      </trkpt>
      <trkpt lat="40.204044" lon="-8.425622">
        <ele>21.916347</ele>
        <time>2024-06-22T12:03:55.000Z</time>
      </trkpt>
      <trkpt lat="40.203709" lon="-8.425237">
        <ele>21.539089</ele>
        <time>2024-06-22T12:04:00.000Z</time>
      </trkpt>
      <trkpt lat="40.203615" lon="-8.425163">
        <ele>21.442849</ele>
        <time>2024-06-22T12:04:01.000Z</time>
      </trkpt>
      <trkpt lat="40.203252" lon="-8.424912">
        <ele>21.1566987951</ele>
        <time>2024-06-22T12:04:06.000Z</time>
      </trkpt>
      <trkpt lat="40.202914" lon="-8.424752">
        <ele>20.9061671461</ele>
        <time>2024-06-22T12:04:10.000Z</time>
      </trkpt>
      <trkpt lat="40.202105" lon="-8.424438">
        <ele>20.3179897425</ele>
        <time>2024-06-22T12:04:19.000Z</time>
      </trkpt>
    </trkseg>
  </trk>
</gpx>

<!--
Performance optimized by W3 Total Cache. Learn more: https://www.boldgrid.com/w3-total-cache/?utm_source=w3tc&utm_medium=footer_comment&utm_campaign=free_plugin

Page Caching using Disk: Enhanced{w3tc_pagecache_reject_reason} 

Served from: www.aquabike.world @ 2026-05-07 17:49:47 by W3 Total Cache
-->